GFSMA_500_spd_000.txt.gz
Wind_Speed
37 38 39 40 39 38 37 39 40 41 40 40 40 40 39 38 35 33 34 34 33 33 33 33 33 31 41 50 53 55 57 58 55 52 51 50 49 47 47 47 45 43 41
42 42 43 44 45 44 43 43 43 43 44 44 44 43 44 44 43 41 37 36 37 37 36 39 39 40 40 44 57 58 60 63 61 57 56 56 53 52 51 51 50 48 46
47 47 48 49 48 47 48 49 47 46 46 47 49 49 49 49 49 48 47 45 42 40 41 41 40 43 47 44 43 53 61 60 63 64 63 60 60 58 56 54 54 53 52
47 48 49 50 51 50 50 51 52 53 54 54 55 55 54 54 54 53 53 52 50 48 47 47 46 46 45 48 49 47 51 59 64 62 63 66 62 63 63 60 58 56 54
52 54 55 54 55 55 55 56 57 58 58 58 57 56 57 57 56 56 57 57 56 54 52 53 53 51 50 49 52 54 53 54 57 62 62 62 63 63 64 64 62 61 61
54 55 57 59 60 59 58 58 57 57 57 57 58 58 58 58 57 56 57 58 58 59 58 58 59 60 58 56 53 56 59 57 55 58 67 68 68 60 71 65 65 64 63
58 58 57 57 57 58 58 57 58 59 59 60 60 59 60 60 59 59 60 60 61 60 59 60 60 61 63 63 61 59 62 64 61 62 61 55 69 76 72 56 71 67 68
56 58 58 58 58 60 62 61 58 55 55 55 58 58 58 60 61 63 64 62 61 60 59 59 59 61 63 64 65 65 64 66 69 69 68 66 64 69 83 76 70 57 70
56 57 59 60 61 62 61 62 62 62 61 59 57 59 62 61 59 60 63 65 64 61 60 60 60 61 63 65 67 68 70 70 71 75 73 74 71 66 68 79 57 63 63
58 60 61 63 64 65 65 66 65 67 67 67 66 61 58 60 62 62 62 64 65 65 66 65 64 64 64 66 70 72 73 75 74 76 79 75 77 74 69 71 78 67 58
64 66 67 68 68 68 66 66 66 66 69 70 71 71 69 64 63 65 65 64 64 64 65 65 66 67 66 68 70 74 77 77 79 80 82 82 79 78 76 71 69 82 92
67 69 71 73 73 74 74 75 75 74 73 67 69 68 68 68 69 67 68 67 64 57 59 59 63 67 69 70 72 74 78 81 83 86 86 86 83 80 78 74 71 67 72
71 72 76 79 79 79 79 79 77 74 74 71 65 66 66 66 66 69 70 70 69 69 61 54 55 60 65 69 72 75 78 82 86 89 92 89 88 85 82 79 71 71 62
80 79 76 78 78 79 80 80 78 75 70 68 63 65 68 62 63 65 64 67 66 66 65 58 57 57 58 65 71 74 76 80 84 86 90 93 92 90 85 82 79 74 75
84 86 84 81 84 83 82 78 70 65 64 63 62 52 58 73 71 73 72 72 76 76 69 68 61 56 55 57 64 71 74 77 79 84 83 87 93 92 88 86 83 79 77
89 88 87 85 82 82 76 67 63 61 57 51 54 56 59 66 68 72 78 79 80 82 75 63 60 54 53 54 57 62 68 73 77 82 83 84 85 91 89 88 87 81 77
88 88 84 79 75 66 60 56 53 50 51 52 60 65 68 72 74 76 76 77 76 72 68 59 59 57 53 54 56 58 61 65 70 76 80 81 81 86 90 91 92 89 71
87 83 74 66 55 53 51 49 49 49 51 51 52 54 56 58 60 61 62 63 64 65 66 62 61 61 59 57 57 58 60 60 62 66 72 75 77 80 87 88 94 95 93
81 72 61 45 44 44 47 48 48 49 50 51 50 51 52 53 55 59 60 60 60 62 63 63 62 62 62 60 59 61 62 63 61 63 65 66 69 74 81 85 87 95 96
66 50 40 41 41 42 45 47 45 43 43 44 44 47 50 53 54 55 58 60 63 64 65 66 66 65 67 68 67 65 64 62 63 65 65 65 64 66 74 79 84 87 96
42 40 41 44 51 52 53 50 46 44 44 46 49 50 51 53 55 58 59 58 60 63 65 67 68 68 67 66 68 68 69 67 63 65 68 67 65 64 67 73 78 82 89
42 44 46 48 49 48 47 45 43 45 47 48 48 49 51 53 55 54 56 59 59 50 41 39 37 36 40 51 63 70 70 70 68 66 67 69 70 67 65 69 73 77 82
44 46 47 47 46 45 44 44 47 48 48 47 48 49 49 50 50 52 47 37 32 32 33 34 35 35 33 32 34 45 54 62 66 68 70 69 70 71 71 68 69 71 76
46 45 45 45 46 48 49 50 50 48 47 48 48 46 46 44 44 36 31 33 36 40 42 43 41 40 40 40 37 35 33 35 44 56 65 70 72 73 75 75 70 69 71
48 49 51 52 52 52 52 51 50 47 46 45 44 44 40 38 30 31 33 37 38 39 43 44 44 42 40 42 44 42 39 35 29 29 42 63 67 72 76 76 76 73 70
54 54 54 55 55 54 54 52 50 46 42 40 39 37 35 27 28 32 33 31 30 32 33 33 32 31 31 33 38 44 46 41 39 36 37 34 45 61 71 74 77 78 78

GFSMA_500_spd_006.txt.gz
Wind_Speed
37 37 38 38 38 37 37 37 38 38 38 38 39 39 39 39 39 39 39 38 38 38 37 35 35 34 33 34 33 30 32 36 38 40 45 48 54 48 49 50 48 46 43
39 39 39 40 39 39 40 41 42 42 42 42 42 42 42 43 43 44 44 43 43 42 43 42 41 40 37 37 36 35 36 37 38 43 47 51 58 54 51 51 50 49 46
42 42 43 44 44 43 42 42 42 42 44 45 46 46 47 48 49 48 49 49 49 49 48 48 47 46 44 42 41 40 38 41 41 43 37 49 57 57 56 54 53 52 50
43 44 45 46 47 45 42 41 40 40 40 42 43 46 47 47 47 48 49 50 52 54 53 53 53 52 51 49 47 47 46 44 45 46 43 40 46 54 57 57 57 55 54
47 47 47 47 47 47 47 47 46 46 45 45 45 46 46 47 47 47 48 49 51 53 55 53 55 56 56 55 53 52 52 52 50 50 48 48 45 44 50 62 60 61 58
50 50 50 50 52 53 53 53 53 54 54 52 54 56 53 53 54 53 52 51 52 53 56 58 57 57 57 58 60 58 58 58 58 56 53 51 50 48 51 48 58 60 61
53 54 54 55 57 58 59 59 61 62 60 62 62 61 61 64 60 60 57 56 55 57 58 60 61 62 61 60 61 63 63 63 64 63 61 57 54 53 51 52 58 55 64
57 58 59 61 63 66 66 66 67 68 68 65 65 66 67 66 67 63 63 60 58 59 59 59 62 62 63 63 62 64 66 68 68 69 67 65 62 60 58 59 60 55 54
64 65 66 67 69 70 70 71 71 71 73 71 71 71 71 72 73 73 72 63 66 61 61 60 62 64 65 65 64 64 67 69 72 73 73 72 69 67 65 64 64 62 66
69 70 72 74 75 75 75 75 75 75 77 75 76 77 75 72 72 73 75 74 66 69 69 66 65 65 66 68 68 69 68 69 70 73 76 77 76 75 72 70 69 68 67
74 76 77 79 79 78 77 76 76 77 78 78 76 74 72 74 70 74 75 75 75 74 68 71 72 69 68 68 69 70 71 71 73 75 76 78 80 80 80 78 76 75 72
78 80 80 81 80 81 81 83 82 81 79 79 79 76 76 72 71 71 73 74 74 75 76 69 74 75 73 72 72 71 74 74 73 76 78 79 81 81 82 83 82 80 79
80 80 82 82 84 85 84 82 85 86 83 82 84 85 85 84 80 78 77 77 78 77 76 75 74 77 77 78 76 76 77 78 79 78 77 78 79 81 82 83 83 84 83
82 84 84 86 85 87 86 87 91 93 94 91 85 84 85 83 82 80 78 77 77 78 79 78 79 79 80 79 82 79 80 82 82 83 82 81 81 81 81 81 82 83 84
83 82 83 84 86 90 91 95 91 88 80 74 67 61 67 69 67 64 65 66 68 69 67 77 70 74 75 77 78 74 71 77 81 86 87 86 83 84 85 85 82 83 85
82 85 86 88 92 94 93 84 71 61 53 50 47 48 44 42 45 41 54 58 57 62 68 74 76 71 72 70 74 75 71 71 76 77 83 86 88 89 87 86 85 85 85
86 88 89 91 95 85 71 56 48 45 40 47 49 54 48 50 52 52 50 53 64 68 68 65 66 69 66 68 69 71 77 77 77 73 76 81 85 89 90 91 90 87 87
88 91 91 82 72 61 47 45 44 43 45 50 50 50 51 53 52 51 49 49 50 56 63 65 63 68 71 68 62 63 65 65 68 72 77 81 84 86 92 92 91 91 91
92 86 72 62 52 48 45 47 47 48 50 50 49 49 48 48 48 50 50 48 50 51 52 55 53 55 57 57 56 58 63 66 67 70 69 70 72 76 80 84 89 91 92
81 69 60 52 52 51 49 48 50 50 51 51 51 49 47 45 44 42 41 40 41 44 47 50 50 50 53 54 55 55 57 61 62 64 64 66 67 68 69 70 72 78 84
62 55 55 55 52 50 49 48 49 49 48 48 48 47 45 43 42 42 40 40 41 41 43 46 48 48 50 53 55 56 58 60 62 64 65 66 67 69 68 67 67 69 71
55 56 54 53 54 54 52 52 52 52 52 51 51 51 49 46 44 43 43 42 43 43 43 45 45 43 44 48 50 51 53 55 59 63 66 66 69 69 69 68 67 67 68
54 54 56 58 59 60 58 57 56 55 54 54 53 52 51 49 48 46 46 45 45 43 41 40 39 40 42 43 43 41 42 43 47 54 62 65 70 70 70 70 68 66 66
55 58 60 61 60 59 57 55 54 53 52 51 52 52 52 49 47 44 43 41 38 36 35 37 38 32 30 33 34 35 36 35 35 35 36 38 48 64 74 74 70 67 67
56 60 60 58 54 51 50 48 46 44 42 42 43 44 46 44 42 40 36 32 29 28 31 28 29 33 35 38 40 42 42 44 43 42 41 39 38 35 38 57 70 70 68
58 58 55 53 50 48 47 42 39 36 34 34 34 35 37 35 32 30 26 22 21 22 24 25 25 26 28 31 34 36 38 41 45 47 47 48 45 43 43 35 41 57 67

GFSMA_500_spd_009.txt.gz
Wind_Speed
36 36 39 39 39 38 38 38 38 39 40 40 39 39 39 38 38 38 41 36 39 39 40 41 40 37 36 35 34 33 30 31 31 27 30 35 42 50 51 51 47 45 41
41 40 42 41 41 42 42 41 41 41 41 41 40 40 41 42 43 43 45 45 42 43 44 44 44 44 43 40 38 38 36 33 34 32 36 34 33 41 54 57 49 47 46
41 41 43 41 41 41 42 43 42 41 41 41 40 40 41 43 45 46 46 48 47 47 49 48 48 48 48 46 46 43 41 41 38 37 36 34 35 34 39 58 56 49 48
45 44 44 44 45 44 44 44 44 45 46 45 44 44 45 44 46 46 47 48 50 48 46 50 52 53 53 53 52 50 48 45 45 43 40 33 39 46 37 39 49 57 49
48 48 50 51 51 51 51 51 52 52 52 51 51 51 50 50 53 54 53 53 50 52 54 49 50 54 55 56 57 56 54 52 51 49 48 45 47 34 38 38 47 63 62
51 53 55 56 57 57 57 57 58 59 60 62 61 61 60 61 59 59 62 59 58 58 56 60 56 54 56 56 56 58 59 59 57 55 55 53 52 52 48 44 38 43 54
53 56 58 60 61 62 63 64 65 65 66 67 69 68 68 68 68 68 66 66 67 68 65 59 66 63 60 58 60 58 60 62 62 61 60 60 60 58 54 50 44 44 40
60 62 65 66 67 69 70 72 73 73 73 73 75 75 74 74 73 75 75 71 69 70 71 72 67 66 65 66 61 62 62 62 64 65 65 64 66 65 61 56 52 48 55
67 68 69 69 70 73 74 76 77 77 77 75 74 76 77 76 74 75 77 80 79 77 70 69 76 71 68 65 68 65 64 64 64 66 69 69 69 70 69 64 60 57 61
70 72 74 75 75 77 78 78 78 77 78 77 77 76 76 76 72 75 73 77 80 79 80 74 68 75 69 67 67 69 66 66 66 66 67 71 72 72 74 72 68 65 65
72 75 77 78 77 77 78 80 80 80 79 79 78 79 80 77 76 78 74 71 71 77 78 77 81 71 74 73 72 71 69 69 70 70 69 69 72 75 76 78 76 72 70
75 77 77 79 80 81 80 80 80 81 80 81 81 82 82 83 83 84 82 78 79 76 77 76 78 83 75 72 76 78 75 70 71 73 72 73 74 74 75 77 81 80 77
76 78 80 80 79 80 81 81 82 81 84 84 83 86 86 89 89 89 88 84 82 81 78 74 78 83 83 80 74 80 78 76 73 75 73 73 75 76 77 77 78 81 82
78 79 79 80 80 80 81 82 86 86 87 90 90 89 83 77 78 73 62 67 71 73 72 78 80 80 82 88 88 78 79 80 79 75 77 78 76 76 75 75 77 80 82
84 83 81 80 81 81 80 84 87 90 82 74 69 68 64 51 47 41 46 45 44 53 66 66 63 66 71 81 90 88 79 82 81 79 80 79 81 81 80 78 78 77 77
92 84 82 81 82 83 86 88 81 69 62 55 52 47 49 44 46 43 49 46 44 41 51 52 65 69 64 68 70 77 70 74 79 80 83 83 84 83 84 84 81 80 79
90 85 84 82 83 83 76 67 58 52 50 49 47 46 48 47 52 53 55 53 47 46 49 52 62 60 61 65 66 74 78 76 71 76 79 82 84 84 85 85 85 85 82
89 87 84 81 73 66 59 54 52 51 52 52 50 50 49 50 51 51 53 56 55 57 54 52 52 56 60 65 66 67 66 63 66 68 74 78 79 83 85 86 87 89 87
84 81 74 66 60 54 52 54 54 51 51 51 50 49 49 51 51 49 47 47 47 50 52 52 49 50 53 56 60 64 64 65 68 71 75 74 73 77 81 86 88 88 88
79 71 62 55 52 51 53 52 54 54 54 54 54 52 51 50 49 47 45 43 43 42 43 44 45 46 47 50 53 56 57 60 62 65 68 70 72 74 80 87 88 86 86
66 59 53 51 52 54 55 55 57 57 57 56 56 55 54 52 50 48 46 42 41 40 40 39 37 39 41 45 48 50 52 56 57 59 61 60 61 63 68 74 80 85 87
57 51 52 54 56 58 60 60 59 58 56 54 53 52 52 52 51 49 47 45 43 42 41 40 38 39 40 42 45 47 51 54 54 57 59 58 63 61 60 62 66 70 74
51 52 54 55 58 61 60 56 54 53 50 48 47 48 48 47 48 47 47 45 44 44 43 41 39 39 39 40 42 44 46 49 51 55 57 59 63 63 64 66 67 67 66
51 53 54 58 60 57 56 50 47 45 44 43 43 42 41 41 42 43 42 43 42 41 40 39 38 36 36 37 39 40 42 45 48 51 55 56 58 60 64 66 67 69 70
50 51 56 58 57 52 51 50 46 43 40 39 39 39 38 36 35 35 35 36 37 35 35 34 32 30 30 30 31 32 34 36 36 38 41 42 41 44 51 59 65 70 70
49 51 55 57 51 50 50 48 45 40 38 38 36 34 34 31 28 27 27 27 26 28 28 25 23 21 23 24 28 31 35 38 40 41 44 47 46 45 42 40 40 41 47

GFSMA_500_spd_012.txt.gz
Wind_Speed
36 36 39 40 39 39 40 38 36 37 35 34 34 34 34 35 36 38 38 37 35 36 37 38 39 39 40 39 37 36 34 31 29 25 22 22 33 23 33 42 45 45 42
38 40 42 42 40 39 37 37 37 38 38 37 36 34 34 36 37 37 39 38 38 38 42 42 42 42 42 43 42 42 40 38 35 32 29 29 29 29 28 31 48 48 46
42 43 42 40 39 39 40 40 40 40 40 41 41 42 42 39 38 40 40 42 42 40 41 44 44 44 45 45 46 47 45 43 42 39 35 34 30 30 29 30 40 44 51
41 43 43 42 42 44 46 47 48 48 48 49 49 49 47 47 48 48 46 45 48 46 45 46 47 48 47 46 47 49 50 49 46 45 43 40 37 33 36 32 33 36 51
48 48 49 47 48 49 51 53 54 54 54 55 56 56 58 59 59 58 57 55 52 53 58 52 49 52 54 53 49 48 50 52 53 50 49 47 45 42 39 43 36 41 37
51 52 52 53 55 56 57 58 58 58 59 61 61 61 62 63 66 67 67 67 66 64 62 63 64 58 55 60 58 55 52 53 54 55 55 53 51 49 48 38 40 46 42
56 57 57 59 60 62 63 62 62 63 64 66 66 66 66 67 68 69 70 73 74 74 73 71 70 70 67 61 62 63 60 57 56 56 57 58 57 56 55 53 48 49 37
57 60 61 64 67 68 71 71 72 71 70 70 72 74 74 72 71 71 71 71 71 73 75 76 77 75 77 73 69 64 68 66 61 60 60 61 61 62 63 62 58 52 52
60 58 69 74 73 72 74 76 76 77 77 75 76 77 77 77 77 73 70 70 71 72 74 75 75 80 79 79 80 69 67 69 67 63 63 64 63 64 67 66 65 61 59
66 69 72 75 75 76 77 78 78 79 80 78 77 78 77 77 76 79 74 70 68 70 71 63 60 64 81 84 79 81 70 67 69 69 65 65 67 66 67 69 70 68 65
72 74 76 77 77 80 80 80 81 78 78 79 78 79 80 79 80 81 80 78 74 71 71 72 67 60 60 74 84 80 74 66 67 69 69 67 67 68 67 70 71 72 70
76 77 79 80 82 84 82 84 82 83 82 82 82 81 82 83 83 86 88 83 81 80 81 76 75 71 66 78 73 84 78 71 67 68 67 69 70 70 70 69 71 73 74
76 77 79 80 82 82 84 88 91 94 90 86 84 84 85 88 88 89 91 91 87 85 85 87 79 76 55 60 59 62 79 76 72 70 69 70 71 72 73 73 72 72 75
79 82 82 83 84 85 87 91 92 89 86 84 83 86 87 87 85 79 75 74 69 71 72 75 77 79 77 72 64 64 81 76 70 77 72 69 71 74 75 75 74 74 74
79 82 86 87 91 87 87 87 85 82 79 75 72 69 64 60 57 55 54 48 45 42 40 43 46 54 71 73 72 81 78 79 82 79 75 72 71 73 76 79 77 75 76
81 84 86 86 87 85 84 80 73 66 60 55 52 50 48 49 47 46 44 46 49 47 42 41 42 42 53 58 72 77 70 85 90 91 83 81 79 72 75 78 81 79 76
81 82 83 83 81 77 71 65 60 54 49 47 47 50 51 51 51 50 49 47 45 48 49 45 42 45 46 65 70 68 62 67 71 77 80 71 75 74 73 75 79 81 82
79 80 79 77 71 63 57 52 48 47 48 48 49 50 49 50 50 50 49 50 49 47 46 43 50 53 44 52 62 63 72 63 68 71 71 67 66 66 70 74 78 81 81
80 79 75 67 60 54 49 49 48 50 51 52 53 54 53 53 53 54 54 51 49 47 45 43 42 45 49 54 57 59 67 67 61 66 69 69 65 66 68 71 72 76 78
77 73 66 60 53 48 49 49 51 54 55 55 54 54 54 55 55 55 55 54 51 48 44 42 40 43 45 48 52 55 55 57 59 63 66 69 68 67 70 70 73 72 72
73 68 60 53 49 49 51 52 55 57 56 53 50 50 50 50 51 52 54 53 52 50 46 41 39 38 40 42 45 48 50 52 52 56 64 70 68 68 70 69 67 68 73
70 56 48 47 47 50 52 55 56 55 51 48 46 44 44 44 46 47 48 49 49 49 46 42 40 37 37 39 40 42 43 46 48 50 52 54 57 59 62 63 66 72 78
51 43 44 46 48 51 55 57 55 51 50 48 45 43 41 40 40 42 43 42 42 45 45 43 40 38 36 36 37 38 39 41 44 47 50 49 52 54 56 57 58 60 63
41 43 44 47 49 53 58 58 53 52 50 47 45 42 40 40 39 39 37 34 36 39 40 41 38 37 37 37 37 38 39 41 42 45 48 49 52 52 55 55 57 58 59
42 43 47 48 51 54 54 52 50 49 47 44 41 39 40 39 37 33 30 28 29 32 34 34 35 34 34 34 34 34 34 37 38 41 44 47 47 49 52 54 57 58 60
42 43 44 48 52 53 51 50 48 46 43 38 35 35 35 31 24 25 24 23 22 25 27 27 27 26 26 25 25 25 27 30 33 34 38 40 39 42 44 47 50 55 58

GFSMA_500_spd_015.txt.gz
Wind_Speed
35 36 37 37 38 37 36 35 34 32 31 31 30 29 29 31 31 32 31 30 30 31 33 34 36 36 36 37 38 38 38 36 33 29 27 22 23 24 24 18 25 31 42
39 40 40 38 37 35 35 33 32 33 34 34 33 33 32 32 33 35 35 35 35 36 34 36 37 37 37 38 40 41 41 42 39 37 34 28 28 25 28 22 23 29 41
42 44 43 42 40 39 38 37 38 40 41 40 39 39 40 40 38 39 41 43 42 42 42 41 42 43 41 40 40 41 43 44 45 42 39 36 33 31 28 26 26 27 31
46 48 47 46 46 44 43 43 45 47 48 48 47 47 47 47 47 48 49 48 49 49 51 48 46 48 48 47 45 44 43 44 47 48 45 42 40 38 34 31 28 27 30
51 49 49 50 52 52 51 50 51 53 54 54 54 53 52 52 52 53 55 55 57 58 56 55 56 54 51 51 52 51 49 48 49 49 50 47 46 43 41 37 33 33 34
52 55 56 56 57 58 59 60 60 61 61 61 61 60 60 60 60 60 61 63 65 65 66 65 64 61 61 60 57 57 56 54 55 54 53 52 52 50 47 44 41 38 41
58 58 59 59 60 60 62 65 67 69 70 71 72 72 70 70 70 70 69 69 69 71 72 72 71 71 70 66 66 61 59 60 57 59 60 58 55 55 54 52 50 47 42
61 63 65 65 66 67 69 72 74 76 76 78 79 79 78 75 74 72 74 74 75 76 77 78 79 78 76 75 73 72 70 63 64 62 63 65 63 58 57 58 57 55 52
64 65 67 71 74 76 77 78 79 79 79 79 80 80 82 82 82 77 74 75 74 75 76 78 81 82 83 82 81 79 77 72 67 66 65 67 68 66 62 61 62 62 60
67 71 73 76 78 80 82 82 82 82 82 81 80 82 82 82 86 84 79 75 75 76 76 76 77 78 81 82 82 80 80 71 72 70 67 67 70 70 69 67 65 67 66
74 77 78 80 82 83 82 82 82 83 84 83 82 82 83 85 87 88 81 78 79 79 79 79 77 78 78 73 74 72 63 70 73 67 65 67 69 71 70 72 71 69 71
77 80 83 82 81 82 83 84 84 84 84 85 88 90 92 89 89 92 92 88 87 85 87 87 86 84 81 81 77 72 58 73 72 70 65 59 63 68 71 72 74 74 73
82 84 84 83 83 84 84 84 85 87 87 88 90 90 91 90 90 91 92 90 90 89 89 89 90 89 88 86 82 74 69 79 76 68 72 69 63 63 68 73 75 76 74
82 81 81 82 82 82 84 85 85 86 87 86 86 84 82 78 74 71 71 71 71 74 73 74 79 82 85 90 89 82 81 80 72 74 82 69 76 71 69 70 76 78 76
79 80 80 80 80 81 81 82 81 79 75 70 66 62 59 55 53 52 51 50 52 50 47 45 48 51 54 60 67 72 75 66 74 73 73 78 79 67 65 70 74 79 79
81 81 81 80 80 79 77 74 70 65 59 53 48 44 43 43 44 47 49 50 51 52 44 41 38 42 43 40 49 59 69 79 87 65 68 70 67 62 71 71 74 76 81
82 84 75 74 72 71 69 65 61 54 47 44 45 45 45 46 47 47 49 50 50 49 47 43 43 42 44 41 43 45 59 72 60 56 63 66 65 67 67 74 73 76 78
86 75 76 71 72 70 64 59 52 44 44 45 46 48 49 52 52 53 54 53 54 52 49 43 42 43 44 46 46 48 48 57 67 62 70 59 62 66 77 78 71 71 72
81 72 80 70 79 64 54 45 40 41 45 47 49 52 54 54 53 53 55 56 55 56 54 49 43 41 43 46 50 53 54 56 63 62 58 64 60 60 60 70 78 79 80
68 71 78 64 70 49 41 38 41 44 46 50 54 54 51 50 49 49 49 51 52 53 54 53 48 44 41 45 47 48 56 55 56 56 56 52 62 62 61 61 63 62 68
72 80 65 68 52 45 42 43 44 47 52 54 53 50 48 47 47 47 46 43 42 45 47 50 50 47 43 42 45 46 48 57 58 56 56 57 56 61 66 67 62 59 65
68 63 60 62 48 46 46 47 49 52 53 53 48 45 46 45 43 42 43 41 39 36 38 42 46 46 44 43 43 42 42 45 52 60 61 55 52 55 65 74 75 70 66
55 54 53 46 47 47 48 51 53 52 50 49 48 47 45 44 44 42 41 38 37 35 33 36 42 42 42 41 41 39 38 38 39 43 46 48 51 53 57 60 69 77 75
51 51 43 45 46 48 51 52 50 47 47 47 47 45 42 39 38 37 36 35 35 33 31 32 36 38 39 40 40 38 37 37 38 40 44 45 50 51 54 55 55 57 65
42 38 43 44 46 49 49 48 44 44 42 39 38 36 33 31 30 30 30 30 27 27 27 28 31 33 34 37 37 36 34 34 35 39 42 43 47 48 51 52 53 53 54
34 39 41 43 46 46 46 43 41 37 31 30 33 32 30 26 22 21 19 16 17 21 22 24 27 28 28 30 32 33 34 34 34 34 38 40 40 43 45 48 51 53 55

GFSMA_500_spd_018.txt.gz
Wind_Speed
36 38 39 38 38 37 35 35 33 32 31 30 31 32 32 33 34 36 36 35 34 32 32 32 31 32 34 36 37 37 37 36 35 34 32 28 24 25 24 20 33 40 41
40 41 43 43 40 38 37 35 34 34 34 34 34 36 37 37 37 39 41 41 40 40 39 37 39 37 36 36 38 40 41 40 39 37 37 36 31 30 28 27 27 23 38
44 44 44 42 41 40 41 43 43 42 41 39 41 42 43 43 43 44 45 45 45 45 45 45 43 43 44 43 42 42 42 43 43 43 42 40 40 38 35 32 31 26 24
42 40 42 44 45 46 46 47 48 48 47 46 47 49 51 51 51 50 49 50 51 50 49 49 51 49 49 49 48 48 48 47 45 43 44 44 44 43 42 39 36 32 31
44 43 44 46 46 47 49 52 54 55 56 56 57 57 57 56 57 58 58 58 58 59 58 57 55 55 54 53 56 54 53 53 53 49 46 45 45 47 47 45 41 39 34
49 49 48 49 49 50 52 55 57 60 61 62 63 63 64 66 68 70 70 70 70 69 69 68 67 66 64 62 60 60 59 56 56 56 54 51 49 47 50 50 48 43 41
51 53 55 56 57 58 61 64 66 68 70 72 73 73 74 74 75 75 75 76 76 77 78 78 76 76 75 73 70 67 66 63 60 59 60 59 56 54 51 53 52 50 47
58 60 61 65 68 71 73 74 75 76 78 79 79 79 79 78 80 81 80 80 80 80 81 83 84 83 82 81 79 77 74 71 67 65 62 63 63 61 59 56 57 57 54
63 65 69 73 76 79 81 83 84 83 82 84 85 86 85 85 85 82 80 81 81 81 83 83 84 85 86 85 84 83 80 79 76 70 71 67 68 67 66 63 60 60 61
66 71 75 78 81 83 85 85 84 83 83 83 85 87 88 89 88 85 84 83 81 80 80 80 81 83 85 86 86 84 82 80 80 79 78 74 70 71 72 70 67 64 64
71 76 80 82 84 85 83 82 82 84 86 86 87 87 87 88 89 89 83 82 82 84 85 86 85 84 84 84 86 84 83 82 78 79 79 77 72 69 71 74 72 69 68
78 82 84 86 87 86 83 82 82 83 84 86 88 89 90 91 91 94 93 88 90 88 90 93 92 92 91 90 89 87 85 81 80 75 68 71 71 70 69 74 76 75 72
86 89 90 88 86 84 84 84 86 86 88 88 89 90 90 91 91 90 92 92 94 93 93 95 98 97 97 96 93 90 89 88 84 80 75 73 69 62 65 69 74 77 75
90 90 88 86 87 86 86 88 88 87 84 85 83 82 78 74 71 70 69 70 70 73 70 69 70 76 82 86 88 91 90 89 89 84 77 72 69 63 67 66 67 77 77
90 88 88 89 89 88 86 81 75 76 77 79 74 69 64 61 60 58 55 52 54 55 53 47 48 52 55 57 60 67 76 78 85 85 82 76 70 67 56 68 66 69 78
86 88 88 86 84 81 75 66 68 78 73 63 57 56 55 51 47 47 47 48 50 52 50 43 44 45 48 49 47 48 53 60 66 71 76 79 72 72 64 70 69 68 68
92 91 87 84 79 66 69 73 78 67 59 49 46 44 44 46 47 49 50 51 52 54 55 50 47 45 47 50 48 46 44 46 48 62 72 76 82 88 81 76 71 69 74
92 88 80 71 66 59 68 75 74 60 49 47 45 45 47 49 50 52 54 55 56 57 59 57 55 52 49 49 51 51 49 47 44 45 57 59 77 66 70 74 77 81 80
88 75 69 64 55 64 71 76 55 50 50 50 51 51 53 55 56 58 58 57 55 54 56 57 56 57 56 51 49 50 50 48 47 48 52 60 68 55 55 63 73 72 70
77 70 63 51 61 67 60 46 49 51 50 52 55 58 59 59 57 56 54 53 51 48 47 49 47 51 55 55 51 50 50 48 54 49 49 59 71 56 58 63 71 77 79
71 62 50 48 53 47 44 49 50 50 53 56 57 55 53 52 52 52 51 49 46 44 43 43 41 44 51 53 54 51 48 48 49 58 54 53 67 67 61 58 63 68 77
58 49 42 49 43 44 48 48 49 52 54 53 49 49 51 47 46 46 46 46 43 42 41 41 37 39 42 48 51 50 48 46 49 50 58 61 57 66 67 65 63 65 69
41 33 36 44 42 46 46 48 52 51 50 47 47 40 36 38 39 39 37 37 37 37 38 38 36 35 38 44 47 45 46 47 45 48 46 50 61 57 60 69 65 59 60
26 30 38 39 44 45 46 50 48 48 44 42 35 37 39 39 37 36 32 30 31 31 33 33 33 34 34 37 41 41 44 43 41 41 41 41 47 52 58 60 60 63 59
31 29 35 40 42 43 48 46 45 41 38 33 35 40 40 38 34 32 30 24 24 29 31 32 31 30 31 32 36 37 39 38 36 37 37 36 39 41 44 47 52 59 58
31 33 38 41 42 43 47 43 43 36 30 30 36 38 37 35 31 26 25 21 16 18 17 19 21 24 25 28 29 31 34 33 34 33 36 34 36 38 39 42 45 48 50

GFSMA_500_spd_024.txt.gz
Wind_Speed
38 38 40 40 41 41 37 34 32 31 30 30 31 30 30 32 32 33 35 36 37 38 38 36 36 37 34 32 35 35 35 36 36 34 35 34 32 29 29 28 28 28 40
41 42 40 42 41 39 37 36 34 33 32 32 32 33 33 35 37 38 38 39 39 40 40 42 43 42 41 40 39 39 38 36 37 38 39 37 36 36 36 33 31 31 30
43 41 43 43 42 39 41 39 37 36 36 37 38 39 42 43 44 45 46 47 47 46 46 46 46 47 48 48 45 43 43 44 42 41 40 42 42 40 40 41 39 35 34
37 40 45 45 44 42 41 39 39 39 43 45 47 48 49 51 51 52 54 55 56 56 55 53 53 53 53 54 53 52 50 48 48 48 46 45 44 43 44 44 43 43 39
48 46 44 45 41 40 42 45 48 50 52 53 55 57 59 61 62 62 63 62 63 64 63 63 63 62 60 59 60 60 59 58 55 53 52 50 48 48 46 45 46 46 44
54 49 47 42 44 47 51 54 56 59 61 63 65 66 69 71 71 72 72 72 73 72 72 72 71 69 70 68 67 66 67 67 65 62 59 57 54 52 51 49 46 46 48
49 46 46 49 53 57 61 63 65 67 71 73 75 77 78 79 79 78 79 79 80 81 80 79 78 76 75 76 76 74 74 72 73 72 69 65 62 59 55 54 52 50 49
44 48 52 56 61 66 69 72 74 76 78 81 83 83 83 82 80 79 79 80 80 81 83 84 85 85 83 81 81 81 80 80 79 77 77 75 71 68 66 61 59 57 55
52 56 60 63 66 69 72 75 78 81 84 86 88 90 93 96 97 94 91 89 87 85 84 84 85 87 88 88 86 86 86 86 86 85 82 79 79 76 72 71 68 63 61
58 60 62 65 70 74 78 81 83 86 89 92 93 94 94 95 95 96 96 95 93 91 93 94 93 93 92 91 90 89 90 90 89 88 88 86 81 80 78 75 75 72 66
60 64 68 73 78 81 84 86 89 92 96 98 97 97 95 95 96 96 96 93 93 94 94 95 98 100 100 97 95 94 94 94 92 90 88 87 86 82 80 77 77 77 75
67 70 74 78 82 85 89 92 95 99 99 97 98 97 98 93 88 86 84 79 76 75 79 80 81 89 94 98 99 95 92 93 93 91 88 86 86 85 84 81 78 78 80
71 75 79 83 86 90 94 96 99 99 100 101 97 90 83 74 75 71 68 61 68 67 57 58 57 60 65 69 74 82 88 92 93 91 89 87 86 84 84 86 82 78 81
76 79 84 87 91 94 95 98 98 102 103 92 80 72 69 68 68 64 63 68 51 48 46 43 40 41 44 48 49 52 60 67 77 87 89 89 87 86 85 85 85 81 79
79 85 90 93 96 100 103 103 104 104 87 75 69 62 60 55 56 56 54 53 54 50 46 42 40 39 38 40 42 41 43 47 53 62 71 78 84 88 87 86 84 81 81
87 91 94 96 100 103 102 104 95 77 67 59 53 49 48 47 48 52 53 53 55 56 51 47 43 43 43 41 43 43 42 40 41 46 54 63 72 79 85 88 86 84 80
92 93 95 97 101 102 100 87 66 59 50 43 45 46 49 51 49 51 53 54 55 57 57 51 51 48 48 49 49 48 47 45 42 41 42 47 58 70 78 83 86 84 82
92 94 95 100 100 98 82 60 50 43 39 42 47 49 50 50 52 50 52 53 52 52 54 54 50 49 51 54 55 53 52 52 48 45 43 43 45 53 68 76 81 83 82
92 94 98 99 96 78 56 48 40 40 41 47 49 51 52 53 50 51 48 45 42 42 46 49 44 43 46 51 55 58 57 57 55 50 47 45 45 45 50 64 75 79 81
93 97 96 92 75 55 45 42 40 42 47 50 51 53 53 50 50 43 39 42 46 48 50 51 50 47 46 45 52 53 55 57 57 54 50 49 45 46 46 49 63 75 79
97 94 89 76 57 44 41 41 42 46 50 51 52 54 49 48 42 40 43 43 44 46 47 47 47 45 44 46 45 49 50 51 51 51 49 49 48 45 45 44 49 63 76
93 88 76 59 44 39 41 42 44 47 51 51 51 48 46 41 38 41 42 44 47 49 47 43 39 39 41 40 38 41 44 44 45 47 46 46 49 46 47 46 44 45 53
85 75 60 46 38 39 40 42 45 47 49 50 50 44 41 35 36 37 41 46 48 49 44 38 33 34 34 30 30 32 37 38 38 40 40 41 48 47 46 50 50 48 51
74 62 47 38 36 38 39 42 45 47 48 49 45 43 35 33 36 37 42 45 46 44 38 31 28 27 25 23 23 27 29 30 29 32 34 36 45 48 45 48 48 50 53
63 50 39 35 35 36 38 42 45 46 46 47 41 41 33 32 34 37 43 43 43 38 33 25 23 20 17 18 19 21 24 26 27 28 30 34 43 46 45 42 45 56 53
53 41 35 33 33 36 39 42 44 44 43 43 37 37 31 30 32 36 41 42 40 35 28 20 16 13 11 15 17 17 19 21 25 27 29 33 41 42 41 36 42 53 53

GFSMA_500_spd_027.txt.gz
Wind_Speed
32 37 40 40 37 37 39 39 38 38 37 35 34 32 31 31 30 28 29 30 31 33 33 33 33 33 34 34 34 35 35 35 36 35 35 36 36 34 33 30 27 31 31
36 38 42 38 35 40 43 43 41 39 37 34 33 34 35 37 37 37 38 39 40 40 39 40 40 40 39 38 38 38 40 41 39 39 40 38 40 40 40 38 35 32 31
42 40 38 33 42 50 45 44 44 38 36 36 38 40 43 44 46 48 48 48 48 48 48 48 48 47 47 47 45 44 44 45 45 45 44 44 43 43 44 43 42 40 36
44 42 50 50 50 44 43 41 40 40 42 45 48 50 52 53 54 55 57 59 59 60 60 58 57 56 56 55 54 53 51 50 51 51 51 50 48 47 47 47 46 45 41
42 51 48 45 45 41 39 41 44 47 50 54 57 58 60 62 64 66 67 68 69 70 70 69 68 67 65 64 63 62 60 59 57 57 57 56 55 53 51 49 49 51 48
43 44 44 42 40 42 45 47 51 55 58 61 64 67 70 71 72 73 75 76 77 78 79 78 78 77 76 75 73 71 71 68 66 65 63 63 62 60 58 56 54 53 51
44 43 41 42 46 50 54 57 60 63 66 68 70 71 71 73 75 76 78 81 83 84 85 87 87 86 85 85 84 82 80 78 77 74 72 70 69 68 66 63 59 58 55
40 42 46 51 55 58 59 60 62 64 66 72 75 78 81 82 83 88 91 92 91 90 90 90 93 94 94 93 92 92 90 88 84 83 81 79 77 75 73 70 67 62 60
48 50 53 56 58 58 61 64 69 72 78 83 85 89 92 94 97 101 103 102 101 98 95 92 90 90 92 94 96 97 97 96 95 90 88 87 84 84 81 77 74 71 66
52 55 56 59 61 64 68 72 76 81 85 88 91 95 100 103 109 113 114 112 106 101 100 99 100 99 99 97 97 97 97 100 101 99 94 93 92 89 88 85 81 79 75
57 60 62 64 67 71 76 81 86 89 91 93 96 100 104 109 110 109 103 95 89 86 86 85 84 85 90 96 99 100 99 98 100 102 99 96 96 95 91 90 87 83 83
61 62 65 69 73 78 82 87 92 93 95 98 102 107 109 103 94 88 83 77 69 63 64 66 66 64 68 75 82 88 95 99 101 101 102 100 97 97 96 92 90 89 86
61 65 70 74 78 83 88 92 92 95 100 105 109 107 93 81 73 65 62 59 55 47 43 44 46 48 49 48 51 57 64 73 84 97 101 102 102 99 98 95 91 89 89
66 70 74 79 84 89 93 94 97 102 106 110 100 84 68 60 53 46 45 46 46 42 39 38 44 46 47 46 44 45 46 51 58 66 82 98 100 99 97 95 93 89 88
70 76 81 86 90 93 95 98 102 107 105 90 71 56 48 42 42 45 48 51 52 47 42 41 42 47 49 49 47 45 42 41 45 52 58 67 81 93 95 93 92 90 88
76 81 86 89 92 94 97 101 104 98 83 64 50 42 43 44 46 48 50 51 53 51 47 46 45 46 48 49 50 49 46 42 41 44 49 53 62 72 82 91 92 89 88
81 86 91 92 94 96 100 99 90 76 58 46 44 41 42 46 48 50 52 51 51 52 53 44 44 44 44 46 48 52 52 48 45 43 43 46 51 60 70 78 85 89 87
86 90 91 92 95 99 96 85 72 56 45 44 43 45 46 49 51 52 49 49 49 43 44 42 42 44 45 45 43 44 51 54 53 49 46 45 45 50 59 70 79 83 85
87 90 90 95 98 96 82 69 54 43 41 42 44 45 48 51 50 48 47 43 39 42 44 44 41 45 45 46 47 47 44 47 54 57 52 49 47 46 48 58 70 80 82
88 89 95 98 94 81 68 54 43 39 40 43 45 47 50 51 49 45 43 37 39 40 45 48 46 47 48 46 44 46 47 46 46 55 57 54 50 48 47 46 56 69 78
89 94 97 93 79 67 54 43 38 38 40 43 46 48 49 49 45 45 38 37 38 43 47 49 49 48 44 40 39 40 42 44 44 45 54 57 54 50 49 47 47 54 64
93 96 91 77 66 55 43 37 37 37 39 43 44 45 46 46 42 39 35 37 40 45 47 50 48 43 37 35 33 34 37 41 40 42 49 52 52 51 50 51 47 48 52
94 89 77 65 55 45 37 35 34 36 40 42 43 44 44 44 41 34 33 36 42 46 48 48 44 36 29 27 29 31 32 31 30 34 40 41 45 47 49 52 50 47 48
86 76 65 56 47 38 34 34 35 37 40 41 42 42 43 39 38 31 31 35 41 43 46 42 36 28 24 23 24 21 20 20 22 27 32 33 39 41 45 50 52 47 46
75 66 57 49 41 35 33 34 35 37 38 40 41 43 40 35 35 29 30 33 38 41 42 37 29 23 20 18 15 12 13 14 17 21 24 27 32 37 41 46 51 48 48
69 60 50 44 37 33 33 34 33 35 36 38 40 39 34 32 31 27 28 31 35 38 37 34 28 21 17 13 7 7 8 10 13 17 20 23 29 32 36 43 50 49 49

GFSMA_500_spd_030.txt.gz
Wind_Speed
29 26 33 36 38 39 40 36 37 42 44 40 38 37 35 34 32 33 35 33 35 35 36 36 35 35 35 36 38 39 39 38 37 36 37 36 36 37 37 36 34 34 32
23 35 40 44 45 44 43 44 46 45 42 42 41 36 35 36 37 38 41 43 42 45 45 45 44 44 43 43 43 43 44 44 43 42 41 41 40 39 40 40 40 37 35
37 38 41 45 46 48 47 44 41 39 37 37 37 37 39 42 44 46 47 48 51 51 54 54 54 55 54 52 50 50 50 50 50 50 48 46 46 44 43 44 45 44 40
42 42 40 42 45 39 39 37 34 35 37 38 40 43 46 50 52 54 56 57 58 60 61 61 62 62 62 62 61 60 58 56 56 56 56 54 51 50 49 47 47 47 47
39 39 40 39 40 39 38 38 40 41 43 45 48 51 53 55 58 61 63 66 68 70 71 72 72 73 71 70 70 69 67 67 65 62 62 61 61 57 55 54 53 49 49
37 39 40 41 42 42 42 44 47 50 53 54 54 55 57 59 62 66 69 71 75 77 78 80 81 81 81 81 80 78 77 76 74 72 70 67 67 66 63 60 58 57 53
40 39 39 42 45 47 50 53 56 57 57 58 59 62 65 68 70 73 75 78 80 82 85 87 89 91 92 90 90 88 88 85 83 81 79 77 74 73 71 69 65 63 61
50 50 50 51 52 55 56 57 57 59 62 65 67 70 73 77 81 84 86 88 91 94 95 97 99 100 101 102 101 99 97 95 94 91 89 87 84 81 77 77 75 71 67
51 53 54 56 57 57 59 60 62 66 69 73 76 79 83 86 89 91 94 96 98 101 104 107 108 110 112 111 109 108 106 104 103 101 99 96 94 91 87 83 81 79 75
55 56 56 57 59 61 62 65 68 73 77 81 84 87 89 92 94 97 100 105 108 105 102 100 99 96 97 97 96 99 103 103 107 108 107 105 103 100 96 92 88 86 84
56 57 60 61 62 64 67 71 76 80 83 86 89 92 94 96 101 106 107 106 97 86 81 75 71 71 72 77 81 85 88 92 97 103 109 109 108 106 104 99 95 92 90
60 61 62 62 63 67 72 77 81 86 90 92 92 96 100 105 107 100 89 77 66 57 57 54 53 54 54 56 60 66 71 75 81 90 101 108 108 108 107 103 100 97 94
62 62 62 64 67 73 79 84 89 92 92 94 99 103 106 102 88 74 61 55 51 43 43 45 47 49 50 49 46 49 53 58 63 69 78 91 105 110 109 105 101 100 98
62 63 65 68 74 79 84 88 92 92 95 99 102 102 91 78 64 52 50 50 47 44 43 46 48 49 48 50 49 48 48 49 50 52 55 64 78 96 106 109 105 102 99
62 63 67 73 78 83 87 89 90 95 99 101 96 84 71 58 49 48 48 50 51 49 44 43 45 46 46 48 50 51 50 49 50 50 51 49 56 68 85 102 106 105 101
63 67 72 77 82 85 87 90 95 98 99 88 77 64 51 46 47 48 49 50 52 52 47 42 43 45 45 45 47 49 52 53 52 51 51 49 47 54 65 78 93 101 103
67 73 77 82 85 87 90 95 98 97 83 72 60 49 43 44 46 47 48 51 50 49 48 39 40 40 41 41 42 44 45 46 52 54 53 52 48 50 54 63 74 85 95
72 77 81 83 86 89 94 96 93 81 68 58 47 41 42 44 45 48 49 49 48 45 46 39 37 38 41 43 45 45 46 46 47 48 55 53 51 50 52 55 62 72 82
76 81 83 86 89 94 95 89 78 66 56 45 40 40 42 44 46 47 48 47 44 42 39 40 37 43 47 49 49 49 49 48 47 49 50 52 57 52 52 52 57 62 73
80 83 85 87 92 94 86 76 65 55 45 39 39 40 42 45 46 46 46 43 42 37 38 39 42 48 51 52 52 50 49 48 47 47 49 48 53 55 54 52 52 56 63
83 85 89 92 92 83 76 66 55 45 38 37 38 41 43 44 45 46 45 39 38 35 38 41 47 50 52 50 49 45 41 40 41 43 45 48 47 55 58 54 54 52 55
84 88 90 93 82 76 67 56 47 40 37 38 40 42 43 43 44 44 40 38 34 35 38 43 47 49 47 44 39 35 32 33 33 36 41 45 48 51 59 58 55 50 49
85 90 93 81 76 70 59 49 41 37 37 38 40 40 41 41 42 40 35 35 32 35 38 43 45 44 41 36 31 29 29 29 29 31 38 40 44 47 53 58 54 52 49
88 93 84 74 71 61 51 42 37 36 36 36 38 39 39 39 38 35 33 31 30 32 37 40 41 39 34 28 26 24 22 22 22 25 31 36 42 44 49 55 54 52 50
92 88 75 71 64 53 44 38 35 34 33 35 36 37 36 37 35 33 32 28 27 31 34 37 37 35 29 23 21 16 12 10 12 16 20 25 31 36 43 47 51 51 51
89 77 70 67 55 46 39 35 33 31 32 32 33 34 34 34 31 30 30 26 25 27 31 34 34 32 27 21 16 10 7 5 7 11 14 18 24 29 35 40 45 49 51

GFSMA_500_spd_033.txt.gz
Wind_Speed
37 37 31 29 28 32 36 42 44 45 46 46 44 41 39 39 39 38 37 35 33 37 37 37 38 38 38 39 40 41 42 42 41 41 39 39 39 37 37 37 36 34 35
26 37 42 45 41 38 40 43 43 47 45 42 38 37 36 36 36 37 38 43 40 41 43 43 43 45 46 46 46 46 47 47 47 47 46 45 43 43 40 39 41 40 38
42 45 42 41 42 42 43 44 42 40 41 37 35 34 37 38 40 43 42 46 50 50 50 50 50 51 51 52 54 54 54 55 54 54 53 52 51 48 48 45 43 43 43
38 42 42 38 40 39 38 39 39 39 38 38 40 42 43 45 48 50 52 53 54 57 62 62 61 61 63 62 62 62 62 62 62 62 60 58 58 56 54 52 49 45 45
42 37 36 36 37 36 37 38 41 43 45 47 48 49 51 54 55 56 57 60 59 61 63 65 69 69 72 72 72 73 74 72 71 69 68 67 64 63 61 59 57 53 50
43 44 41 40 43 45 47 48 49 50 51 52 53 53 53 56 58 59 62 65 66 67 69 72 74 78 80 81 81 83 82 83 83 81 78 75 73 70 69 67 64 62 58
47 48 48 48 48 51 50 50 52 53 53 54 55 56 56 60 64 68 70 72 73 76 79 82 84 85 88 89 92 93 93 92 91 91 90 88 84 80 76 75 72 68 67
47 48 48 51 50 49 53 55 55 55 56 58 60 63 65 67 70 74 78 81 84 85 86 88 91 95 97 99 101 103 103 100 99 100 100 98 95 91 87 82 80 77 73
49 51 52 52 56 58 58 58 59 59 60 62 67 71 74 77 80 82 83 85 87 90 95 99 102 104 107 108 111 111 111 111 108 109 107 106 104 101 96 93 88 84 82
52 54 57 59 61 60 60 61 62 64 66 71 75 78 81 85 88 87 89 92 96 101 105 108 107 104 99 95 97 97 100 102 105 104 109 112 110 109 106 103 99 94 89
55 56 59 62 64 64 63 63 64 68 73 77 81 85 88 90 90 93 96 101 104 103 97 90 80 73 67 66 67 67 75 75 81 90 97 104 108 110 112 110 107 103 98
59 61 62 64 64 64 64 66 70 75 79 84 88 91 90 92 97 101 103 98 90 71 62 57 54 52 52 53 53 54 56 58 59 64 71 80 94 102 107 111 111 109 105
59 61 62 65 65 65 67 71 75 80 84 88 91 92 94 98 101 94 84 75 65 53 48 48 49 49 51 52 53 53 53 54 54 54 55 59 66 80 92 102 108 111 108
60 62 64 66 66 67 72 76 81 84 88 91 92 94 97 95 87 77 66 59 54 49 46 48 49 51 54 55 54 54 51 51 53 51 52 52 52 59 70 83 96 107 110
62 64 67 67 68 72 76 81 85 88 93 94 94 97 92 81 72 63 55 51 52 50 46 47 50 51 51 49 49 49 49 49 50 52 51 53 54 51 54 62 75 90 104
63 66 68 69 72 76 80 84 88 90 93 93 93 88 78 68 59 52 47 48 51 53 51 48 47 48 47 45 45 45 45 45 47 49 53 54 54 53 52 53 57 66 84
65 67 68 71 76 80 83 87 89 91 92 94 86 75 65 56 48 45 47 49 51 53 51 45 43 44 44 43 43 41 42 43 44 46 47 52 55 55 53 53 53 54 63
65 66 69 74 79 83 86 88 89 92 94 83 72 62 53 46 43 45 47 49 50 50 48 47 40 41 39 40 41 44 47 50 50 48 49 50 50 51 54 54 52 51 54
67 68 72 77 82 82 82 86 91 96 87 71 61 51 45 42 42 45 48 49 49 47 47 46 39 37 38 40 45 50 52 53 53 51 50 52 50 49 51 54 54 52 50
70 72 76 80 81 83 85 89 90 87 76 62 53 45 42 42 44 47 47 47 46 46 42 41 37 36 40 44 50 52 50 48 48 47 48 48 50 50 48 48 55 54 51
73 76 80 79 82 83 86 86 82 71 67 54 45 41 41 43 45 44 45 46 46 42 38 37 35 38 42 47 49 48 46 43 38 36 37 39 43 47 48 47 52 56 51
77 79 81 81 81 83 81 80 76 64 56 46 41 40 42 43 42 42 41 43 42 37 37 34 35 40 43 46 45 42 40 38 32 29 30 31 36 40 45 48 49 54 52
85 83 79 83 84 86 78 75 69 58 47 41 38 39 40 41 40 41 40 40 38 36 35 32 36 39 40 41 40 37 35 34 29 26 26 26 31 37 42 46 47 48 53
81 76 84 84 85 82 71 71 61 47 40 38 37 37 38 39 39 38 38 37 36 35 32 32 35 38 39 37 36 32 31 27 22 21 24 27 31 33 38 40 42 43 53
72 84 84 84 81 76 67 63 50 40 36 35 35 36 36 38 37 36 36 34 33 33 29 29 32 34 35 34 31 27 24 19 16 15 16 18 22 30 36 36 39 41 51
79 80 81 81 77 74 64 52 42 36 34 34 35 35 34 34 35 35 34 32 29 30 26 26 30 32 32 30 28 23 19 15 14 13 14 13 15 19 22 29 35 39 47

GFSMA_500_spd_036.txt.gz
Wind_Speed
28 27 29 34 36 42 45 45 44 44 41 40 44 45 40 38 39 40 38 37 38 37 37 38 36 38 38 38 39 40 41 41 42 41 42 41 39 41 37 34 34 33 33
18 32 27 37 37 42 38 39 39 39 38 38 37 38 37 35 36 36 39 39 41 42 42 42 43 45 46 45 45 45 46 47 47 47 47 47 46 44 44 41 39 37 35
27 23 31 34 37 37 32 33 37 36 33 34 36 37 37 38 40 43 45 47 47 46 49 49 49 51 53 52 52 51 52 53 54 55 55 54 53 51 49 48 45 43 40
34 34 36 34 36 35 35 33 36 37 39 39 41 41 41 44 47 50 51 54 55 56 56 57 58 57 59 60 61 61 62 65 63 61 62 62 60 60 58 55 53 50 47
34 34 36 37 39 40 41 42 44 45 46 45 45 45 46 47 49 51 53 54 56 58 60 62 63 64 64 65 67 69 70 73 72 71 72 70 69 67 66 64 61 58 54
34 36 38 41 42 44 46 48 49 49 51 52 52 51 50 49 49 52 55 57 60 63 66 68 69 71 73 75 75 76 75 77 78 79 79 78 79 79 77 74 69 67 63
38 42 44 46 45 47 50 49 50 51 49 49 49 48 50 52 53 59 63 66 70 72 74 77 78 80 82 81 82 85 86 85 85 86 87 88 87 85 85 85 83 76 72
44 47 49 51 52 52 52 55 56 56 54 53 52 52 53 55 61 65 70 73 77 80 83 85 87 88 90 91 91 93 94 94 94 94 94 95 96 95 94 92 91 89 83
47 49 51 51 54 56 58 59 59 59 58 56 58 61 65 66 70 73 76 79 81 83 86 90 96 100 102 100 100 102 102 102 103 103 103 103 104 104 103 102 99 97 94
49 52 55 57 58 58 59 59 60 60 60 62 65 69 73 77 80 80 83 85 87 93 98 101 101 99 96 94 91 90 94 96 99 101 103 106 109 111 112 110 107 105 103
53 54 55 57 58 59 59 59 62 62 63 67 71 75 78 81 84 87 89 95 100 100 97 94 87 78 71 66 64 64 67 70 68 70 73 79 88 97 104 109 110 109 107
54 57 58 60 62 62 62 63 64 65 68 73 78 81 84 86 89 92 99 101 101 85 76 70 61 55 52 52 52 52 53 52 53 53 55 55 61 69 83 96 102 104 106
56 57 59 61 63 62 63 64 65 68 72 76 80 84 87 89 94 99 100 91 82 70 62 51 47 46 48 49 49 50 50 49 49 50 53 52 51 54 59 72 84 95 103
57 59 60 62 62 62 64 66 67 71 76 80 82 85 90 92 96 93 84 78 70 61 49 43 44 45 48 49 49 50 49 49 50 50 50 51 52 53 53 56 64 72 84
59 61 62 63 63 65 67 69 71 76 80 83 85 86 85 91 87 80 72 65 60 53 44 42 43 45 48 49 48 49 47 46 47 47 48 50 50 51 53 54 55 58 63
60 62 63 63 64 66 69 71 75 78 82 83 83 84 87 85 78 71 63 54 49 49 48 46 46 47 48 47 46 45 45 44 44 45 45 47 50 52 52 53 54 56 56
65 64 63 64 65 69 72 75 79 83 85 84 85 88 89 78 69 59 52 46 45 48 50 48 46 46 47 47 44 43 43 42 40 40 41 44 46 47 49 53 55 56 57
63 63 64 65 68 72 78 81 84 83 82 85 87 94 83 69 57 50 46 44 46 49 51 48 44 44 45 43 42 41 40 40 41 44 46 48 49 50 50 49 51 56 56
62 63 66 69 73 79 87 84 81 77 81 84 87 87 71 57 48 44 43 45 47 48 47 46 44 42 41 41 39 38 39 42 45 47 46 47 47 49 51 51 49 49 55
63 67 70 72 77 86 89 83 83 85 86 87 85 74 60 49 43 41 43 44 44 45 44 44 41 39 38 37 38 38 41 46 46 46 44 44 46 46 48 50 50 49 50
67 70 73 77 81 84 81 82 85 85 88 87 77 59 50 44 40 40 41 42 44 44 44 42 39 38 35 34 37 41 45 45 43 42 41 40 40 39 41 45 49 50 49
69 71 76 80 80 80 79 82 83 84 81 70 63 50 43 41 39 39 39 40 41 41 40 39 36 35 33 35 39 42 43 40 37 38 39 33 34 30 32 37 41 47 48
73 76 85 81 77 81 74 76 78 75 73 62 53 43 39 38 38 39 39 41 40 41 40 37 34 33 31 36 38 40 38 37 34 32 32 26 29 26 28 32 38 43 41
80 85 85 76 75 74 74 73 70 72 60 54 45 39 36 37 37 37 38 37 38 38 38 36 35 31 31 35 36 37 34 32 29 27 25 19 22 21 25 26 30 30 34
87 79 70 71 72 75 74 69 63 60 51 48 40 36 35 36 35 37 37 37 37 37 36 34 32 28 29 33 34 32 31 29 24 23 23 17 17 15 18 25 28 29 32
75 71 73 78 77 73 64 57 56 53 48 41 37 35 32 33 33 34 34 35 34 34 32 29 29 25 27 30 31 29 28 26 21 18 20 16 16 14 13 15 24 27 29

GFSMA_500_spd_039.txt.gz
Wind_Speed
15 22 23 20 20 22 25 25 26 29 30 32 33 33 35 35 38 39 39 40 38 38 39 38 38 38 38 39 42 42 42 42 42 43 42 41 39 37 35 35 34 34 31
26 26 28 26 23 23 26 28 30 31 31 32 34 36 36 38 40 40 40 42 41 41 42 43 43 42 45 46 47 47 48 49 50 50 50 48 47 45 42 40 39 38 36
21 25 25 24 25 27 28 30 32 32 33 35 34 35 36 37 40 41 44 47 48 48 49 50 52 51 52 53 54 54 54 56 56 56 57 56 55 53 51 48 46 43 42
27 25 25 27 29 30 32 35 37 38 40 42 43 44 45 44 43 43 43 45 47 49 50 52 53 54 55 57 59 60 61 63 64 64 63 64 63 61 61 58 53 51 49
23 25 28 31 33 35 37 39 41 42 44 44 44 46 45 45 43 44 44 45 48 50 52 54 55 57 58 61 63 64 67 69 71 71 70 71 69 69 69 69 65 60 57
26 28 31 34 37 40 42 45 46 47 47 48 48 47 45 44 42 44 46 49 52 56 60 63 65 66 68 69 71 72 74 76 78 78 78 79 79 78 75 74 75 71 67
30 33 36 38 42 44 46 48 49 50 50 50 49 49 46 44 47 50 54 58 63 67 70 74 76 77 78 79 80 80 82 85 85 86 87 85 86 87 86 83 80 79 74
36 40 42 43 45 47 49 50 51 54 54 53 53 52 49 48 51 54 60 65 69 73 76 77 79 81 82 81 87 90 92 95 94 94 94 94 94 93 93 93 89 87 84
42 45 46 47 48 49 49 51 54 56 56 55 55 54 55 57 59 61 66 68 72 75 78 81 84 86 91 98 100 96 89 89 95 99 102 103 104 103 102 100 99 97 93
48 50 50 49 50 51 52 54 56 57 56 55 56 58 61 64 68 71 74 76 79 85 89 93 97 98 95 88 88 83 80 81 83 84 86 90 93 101 106 108 108 106 101
51 51 53 55 55 53 54 56 58 58 57 56 59 62 66 70 74 76 75 79 87 92 95 100 97 86 78 72 68 67 66 66 67 68 69 72 76 83 93 101 109 113 111
56 57 57 58 58 59 61 61 62 61 59 61 63 67 71 76 78 81 83 90 93 94 95 89 80 70 64 59 56 54 52 51 52 54 55 56 59 63 69 80 90 100 111
57 58 58 58 55 60 63 63 63 63 63 65 67 72 79 82 84 88 92 91 96 97 94 76 66 56 50 47 47 46 47 47 47 47 48 49 51 54 58 62 66 75 87
57 57 57 56 54 62 65 66 64 64 67 69 73 80 83 87 88 91 92 100 100 96 74 61 51 45 42 43 45 46 46 47 46 45 46 47 48 49 50 53 57 60 66
56 56 58 54 55 61 64 65 64 68 70 72 77 84 85 87 89 90 93 94 84 74 59 48 41 41 42 44 44 44 45 44 44 44 43 45 46 47 48 51 53 55 58
52 58 61 56 60 67 64 63 66 68 71 75 81 82 84 88 86 86 88 79 67 62 52 42 40 41 43 42 43 43 44 43 43 43 42 42 43 46 48 51 51 52 56
50 65 61 58 62 65 66 69 71 74 74 78 80 80 82 81 84 82 73 64 56 51 46 42 42 42 42 43 43 43 41 41 40 41 41 41 42 44 45 47 50 53 55
51 61 60 60 62 68 73 75 77 78 79 79 78 79 75 77 77 70 61 50 48 45 45 42 41 41 41 42 42 40 39 39 38 38 40 40 42 45 47 48 49 51 52
55 59 58 65 67 70 75 78 85 82 84 76 74 77 79 76 68 58 49 44 43 42 43 43 40 40 40 40 39 39 38 35 36 38 39 42 44 45 46 46 47 49 51
58 58 59 66 69 71 76 82 86 88 80 77 80 77 73 68 58 48 43 41 39 40 41 41 40 40 40 39 39 37 34 34 34 37 40 40 41 42 42 44 46 48 51
61 63 67 69 71 72 75 79 83 74 75 80 80 75 67 58 47 40 39 38 38 37 38 39 39 40 39 36 35 33 32 32 37 41 38 38 38 39 43 46 48 50 50
68 72 82 76 75 76 74 69 71 74 77 76 66 63 57 49 41 38 36 37 35 35 35 36 36 37 35 34 32 30 31 35 36 38 34 33 36 36 39 41 38 39 43
69 72 82 86 84 78 69 66 70 71 68 62 58 55 50 42 38 37 36 35 35 35 37 36 35 36 32 32 28 28 32 34 36 32 30 27 31 28 30 28 29 32 39
80 77 79 84 79 70 69 71 71 65 61 56 54 49 43 37 35 34 33 31 33 35 36 36 35 35 31 30 27 29 31 32 32 31 27 19 26 24 23 23 25 27 29
74 81 82 70 69 72 76 72 63 58 55 52 49 45 38 33 34 32 29 30 32 35 36 35 34 32 29 28 25 28 31 32 28 29 26 18 22 20 19 19 20 25 27
82 77 70 70 77 74 70 61 55 54 52 49 45 40 34 31 31 29 28 29 30 32 33 32 32 31 28 26 25 27 29 31 27 25 23 19 19 16 16 15 16 19 25

GFSMA_500_spd_042.txt.gz
Wind_Speed
16 18 22 23 24 21 17 20 22 25 27 30 33 34 35 36 36 35 35 37 40 42 43 43 42 42 41 42 41 41 42 42 43 43 43 42 42 39 38 38 36 34 33
20 20 17 20 19 17 20 24 28 29 31 33 35 36 38 39 40 40 40 39 39 40 42 44 46 47 47 47 48 48 48 50 51 51 50 50 49 48 46 44 44 41 39
19 19 17 17 19 23 27 30 30 31 32 34 36 39 40 41 43 44 43 43 42 41 41 43 46 49 50 50 52 55 56 57 58 59 60 58 57 55 54 54 51 49 47
16 15 17 20 22 26 28 29 31 33 35 36 39 41 44 45 46 45 45 43 41 41 41 42 43 44 45 47 50 54 57 61 64 66 66 65 65 63 61 62 60 57 56
17 18 21 23 26 29 31 34 36 37 39 39 41 44 46 47 48 47 46 43 42 43 44 46 48 51 53 55 57 59 62 63 66 70 71 73 73 70 69 69 68 66 63
20 23 26 29 33 36 38 40 40 40 41 42 44 47 48 48 48 48 46 45 47 50 53 55 57 60 60 62 64 66 69 70 72 76 79 81 81 80 79 77 76 75 72
27 30 34 37 39 41 43 44 44 44 44 45 46 48 49 48 47 47 47 50 52 56 61 65 67 68 69 70 72 73 74 75 76 78 81 85 91 92 91 88 85 83 81
34 36 39 41 43 46 47 47 49 50 50 49 50 51 51 49 47 48 50 53 57 62 65 67 70 70 72 77 82 84 85 87 89 90 92 95 92 99 103 100 97 92 89
40 42 44 46 47 49 50 51 52 52 52 53 54 54 54 51 50 52 53 56 60 65 68 70 74 77 82 85 86 90 95 100 100 96 96 89 97 98 104 110 107 103 99
44 45 48 50 51 51 52 52 52 52 53 56 57 58 56 54 58 59 63 66 70 72 75 75 79 85 87 89 94 101 96 92 86 86 86 88 90 93 95 100 109 111 107
47 49 50 51 52 53 54 54 55 53 56 60 63 61 58 60 64 68 67 69 72 76 78 80 87 85 90 98 98 90 84 78 75 74 75 78 79 79 81 85 93 101 105
49 50 52 53 54 54 53 54 56 56 56 59 63 62 64 67 70 72 73 74 75 78 81 84 84 91 93 93 84 76 68 62 60 59 61 63 64 63 67 72 78 84 90
52 53 53 55 58 59 59 61 62 62 63 65 67 66 69 72 76 79 81 80 80 81 84 89 90 87 84 79 69 58 52 50 51 52 53 53 53 52 54 57 61 66 72
51 53 49 58 61 61 57 66 67 65 65 67 66 69 74 77 80 84 86 86 83 80 85 86 85 78 72 61 55 49 48 48 49 49 50 49 49 49 49 50 52 55 59
55 50 60 60 60 59 60 68 69 68 67 69 74 75 76 77 78 80 81 80 82 86 82 81 73 67 55 49 47 46 47 47 46 46 46 46 47 48 48 49 50 51 52
55 59 59 61 62 59 60 67 70 68 70 74 78 79 81 77 78 75 74 79 80 76 79 73 62 53 45 43 43 42 43 43 43 44 43 42 43 44 45 46 47 48 50
58 59 59 60 61 62 64 67 67 71 74 77 81 82 82 80 78 73 72 71 72 72 69 60 51 45 42 40 40 41 40 41 41 41 41 41 42 42 43 45 47 49 50
59 59 60 62 63 64 65 69 72 74 82 85 87 86 81 74 75 72 70 68 68 67 63 52 42 42 40 40 39 39 41 42 41 42 42 42 42 42 43 45 47 48 50
59 61 62 63 63 64 68 70 73 77 82 86 83 79 73 73 72 71 65 66 64 60 54 46 41 39 38 39 37 39 41 41 40 41 40 40 42 41 41 44 47 47 48
61 61 61 63 67 71 75 78 86 91 88 81 77 70 70 72 68 63 62 63 57 52 46 43 39 38 38 39 39 39 38 39 38 37 35 36 39 40 43 44 44 45 46
61 63 65 67 70 74 78 86 87 85 81 67 68 70 71 68 62 61 60 56 49 45 41 38 36 36 37 37 38 38 36 33 32 32 31 38 39 39 37 38 40 41 42
64 67 70 73 77 83 86 84 84 68 66 71 76 74 64 58 59 57 53 47 43 40 37 35 33 33 33 34 34 33 33 29 29 34 33 39 34 34 36 36 37 39 43
71 75 76 78 81 83 84 81 74 72 77 77 69 57 57 57 55 51 46 41 39 37 35 33 32 34 32 33 32 29 29 26 29 32 31 28 32 30 31 32 35 38 41
80 79 83 82 80 79 80 78 78 77 69 61 57 56 55 53 49 45 41 37 35 34 33 32 34 34 32 31 30 28 26 26 31 33 32 24 29 29 29 29 31 33 35
74 77 79 77 76 75 79 74 65 62 60 57 55 54 51 48 43 40 36 33 31 31 31 31 33 33 31 30 28 25 25 25 30 32 33 28 26 24 27 27 28 30 30
76 80 75 74 77 71 65 63 64 62 56 54 51 49 48 44 39 35 32 29 28 29 29 31 33 32 31 30 27 24 22 24 28 32 32 27 28 24 22 27 26 26 25

GFSMA_500_spd_045.txt.gz
Wind_Speed
14 16 18 19 23 24 24 25 23 26 29 31 34 35 37 38 39 39 40 40 40 40 40 41 41 40 45 46 44 46 47 46 45 45 45 43 41 39 39 40 39 38 36
18 17 19 20 17 16 20 24 27 32 35 36 36 37 38 40 40 39 40 40 41 41 43 44 41 39 40 43 45 46 48 48 51 52 53 52 50 49 47 45 46 45 44
18 17 18 15 18 21 25 29 31 35 36 37 39 41 41 42 41 41 41 42 43 44 43 40 37 37 37 37 38 40 43 47 49 52 53 56 58 58 56 54 54 54 52
14 14 17 19 22 26 30 33 36 39 40 42 43 44 44 45 43 44 44 44 45 45 43 41 39 39 39 41 43 44 46 48 51 53 55 57 57 59 62 62 62 61 61
15 17 21 24 27 31 34 37 40 41 42 43 44 45 46 45 46 46 47 48 48 45 43 43 44 45 46 48 51 54 56 59 59 61 62 64 67 67 66 68 69 70 68
20 23 27 30 33 35 37 40 41 42 45 45 46 46 47 46 46 47 49 50 49 47 48 50 50 52 55 58 62 64 66 67 67 69 71 72 73 75 74 75 77 75 78
26 28 30 34 36 38 42 44 44 45 48 47 47 47 48 48 48 48 50 52 51 50 53 56 58 61 62 64 65 65 67 69 70 71 75 77 78 80 85 85 83 85 85
30 32 35 38 40 44 46 46 48 48 49 50 50 50 50 51 53 55 55 52 51 54 58 61 63 64 65 67 68 70 72 74 77 81 84 87 89 89 88 92 95 93 91
34 37 41 43 46 48 49 49 49 50 50 49 51 51 53 53 53 54 57 56 56 59 61 62 65 68 70 72 74 79 81 81 83 86 91 95 96 99 103 101 99 101 102
40 43 46 47 49 50 51 51 50 53 56 56 56 56 57 58 60 61 61 61 62 66 69 72 74 75 76 78 79 77 78 82 86 92 99 100 98 96 98 98 95 94 100
45 49 49 49 50 51 51 52 53 59 60 58 59 63 66 63 65 65 62 65 69 74 76 78 78 78 77 78 76 82 82 87 91 93 93 92 88 81 79 78 78 82 90
49 51 50 47 48 52 52 54 59 61 60 60 62 63 70 69 72 71 70 72 76 78 81 82 81 81 78 76 80 81 85 88 91 89 82 72 65 61 61 63 66 68 73
49 50 50 52 52 56 50 62 63 66 62 65 67 68 72 73 73 74 76 78 81 82 82 82 82 81 78 80 80 80 82 86 82 72 61 56 54 53 53 54 54 57 59
51 53 51 52 46 65 61 65 66 61 65 68 68 70 72 72 76 78 81 83 85 83 82 80 79 78 79 76 77 80 83 77 66 56 52 51 50 49 50 48 49 49 49
49 37 58 52 64 60 66 66 66 67 68 71 72 73 75 79 80 83 86 90 89 82 77 72 73 75 75 75 77 77 70 58 54 50 49 48 47 46 46 47 47 46 46
53 56 57 56 60 65 66 67 68 69 70 71 72 74 78 81 86 91 90 81 79 74 71 73 76 73 73 74 72 65 56 50 49 48 47 46 45 44 44 44 44 44 44
56 57 58 61 63 65 66 67 68 70 73 76 79 83 86 89 92 87 79 73 72 74 79 74 70 70 69 66 59 54 48 45 44 43 43 45 44 43 43 43 43 43 43
55 62 62 65 65 65 66 68 73 75 78 81 84 87 92 91 87 76 71 73 77 77 70 67 67 65 60 56 50 46 43 43 43 43 44 45 43 43 43 43 44 45 45
64 64 66 65 63 66 70 74 79 83 85 89 91 93 88 81 72 69 79 77 69 66 67 65 58 53 52 50 44 41 40 41 41 42 44 40 39 40 40 41 43 45 46
65 64 62 63 67 72 78 84 86 87 90 96 93 88 81 79 80 80 71 64 64 62 60 57 52 48 47 43 41 40 39 39 40 42 40 36 36 35 36 38 40 43 44
63 63 65 68 74 75 78 85 89 92 95 91 83 83 85 80 68 65 64 63 61 58 54 50 46 44 41 38 39 40 39 36 36 40 32 33 32 35 38 39 40 41 41
63 64 68 71 74 76 80 88 88 89 90 83 80 73 66 64 62 62 61 59 56 52 49 44 42 39 36 36 36 37 35 34 32 36 28 34 33 36 38 35 33 34 35
61 71 75 78 75 76 81 85 87 83 72 69 67 65 66 63 60 59 56 54 51 48 43 41 38 35 33 34 34 34 35 33 32 30 24 31 33 38 35 30 29 29 32
72 73 78 80 78 79 81 82 79 71 64 65 65 68 70 60 56 54 52 50 46 43 39 38 34 32 33 33 35 34 32 30 32 29 25 29 32 33 30 30 28 28 31
72 76 75 76 77 79 79 75 69 66 66 67 69 72 65 56 54 50 49 46 42 40 37 35 32 31 32 33 33 31 29 27 28 28 26 27 34 29 27 29 28 28 29
68 71 74 78 78 77 73 70 67 67 69 70 72 69 59 51 49 47 46 42 39 36 34 32 30 30 31 32 33 32 29 25 27 26 29 26 33 30 25 28 32 33 24

GFSMA_500_spd_048.txt.gz
Wind_Speed
12 16 15 17 21 21 21 21 21 22 25 29 32 35 36 36 38 40 41 43 43 43 41 39 39 39 40 42 43 44 45 44 43 42 41 40 40 39 37 38 37 36 38
14 16 16 17 20 18 17 21 24 27 30 32 35 38 40 42 44 45 45 45 45 43 42 41 41 40 41 40 39 40 40 40 42 42 43 42 43 44 43 42 42 43 43
14 14 15 15 16 19 22 26 29 30 34 37 40 43 44 46 47 47 47 46 45 44 44 43 42 41 41 41 38 39 39 40 41 42 43 44 46 48 50 49 49 47 47
11 14 14 17 20 24 27 30 33 35 39 41 44 46 47 49 50 49 48 47 47 47 45 45 43 43 42 41 41 42 44 46 47 47 49 50 51 52 55 56 59 59 56
11 14 18 21 26 27 33 35 37 41 43 45 46 47 47 48 48 49 49 50 50 48 46 45 46 45 43 43 43 45 48 52 54 56 58 59 60 61 63 63 64 64 65
15 19 23 26 29 33 38 40 42 45 47 48 49 49 48 49 49 47 46 47 49 52 52 51 50 47 46 48 49 52 55 58 61 63 65 67 68 66 68 70 70 72 72
20 24 27 30 34 38 42 44 45 46 46 46 45 46 47 49 51 50 49 50 51 52 54 55 53 52 53 56 58 59 61 63 66 68 70 73 74 73 74 76 77 78 78
25 29 33 36 39 43 46 46 46 48 49 49 50 50 54 55 53 52 54 56 55 56 58 59 60 60 61 63 65 67 68 69 71 73 74 76 77 77 79 79 79 82 83
32 35 37 40 42 46 47 48 47 48 50 52 50 54 61 60 58 58 59 61 62 62 63 64 65 66 69 70 70 73 75 76 74 75 77 77 75 79 82 82 83 85 89
35 39 43 43 47 48 45 47 50 51 52 52 56 63 65 64 59 60 63 65 66 67 67 68 70 72 73 73 75 76 77 75 73 75 76 79 81 83 86 87 90 95 100
42 46 49 45 48 50 48 50 55 51 56 59 61 65 66 64 64 66 66 67 68 70 72 73 76 79 80 81 83 83 77 74 74 73 75 79 83 85 87 91 93 97 96
45 51 46 48 51 54 50 50 50 50 62 65 61 69 67 66 67 69 71 72 74 75 78 82 84 85 87 87 82 77 74 74 74 74 75 77 81 83 85 87 82 74 71
49 46 45 45 56 47 47 59 64 58 64 66 69 69 70 71 72 74 77 79 81 83 85 89 92 91 88 81 75 75 74 74 72 75 77 79 83 83 75 63 57 55 53
45 47 42 52 48 54 58 59 60 64 64 67 68 70 71 73 77 80 83 84 87 91 91 91 90 85 77 74 74 72 73 75 78 79 78 78 74 64 54 48 46 45 44
50 52 50 56 62 58 60 65 63 67 67 69 69 71 75 78 83 87 90 94 96 97 89 80 73 71 72 72 73 74 75 76 74 70 66 62 57 51 48 45 44 44 44
54 57 61 59 61 63 64 70 71 70 70 72 73 76 81 84 87 91 93 95 95 88 78 72 73 75 77 73 74 73 68 63 60 59 55 51 49 47 44 42 43 45 44
55 55 66 62 66 67 70 73 69 70 71 76 81 85 85 87 93 93 94 89 83 82 80 76 71 70 69 67 65 62 59 55 53 52 48 44 43 43 43 44 45 46 46
60 65 54 68 69 71 70 70 71 71 75 81 84 86 89 90 91 90 86 80 76 72 71 68 67 64 60 58 56 53 51 51 49 45 42 41 41 41 43 45 44 43 43
65 64 63 60 70 68 68 69 74 78 83 87 85 85 88 88 86 81 76 72 70 69 68 66 62 56 53 52 49 48 48 47 44 39 37 38 38 39 41 40 39 38 39
62 62 65 67 67 68 68 70 78 82 84 89 87 86 85 84 79 73 68 68 71 67 64 60 55 52 49 45 44 44 42 43 41 40 39 37 37 37 34 32 33 34 36
60 63 63 63 65 63 73 78 83 85 88 88 87 85 82 78 71 70 68 71 69 62 59 55 51 48 44 41 41 41 41 39 39 39 37 35 36 34 33 31 34 37 40
60 60 60 65 66 70 78 79 84 89 87 86 84 83 77 70 67 69 70 71 63 58 54 50 48 44 39 38 38 39 38 37 35 36 36 34 33 31 30 33 36 38 36
57 60 63 67 71 74 75 78 82 83 83 83 83 76 70 68 69 69 71 66 58 54 50 47 44 40 36 35 35 35 35 36 38 36 31 28 31 31 32 34 37 33 30
59 62 68 74 73 74 76 78 79 82 83 81 76 71 68 69 70 71 69 60 54 50 47 45 41 37 34 33 33 32 32 33 36 36 33 23 30 29 32 34 33 28 27
61 66 69 71 72 74 77 80 82 82 81 78 73 69 69 69 72 72 65 55 50 46 44 42 38 34 32 32 32 30 30 31 31 34 35 25 26 26 30 34 30 27 25
62 65 68 71 74 76 80 82 82 82 81 78 71 69 71 72 73 68 57 49 46 44 41 39 35 33 29 30 30 30 30 30 30 28 32 28 27 25 24 29 28 29 30

GFSMA_500_spd_051.txt.gz
Wind_Speed
12 14 12 14 15 17 18 16 14 15 19 23 27 30 34 37 39 41 42 43 44 45 45 45 44 42 43 43 43 43 44 45 45 44 41 38 37 36 35 35 36 37 38
10 13 12 16 14 14 12 15 17 21 24 28 31 34 37 42 44 45 46 45 45 46 46 47 45 43 44 44 43 43 43 43 44 46 46 41 40 39 38 37 38 38 38
12 15 11 11 12 12 16 20 23 26 29 32 35 38 41 44 45 46 46 47 47 48 47 45 45 45 45 46 45 44 44 45 45 45 45 44 43 44 45 46 46 45 45
11 12 11 11 13 17 22 25 28 31 33 37 40 41 43 45 46 47 47 46 46 46 47 47 44 45 46 46 47 48 46 45 44 45 47 48 49 49 49 50 51 53 55
13 10 11 15 18 23 26 29 32 35 38 41 42 43 44 47 48 49 47 47 49 49 49 48 50 49 48 48 49 50 48 48 48 48 50 52 54 56 57 58 58 60 61
10 12 15 20 24 27 31 33 36 39 42 44 44 45 47 48 48 46 46 49 51 52 52 54 55 56 55 54 53 53 52 53 55 57 58 59 60 61 62 63 64 64 63
12 15 20 25 29 32 35 36 39 42 45 43 44 48 46 44 46 49 51 52 54 53 53 54 55 57 59 59 58 58 58 60 63 65 66 68 69 69 71 72 74 75 75
17 21 26 29 31 35 40 38 42 44 44 45 47 51 51 50 52 54 54 56 57 57 57 58 59 59 61 62 63 66 67 68 70 72 74 76 78 79 80 81 82 83 83
25 28 32 35 37 41 44 41 45 46 50 49 50 54 54 54 61 61 61 64 62 61 61 61 63 64 66 68 70 71 73 75 76 78 81 83 84 84 84 84 84 84 85
31 31 36 37 40 44 43 44 46 49 49 51 53 64 57 59 63 63 63 62 62 63 65 67 69 71 72 74 77 80 82 83 85 86 87 89 89 90 87 82 83 82 81
34 35 41 40 44 44 45 45 47 46 52 53 55 59 64 63 65 62 62 65 67 69 72 76 78 79 80 81 83 84 86 85 86 84 82 82 79 77 77 77 76 76 76
33 38 42 41 46 45 46 47 47 52 62 61 62 67 68 67 63 65 68 70 74 77 80 81 82 84 85 86 87 87 86 81 73 67 68 72 72 73 75 75 75 74 76
32 40 42 45 48 47 43 46 54 67 63 66 67 71 73 68 68 68 73 78 79 81 82 84 86 88 90 89 86 82 77 71 67 70 71 73 75 74 74 76 78 78 80
33 42 45 49 47 50 57 61 64 68 64 71 72 73 71 72 72 75 83 84 82 83 86 88 90 91 87 83 78 73 71 71 73 72 73 74 74 75 74 73 73 71 70
36 39 46 49 55 58 63 62 69 58 73 71 71 72 72 73 77 82 85 88 87 88 88 90 89 86 82 76 72 70 69 68 65 63 62 60 59 59 58 56 54 51 49
37 46 51 55 60 64 64 64 57 72 68 76 75 75 75 77 80 86 88 89 88 90 89 86 81 76 74 71 69 65 58 55 53 52 52 51 49 49 48 46 44 41 40
43 50 54 58 63 66 63 69 72 72 75 73 76 77 79 83 86 88 91 89 88 89 85 78 75 72 72 68 62 57 53 50 49 47 45 44 43 42 41 39 37 37 38
51 50 57 58 62 66 68 67 69 73 72 75 74 76 82 83 87 88 89 87 87 83 77 73 71 72 67 61 55 51 48 47 44 43 42 39 38 38 37 36 35 35 37
52 55 59 62 64 66 70 70 70 68 71 72 77 81 82 83 85 86 87 87 83 76 70 71 69 70 61 55 50 48 44 42 42 42 41 39 37 34 32 32 32 34 36
50 53 58 60 62 67 67 66 68 72 74 77 82 81 82 83 84 86 86 83 76 69 69 69 71 65 56 50 47 44 40 39 39 42 42 39 36 34 31 30 32 32 32
52 53 57 61 63 64 63 68 71 72 74 82 82 82 82 84 86 86 84 77 69 68 69 70 69 59 51 46 44 39 37 36 37 41 40 38 35 30 28 29 30 30 30
54 57 59 60 61 62 70 73 71 78 81 80 82 82 85 87 87 85 79 71 68 68 69 70 63 52 47 44 40 36 34 34 36 38 36 37 34 30 28 28 29 29 30
57 58 58 59 62 64 69 73 78 78 79 81 83 85 87 87 85 80 73 68 67 68 70 67 56 48 42 41 36 33 33 33 35 36 34 33 33 31 30 30 30 29 31
58 59 61 62 65 69 71 73 76 77 80 82 85 87 88 85 81 75 70 68 69 69 67 61 49 44 40 37 34 32 30 31 33 35 35 32 31 28 30 31 29 29 31
61 61 61 65 67 70 72 74 77 80 82 84 86 89 86 81 75 72 69 70 70 67 62 52 44 40 38 35 32 29 29 29 30 33 34 33 31 24 25 29 29 30 30
60 61 64 68 70 71 73 76 80 83 85 87 89 87 82 76 72 71 71 72 68 62 55 45 41 37 35 32 30 28 27 28 30 30 32 30 31 25 17 26 27 29 29

GFSMA_500_spd_054.txt.gz
Wind_Speed
14 15 14 11 14 14 16 15 14 13 13 16 20 24 28 32 35 37 39 41 43 44 46 47 46 45 45 45 44 44 44 45 46 47 47 45 44 43 40 38 39 40 42
12 11 12 14 13 15 15 11 12 15 18 22 25 29 33 36 39 41 41 43 45 46 46 46 45 45 44 43 44 44 44 45 45 46 49 50 50 48 45 41 40 40 40
11 10 15 16 13 13 11 12 16 19 22 26 30 33 37 40 41 42 43 45 47 48 47 47 46 46 46 46 46 45 45 45 46 47 49 50 52 52 50 47 44 44 44
14 14 14 14 11 10 12 16 20 23 27 30 33 36 39 41 41 41 45 47 46 46 46 48 48 47 47 47 48 48 48 48 48 49 50 52 53 53 53 54 53 52 52
13 14 10 10 10 13 17 21 25 30 33 34 37 39 41 41 40 45 48 46 42 44 47 49 49 49 47 47 48 48 48 50 51 52 53 53 53 57 59 59 59 59 58
12 9 10 12 15 18 21 25 28 33 36 38 41 42 41 43 45 47 48 49 52 53 53 54 52 50 47 48 48 50 52 53 54 55 57 58 60 62 64 65 66 67 67
12 11 14 18 19 23 27 29 33 38 39 41 45 41 41 46 49 53 54 51 53 55 56 54 52 52 54 54 55 57 60 62 63 64 65 66 66 67 71 74 75 75 74
16 17 20 23 25 28 32 36 37 40 40 44 45 44 47 57 55 52 54 57 58 58 56 54 55 57 60 62 65 67 69 70 71 73 74 75 77 77 78 79 81 83 85
20 24 25 28 31 32 35 38 39 40 44 45 46 48 53 60 62 60 61 63 64 60 58 58 59 63 68 70 71 72 72 73 74 75 77 79 80 82 83 86 89 91 90
23 27 32 35 37 37 41 39 41 44 48 46 47 49 53 62 64 63 69 69 65 62 63 64 67 74 74 73 75 76 78 80 82 84 85 85 86 87 88 88 89 90 91
25 29 32 35 35 38 40 43 46 48 50 52 53 56 61 66 63 67 69 69 70 68 68 71 73 78 80 80 82 84 84 88 89 89 90 90 88 86 82 83 83 85 87
31 33 35 36 35 38 44 48 51 56 56 56 58 57 65 63 67 70 71 73 71 71 72 77 81 82 84 86 88 91 93 94 94 93 87 79 74 72 70 72 76 78 78
34 34 34 37 38 43 48 52 57 53 58 62 63 70 62 68 69 73 75 73 74 76 80 84 84 85 88 90 93 94 95 92 84 76 71 69 67 67 67 67 69 73 75
31 36 35 35 38 47 50 54 58 60 63 65 64 61 72 76 75 74 73 75 75 79 84 85 86 88 90 92 94 94 88 80 72 69 66 62 58 58 58 58 58 58 62
34 34 34 36 42 50 53 59 63 60 66 61 60 76 74 73 74 73 73 75 80 82 82 85 88 90 91 91 90 83 75 70 67 61 56 52 52 53 54 55 55 56 56
31 34 34 38 46 52 57 64 62 68 67 69 70 73 75 74 74 76 78 81 82 84 84 86 88 90 89 84 80 73 69 68 60 53 49 49 48 47 47 48 49 48 49
35 35 36 38 48 58 62 61 67 69 71 66 63 76 71 73 77 78 81 83 83 85 86 87 90 90 88 75 71 70 70 64 55 49 46 44 42 42 42 42 40 40 39
38 43 46 51 57 61 62 60 63 67 66 65 73 73 75 79 82 81 86 86 86 87 89 90 87 83 76 71 68 69 67 59 51 47 44 40 39 38 35 34 35 36 36
46 48 46 53 57 56 59 62 65 65 61 68 74 75 80 81 81 89 87 86 87 90 91 89 83 75 69 69 68 69 62 53 48 46 41 38 37 32 32 33 33 32 31
46 48 49 52 54 57 60 63 65 63 68 70 73 76 78 86 86 85 86 87 89 90 88 83 77 69 68 68 69 66 55 49 45 43 39 37 34 32 31 31 30 28 29
46 49 51 54 57 59 61 63 64 66 68 71 75 79 80 81 82 84 86 88 91 89 84 76 70 67 67 68 68 61 50 45 42 39 37 35 35 34 32 28 27 27 28
50 53 54 56 58 61 62 64 65 66 69 73 76 78 80 82 83 85 88 89 88 83 77 71 68 68 68 68 63 53 46 42 38 37 34 31 34 35 34 31 27 26 25
53 56 57 58 60 62 64 64 66 68 71 74 77 79 80 83 86 88 90 90 86 78 71 68 70 68 68 64 57 46 42 39 36 33 33 30 34 34 34 34 29 25 25
56 57 58 59 61 63 63 66 69 71 74 76 78 80 83 85 89 91 92 90 83 74 72 70 70 67 64 57 49 43 39 36 33 31 32 29 33 33 33 33 31 26 25
57 58 59 61 60 62 65 69 72 74 76 77 79 82 85 89 91 92 91 85 78 75 74 70 65 60 55 49 43 39 37 34 31 29 30 30 33 33 31 35 29 26 23
58 59 59 57 59 62 67 71 74 77 77 79 81 84 89 92 93 89 84 80 75 67 67 63 56 53 48 42 37 36 34 31 30 28 30 29 31 33 29 30 31 24 23

GFSMA_500_spd_060.txt.gz
Wind_Speed
28 33 35 25 16 12 11 12 12 11 13 12 11 12 14 16 17 20 23 26 30 33 34 35 39 43 45 47 48 48 48 48 48 49 49 48 47 46 43 42 42 43 42
28 32 22 20 17 12 13 13 11 11 10 10 13 14 17 19 21 23 28 31 33 35 36 40 41 42 43 44 45 48 50 49 50 52 51 49 48 47 47 47 46 45 46
23 18 21 17 14 13 13 12 11 10 11 13 16 17 18 21 24 28 29 31 32 35 38 40 40 41 42 44 46 49 51 52 51 49 47 45 42 41 42 44 47 49 49
19 18 14 13 10 10 13 11 11 13 15 16 18 19 21 24 27 29 32 33 32 35 37 41 43 44 46 48 49 49 52 54 53 48 45 45 45 45 46 47 48 50 51
11 9 11 9 10 13 13 13 14 15 18 20 22 23 26 28 29 31 34 36 37 40 44 47 50 51 53 52 52 55 58 57 55 53 51 51 51 53 54 54 55 56 57
8 12 12 12 13 15 14 16 17 19 20 24 26 25 26 27 31 34 40 41 43 46 51 53 54 57 57 54 58 60 58 53 53 54 55 58 59 60 61 62 61 61 61
10 16 16 14 14 15 17 20 20 24 26 28 32 31 29 29 33 38 41 42 45 50 53 55 59 61 59 59 64 62 56 52 55 57 59 61 63 66 67 68 68 68 69
11 11 14 14 16 19 20 23 24 28 33 36 38 40 35 35 42 45 46 49 50 55 57 60 63 61 58 68 66 63 56 57 61 64 66 67 69 70 72 74 76 78 79
13 12 14 18 21 24 27 30 30 32 36 39 37 40 41 42 46 51 55 59 60 61 61 67 65 64 69 67 68 64 61 63 67 70 73 74 79 80 80 81 83 84 85
13 15 18 18 21 26 29 28 33 37 39 38 42 40 46 45 51 55 61 65 69 70 73 72 69 67 70 69 72 68 69 72 75 77 79 84 84 84 85 86 88 88 90
16 17 19 22 23 27 31 32 31 41 36 43 47 49 50 52 56 60 61 62 70 73 72 73 73 71 69 72 76 74 76 78 81 85 84 85 85 86 88 89 91 93 95
20 21 24 26 29 31 30 36 35 30 33 43 47 51 52 56 58 60 64 72 76 74 71 71 70 73 75 79 79 77 78 83 86 85 85 86 88 90 91 92 91 88 84
13 21 27 30 33 35 35 37 42 39 33 46 50 47 52 57 60 67 71 78 76 73 72 66 70 77 80 81 79 81 84 83 84 85 86 89 90 91 90 84 78 74 68
19 25 27 32 34 32 36 32 30 36 35 41 49 54 55 62 72 77 73 78 75 73 71 68 78 82 83 85 88 86 82 82 85 87 88 88 90 85 77 72 68 64 59
25 26 30 31 33 32 32 35 36 36 39 45 46 55 64 68 74 76 76 77 75 73 70 70 77 82 85 88 86 85 85 86 86 88 89 89 82 71 67 63 62 56 52
30 32 34 36 35 34 37 40 41 43 48 53 56 60 65 69 70 72 71 72 72 72 70 72 76 81 83 84 87 88 88 88 88 88 85 75 67 63 62 61 58 51 48
35 35 37 39 39 41 42 42 42 52 54 55 56 60 64 65 66 67 70 72 71 71 72 70 73 76 80 84 86 88 90 90 89 84 75 69 65 62 60 56 51 47 45
39 41 42 42 42 43 43 43 48 51 54 57 59 60 63 66 67 67 68 66 67 68 72 71 74 77 80 84 88 90 92 92 87 78 72 66 62 60 55 50 46 43 42
42 43 43 44 46 45 46 48 50 53 57 60 62 64 65 67 68 65 63 65 68 71 75 79 80 83 85 88 90 92 90 86 82 75 65 59 57 53 48 42 42 40 39
44 44 45 45 46 47 48 51 54 57 60 62 64 66 68 68 63 63 65 69 72 76 79 83 85 87 88 87 89 85 81 78 74 68 59 54 52 48 42 39 39 37 35
43 45 45 45 46 49 52 55 58 60 62 63 65 67 67 64 64 66 69 72 76 80 82 84 85 87 88 86 82 79 77 71 66 61 57 51 47 43 39 37 37 35 33
43 43 44 46 49 52 56 59 62 63 65 65 66 67 65 65 68 71 74 77 81 84 86 88 89 89 87 83 78 75 71 66 63 58 53 48 45 39 36 35 35 33 33
42 44 47 49 53 57 59 62 63 64 65 66 67 67 66 69 73 75 78 80 83 86 87 88 90 89 85 78 74 69 65 64 58 51 51 46 40 35 34 33 33 32 32
44 47 50 53 56 59 62 63 64 65 65 66 65 66 69 72 76 80 81 84 86 88 88 91 92 86 79 73 69 65 61 57 47 45 45 41 36 32 32 31 31 30 31
48 50 54 57 61 62 62 63 64 65 66 66 67 69 73 75 77 82 86 89 91 91 91 89 85 78 73 69 62 57 52 46 40 39 37 37 32 30 30 29 30 30 31
51 55 59 61 62 62 63 63 64 65 65 66 68 71 75 78 82 86 90 93 94 92 90 85 76 69 67 61 52 47 38 42 38 35 32 34 30 30 27 27 28 29 30

GFSMA_500_spd_063.txt.gz
Wind_Speed
15 16 22 23 26 25 17 16 15 13 11 10 12 13 12 10 14 16 15 16 18 20 21 23 26 27 29 31 34 35 36 38 39 41 43 46 48 49 48 45 43 43 43
24 18 18 22 27 20 19 15 12 11 9 12 11 12 14 14 16 17 17 19 21 22 24 25 28 31 34 37 38 39 40 41 42 43 44 45 47 47 46 44 43 40 39
13 12 15 25 22 20 15 12 11 10 11 12 12 14 15 18 16 15 17 20 23 25 27 29 32 36 39 42 43 45 45 45 45 47 48 48 47 45 43 42 43 44 45
9 10 18 23 19 13 12 11 12 12 14 14 14 16 17 19 19 20 21 22 25 29 34 34 38 42 45 46 47 49 50 50 50 52 51 50 47 45 46 46 47 48 49
8 17 22 17 13 11 13 15 16 16 16 15 15 17 19 23 24 22 23 26 29 32 34 38 43 47 50 50 50 56 54 54 56 55 53 50 48 48 49 51 53 54 55
16 16 16 14 13 15 17 17 17 17 17 15 19 21 24 27 27 27 28 30 36 38 41 44 47 51 52 55 58 59 54 54 59 56 56 53 52 51 53 54 56 58 61
5 7 12 15 15 16 17 17 19 19 18 20 25 28 30 32 33 34 36 35 35 41 46 51 53 55 59 61 60 58 57 57 58 57 58 60 58 57 58 58 59 61 63
6 3 8 15 15 17 15 18 19 21 24 27 28 31 35 34 33 34 36 39 43 43 51 53 55 58 63 63 62 60 61 59 60 63 66 67 64 63 64 66 67 68 69
6 7 4 7 12 13 19 22 23 25 30 28 34 33 31 31 33 37 42 46 50 55 56 57 62 67 70 68 67 66 61 60 64 67 70 67 69 70 72 73 73 74 75
5 8 9 10 11 12 15 18 25 29 28 33 38 38 36 40 42 39 46 51 56 59 60 62 71 72 73 70 68 67 61 66 70 70 70 73 75 76 75 75 76 78 80
9 9 10 12 14 17 20 23 26 30 33 35 33 35 36 43 41 43 48 55 60 63 64 73 76 76 75 71 68 64 65 67 69 71 73 75 77 77 78 80 81 83 85
12 13 13 16 16 20 23 27 29 30 33 36 33 36 35 41 45 55 55 55 60 66 74 76 75 75 75 74 72 67 65 66 69 71 74 77 80 82 83 85 86 88 89
7 14 15 15 18 23 24 26 28 30 29 30 32 35 31 38 48 53 56 63 66 71 72 72 72 72 72 71 68 66 66 65 66 70 75 79 83 85 87 89 89 88 84
11 13 16 18 22 25 28 29 32 30 33 36 36 37 39 44 51 58 61 63 65 66 69 69 69 71 70 67 65 65 68 70 72 75 79 82 84 86 88 88 86 81 75
16 12 18 20 24 28 31 31 32 35 38 40 40 41 43 53 54 58 60 63 66 66 65 63 65 66 65 66 69 71 74 76 79 81 83 84 85 87 86 80 78 71 67
21 15 22 25 29 31 32 33 34 36 39 41 42 45 52 54 56 60 63 65 67 67 67 65 62 62 66 70 74 78 80 82 84 85 86 86 85 83 76 71 70 63 61
27 25 29 31 32 33 34 35 37 39 40 43 44 47 52 56 59 62 64 66 67 69 69 65 66 68 71 75 78 81 84 88 89 89 88 86 82 78 69 64 63 58 55
31 35 36 34 36 36 38 38 40 41 43 45 49 53 57 60 63 64 65 67 69 69 69 69 71 74 78 80 82 86 89 91 92 90 88 85 79 72 63 57 56 53 52
34 35 36 36 38 38 39 42 42 44 47 51 54 58 61 63 65 66 68 68 69 70 72 75 76 79 82 85 88 90 89 89 88 87 83 77 72 66 59 53 52 49 47
34 35 37 38 39 40 42 43 45 48 51 55 58 62 63 65 65 65 66 67 68 71 74 78 80 81 85 86 90 91 91 89 86 82 76 71 66 62 57 50 48 46 42
36 37 39 40 41 42 43 44 47 52 56 60 63 63 64 65 65 65 65 66 69 72 76 79 82 86 88 90 92 91 90 86 82 77 72 67 63 60 54 46 45 44 38
38 39 39 40 41 42 44 48 53 57 60 62 62 63 64 64 63 63 66 69 73 76 78 82 84 89 91 95 93 90 86 82 77 72 68 58 59 56 49 45 45 39 36
39 38 39 41 42 44 48 52 56 59 61 62 63 62 62 62 62 64 67 71 74 79 81 85 89 92 95 94 92 86 80 75 72 68 63 56 52 49 47 44 39 35 35
38 39 41 43 45 48 52 56 59 61 62 63 62 63 62 63 66 67 69 72 75 78 83 88 93 95 96 92 88 82 74 68 65 60 50 48 45 44 43 37 34 33 31
41 42 44 46 49 53 56 59 60 61 61 61 63 64 65 68 71 73 75 77 79 80 85 90 95 97 95 90 83 74 64 60 56 45 38 40 40 39 35 31 32 30 29
44 46 48 51 54 56 59 59 59 60 61 63 66 67 68 70 74 78 81 82 83 86 90 94 97 97 91 83 71 65 58 51 44 35 31 40 42 37 32 29 30 29 28

GFSMA_500_spd_066.txt.gz
Wind_Speed
13 12 8 20 19 25 22 15 19 19 18 16 14 14 12 14 16 16 17 17 17 18 19 20 22 24 26 29 31 34 35 36 37 39 40 42 43 44 43 42 43 44 45
18 16 17 21 16 17 17 21 21 16 14 13 13 15 16 17 17 17 18 18 18 16 18 20 23 27 29 33 35 37 39 41 42 43 44 45 46 47 45 45 44 44 44
14 17 20 18 15 13 21 23 18 16 14 15 15 17 16 17 18 18 20 19 19 19 21 23 26 28 30 34 38 41 43 44 46 47 47 49 50 50 49 46 44 45 46
18 18 18 16 12 18 24 20 17 16 15 16 17 16 16 16 18 20 21 22 20 20 22 25 29 32 37 41 43 46 47 50 51 51 52 53 53 52 52 49 45 46 48
21 21 19 13 19 23 19 18 18 17 18 18 17 17 17 19 20 21 23 24 26 25 28 30 30 33 40 47 49 50 54 57 58 57 56 55 55 56 53 52 49 49 50
21 20 16 23 20 19 19 20 18 18 18 18 16 17 20 23 26 28 31 30 32 32 36 36 38 43 45 49 51 54 61 63 64 63 60 60 60 59 57 56 55 55 54
19 19 22 20 20 22 21 20 19 21 20 18 19 21 22 26 28 31 35 32 32 33 36 39 44 45 51 54 53 61 65 68 67 66 64 63 62 61 59 59 58 57 59
18 15 16 16 16 20 20 17 18 19 21 22 24 26 29 31 33 34 37 33 31 32 38 45 46 52 54 55 58 67 70 66 65 66 66 65 62 60 61 61 61 61 62
14 10 10 13 12 16 22 23 20 20 24 27 28 27 33 36 40 34 39 37 41 45 44 51 52 53 55 60 66 69 68 67 66 66 65 62 62 62 63 64 65 67 67
10 11 11 11 13 12 12 11 16 19 26 28 28 29 32 36 33 37 37 38 45 45 51 55 55 58 62 67 67 67 68 66 67 65 64 64 64 67 69 71 71 70 71
11 12 12 11 11 13 14 15 18 22 25 29 27 31 33 36 36 35 37 38 41 47 54 56 58 62 62 65 66 67 67 66 64 63 64 66 69 72 74 74 75 77 78
13 15 15 15 15 16 15 16 18 21 25 27 30 30 29 31 33 35 37 40 46 54 55 58 60 63 66 67 68 67 66 64 64 66 69 71 74 76 77 79 82 84 84
16 12 14 13 12 14 16 18 20 22 27 29 29 31 35 37 36 37 38 43 48 53 57 60 63 64 67 67 65 63 64 66 68 71 74 77 78 79 81 85 87 88 87
13 14 16 15 12 18 20 20 23 26 28 29 31 33 34 35 37 40 43 47 51 55 58 61 63 65 65 63 61 64 66 69 73 76 78 80 82 84 87 89 89 89 88
23 25 22 19 17 18 19 24 26 29 30 30 32 32 34 37 39 42 46 51 55 57 58 60 61 62 62 63 64 66 69 73 76 80 81 83 85 89 91 91 91 89 84
24 35 19 18 20 16 24 26 29 30 31 32 33 34 36 39 43 47 51 54 58 57 57 57 57 58 61 64 68 71 74 76 78 82 85 87 91 92 93 89 89 86 80
26 17 18 18 20 21 25 27 29 30 31 32 34 36 38 41 46 50 54 56 56 58 59 58 58 59 62 65 68 72 75 78 81 84 88 90 94 95 95 88 83 78 70
19 20 22 24 25 25 25 28 29 31 33 35 35 38 44 49 52 55 57 58 60 61 61 60 62 63 65 69 72 76 79 82 86 89 92 92 92 87 83 79 76 68 65
25 26 22 24 27 28 31 32 32 34 37 38 41 45 49 53 56 57 58 59 60 62 62 63 65 69 71 74 77 79 81 86 91 94 92 90 88 84 77 76 70 66 60
26 27 27 28 31 33 35 36 37 38 40 41 45 49 53 56 57 57 58 60 62 64 65 69 70 72 75 78 82 85 87 91 96 97 92 87 83 78 72 61 60 58 61
29 31 31 32 34 37 38 39 39 40 42 46 50 53 56 57 57 57 60 62 64 66 69 70 73 76 79 82 84 86 92 97 98 95 87 82 78 74 65 66 48 56 64
33 35 36 36 38 40 40 40 42 44 47 51 55 58 58 58 57 58 61 65 67 69 70 74 77 79 81 84 86 91 97 101 100 89 82 75 70 70 63 54 52 49 56
38 38 38 38 40 41 41 43 46 49 52 55 59 61 60 59 59 61 65 69 72 72 74 78 81 83 84 88 92 95 100 99 92 82 73 66 63 61 50 42 46 50 46
40 39 39 40 42 43 44 47 51 53 57 60 62 63 62 61 61 64 67 70 72 75 79 82 85 85 89 92 96 101 100 94 83 72 65 63 56 49 41 40 42 41 41
42 42 43 45 46 47 49 52 55 58 61 63 65 67 64 62 64 67 69 71 73 74 79 83 86 89 91 95 100 102 96 87 74 63 58 55 45 36 36 33 37 41 37
43 45 46 47 48 51 53 57 59 61 63 67 70 68 64 64 68 73 73 73 77 78 79 84 87 89 93 98 100 96 88 77 67 57 51 46 36 25 37 35 37 40 34

GFSMA_500_spd_069.txt.gz
Wind_Speed
26 22 23 28 23 22 35 30 28 22 17 21 23 23 22 20 18 20 19 19 20 21 22 22 22 22 23 23 25 26 28 31 32 34 37 39 42 43 43 44 45 47 48
23 17 17 15 15 22 26 25 23 18 20 23 23 23 20 20 20 20 20 20 21 22 23 22 23 24 26 27 28 29 31 34 37 38 40 41 41 44 46 48 49 51 51
21 18 19 20 20 24 23 23 19 19 22 22 22 21 20 21 19 18 19 19 21 22 24 25 25 26 28 29 30 31 38 41 41 43 43 45 47 49 51 52 53 53 53
22 18 18 20 23 25 24 20 22 23 21 20 19 19 19 18 18 18 19 21 22 22 24 26 29 31 33 34 36 43 46 45 46 48 48 51 53 53 55 55 56 56 56
24 22 21 24 26 25 21 22 24 22 20 20 21 20 19 18 18 18 20 23 24 26 29 32 36 38 40 41 43 45 49 53 51 51 56 59 57 57 58 59 58 58 55
24 22 23 27 27 22 22 24 21 21 20 20 21 20 20 20 21 22 25 27 28 31 33 34 36 37 37 41 46 48 52 52 53 57 60 60 60 61 61 60 58 56 55
23 27 28 30 26 28 23 22 21 21 20 20 22 21 21 23 25 28 30 32 35 37 37 36 35 35 39 45 49 51 55 58 59 61 61 62 62 62 61 59 57 56 56
22 23 25 26 27 24 22 18 17 18 20 21 20 22 23 26 29 32 35 37 43 43 41 43 43 44 47 51 50 51 56 58 60 62 63 63 62 59 58 57 58 59 61
19 18 18 20 21 21 19 18 19 20 22 22 24 27 27 30 31 33 35 39 35 38 44 44 42 43 41 50 51 54 57 59 62 63 62 61 59 59 60 60 61 64 66
18 15 16 20 21 16 12 17 23 24 24 28 29 30 33 36 35 35 36 36 36 36 36 38 40 43 46 50 54 58 60 60 61 61 60 60 61 62 63 64 66 69 71
13 14 15 15 16 17 15 14 14 18 21 24 26 27 31 33 33 35 34 34 36 35 34 38 41 45 50 54 58 60 59 60 60 61 62 62 62 65 67 69 72 75 77
14 15 16 17 18 18 17 18 20 20 21 23 26 28 30 31 31 31 36 34 34 35 37 41 45 50 54 58 60 58 57 57 61 63 64 64 66 69 71 73 76 80 82
15 16 20 22 21 20 19 21 23 22 21 25 27 30 32 32 33 33 33 32 33 37 41 45 49 54 57 57 56 54 56 59 62 63 66 68 71 73 75 78 81 85 88
15 17 20 23 24 23 21 23 24 24 23 27 27 30 33 34 33 35 33 34 38 42 45 49 52 54 53 54 54 55 58 60 62 65 70 74 77 78 80 84 89 93 95
22 24 25 24 25 25 25 26 28 27 28 30 29 31 33 34 34 32 34 37 41 44 48 49 50 52 52 54 56 58 61 63 67 70 74 77 78 81 84 89 95 98 99
28 34 32 32 33 27 27 30 30 25 32 30 31 33 34 34 33 34 37 41 45 49 51 49 49 50 54 56 58 62 64 67 71 75 77 80 81 84 89 94 98 97 93
34 41 43 42 36 26 25 24 23 29 32 33 33 34 34 35 36 38 41 44 47 50 48 46 48 51 55 58 61 64 66 70 74 78 81 82 85 88 94 99 97 91 87
41 29 33 24 29 23 23 23 29 31 34 35 34 34 35 36 38 42 45 48 48 49 48 48 50 56 57 61 64 66 69 72 75 80 83 85 91 94 98 98 94 88 82
27 22 18 20 17 22 27 29 32 34 34 34 36 37 38 41 43 47 49 51 52 51 52 53 57 59 62 65 68 70 75 76 78 81 84 89 94 98 99 96 88 81 74
20 22 21 21 24 26 30 32 36 35 37 38 38 40 42 44 47 51 53 55 57 57 56 57 61 63 66 68 71 73 74 78 79 83 88 93 98 100 96 89 81 72 68
25 25 24 29 31 30 33 36 38 38 40 41 42 42 45 48 52 54 56 60 61 60 60 62 65 68 71 72 74 77 80 81 82 86 92 97 101 99 90 78 72 68 65
31 31 31 34 36 36 38 39 39 41 42 43 44 47 49 52 54 58 60 62 64 64 64 67 70 75 76 76 79 82 84 86 90 92 100 103 99 92 79 70 65 63 57
34 33 37 40 40 41 41 39 40 42 44 46 48 50 52 54 56 59 63 64 66 67 70 73 78 80 81 80 83 86 88 90 94 97 103 103 93 80 68 63 60 56 45
34 38 40 43 44 43 42 42 43 45 47 49 51 53 54 56 59 63 63 64 66 69 73 76 80 84 84 86 87 89 90 94 96 100 102 99 82 70 62 57 52 44 36
37 38 43 48 45 43 44 45 47 48 50 52 54 56 57 59 66 67 66 67 67 70 74 79 83 86 86 87 88 91 94 99 99 102 94 89 72 63 58 53 41 35 30
38 43 47 45 45 46 47 50 51 52 54 55 57 58 61 68 72 69 69 69 71 74 77 82 84 86 87 88 90 94 98 99 102 103 83 74 65 59 54 44 30 34 34

GFSMA_500_spd_072.txt.gz
Wind_Speed
36 44 37 33 37 31 23 19 28 30 26 26 25 22 21 23 24 23 22 20 20 20 20 21 23 24 24 24 25 26 27 27 26 27 32 35 36 37 39 38 38 42 43
20 42 35 28 30 27 26 22 28 28 27 25 24 22 21 22 21 21 20 19 19 19 20 22 23 23 25 26 27 26 28 31 31 35 40 41 40 39 40 42 43 46 48
20 19 22 27 23 19 22 21 24 26 23 23 24 22 21 21 20 19 18 18 18 20 21 22 24 26 28 30 31 33 36 39 40 43 42 44 44 45 48 48 50 51 52
23 23 25 25 23 19 21 21 24 24 23 24 25 23 22 23 21 20 20 19 18 19 21 23 26 27 30 33 36 38 37 37 38 40 44 46 47 49 51 53 54 56 55
25 24 25 20 19 19 24 23 26 23 23 24 23 22 21 21 22 20 21 22 21 22 24 26 29 32 34 37 38 36 33 37 39 45 45 47 50 52 54 55 55 54 52
23 25 22 21 17 21 25 28 27 24 24 24 22 19 20 19 20 22 22 23 24 28 29 31 34 37 37 38 40 37 43 46 45 45 48 51 54 55 54 52 51 51 51
27 27 23 22 20 26 32 28 25 23 26 25 21 19 22 22 22 24 24 27 30 33 32 35 40 39 38 44 44 44 47 44 45 48 51 54 55 53 50 50 51 53 54
29 30 28 26 28 33 33 22 20 22 23 21 20 22 24 22 25 26 28 31 33 36 36 39 41 37 40 37 36 36 43 45 49 51 54 54 50 48 48 49 51 53 54
29 28 26 30 32 31 22 19 21 22 18 19 21 22 22 23 26 29 31 35 37 38 37 38 36 37 36 36 41 40 44 48 51 53 52 49 46 47 50 53 55 58 59
22 24 23 22 21 22 21 21 20 20 23 25 23 24 24 26 30 34 34 36 38 38 39 37 38 37 35 37 40 44 47 49 50 51 50 48 49 52 55 58 61 64 65
16 17 18 21 20 21 20 18 19 23 24 24 27 28 28 28 30 32 34 33 37 37 37 36 34 34 37 40 44 48 50 50 51 49 49 51 54 55 57 60 62 65 69
14 16 18 18 21 23 23 22 20 22 22 24 25 25 27 31 34 34 35 34 34 36 34 32 33 36 41 45 48 49 50 50 48 49 53 56 58 59 62 66 67 67 69
16 20 21 23 23 25 24 25 24 24 24 25 28 29 30 33 34 34 33 35 36 36 34 33 36 41 46 48 48 50 48 47 50 52 55 57 61 64 66 71 75 75 75
17 17 18 19 20 23 25 25 25 24 25 28 31 32 33 32 35 39 36 37 36 34 33 36 40 46 49 50 49 48 47 51 52 55 58 61 64 66 71 73 75 79 82
14 14 16 17 21 23 27 29 28 27 33 32 39 38 34 38 40 38 38 37 35 33 35 40 45 47 49 49 47 48 51 53 56 59 61 64 67 70 74 77 79 81 85
19 19 21 23 28 33 36 34 32 32 31 37 42 30 37 42 40 38 36 35 36 37 40 43 48 49 50 50 50 53 56 58 60 62 64 66 69 74 77 82 84 85 89
27 28 25 32 34 39 44 47 36 36 36 35 33 33 39 41 39 37 37 36 39 41 44 47 50 50 52 53 55 57 59 60 63 66 67 69 73 76 80 83 86 89 92
36 33 35 36 40 49 44 45 37 39 31 32 34 37 40 39 38 37 38 39 42 46 49 51 52 52 54 57 59 60 61 63 67 67 69 73 77 80 83 86 88 92 95
21 35 28 27 24 23 21 35 29 29 32 36 39 41 41 40 40 40 42 44 47 50 51 54 56 57 57 58 61 63 64 68 71 72 75 79 81 84 87 88 92 95 99
17 31 35 27 30 23 24 25 28 31 38 40 39 42 42 42 43 43 46 48 50 52 54 57 60 61 61 61 62 64 66 70 72 77 80 82 84 87 88 93 96 101 104
20 21 20 22 24 25 28 31 33 37 39 39 42 44 45 45 45 48 48 50 51 54 57 60 64 63 61 62 64 67 68 71 76 80 82 85 87 89 90 96 100 106 103
23 25 25 27 27 30 32 35 37 39 42 43 44 45 46 47 48 49 50 51 54 57 59 65 67 66 65 66 67 70 74 80 82 83 86 86 89 91 95 99 104 105 88
26 27 29 31 33 37 38 39 41 42 46 47 46 47 48 49 49 50 52 55 57 59 64 69 66 65 69 72 73 76 80 85 87 88 89 88 90 93 98 101 104 92 74
30 31 33 37 38 40 40 43 45 48 51 49 49 50 51 51 52 54 56 59 60 62 69 67 66 69 73 75 78 82 86 89 90 90 92 91 92 95 99 99 93 78 66
33 35 36 39 41 42 44 43 51 54 53 52 52 52 53 55 57 58 60 61 64 68 71 68 70 74 77 80 83 87 90 91 90 89 89 94 95 98 98 89 79 69 61
38 40 42 42 42 44 46 51 52 53 53 54 55 55 57 59 61 61 62 66 69 70 69 72 75 79 82 83 86 88 89 89 89 87 89 94 97 97 94 78 69 62 53

GFSMA_500_spd_075.txt.gz
Wind_Speed
42 38 42 46 40 33 27 29 29 26 24 27 25 27 23 20 23 22 23 24 24 23 22 21 20 20 20 21 22 25 26 25 25 27 29 32 35 37 37 36 36 38 42
39 42 39 39 37 35 33 32 30 28 26 25 26 26 22 22 23 23 24 26 25 22 20 18 19 19 20 22 25 27 29 30 31 34 37 38 37 35 34 37 40 41 43
33 30 24 28 37 29 34 35 30 29 25 25 24 23 22 21 21 22 22 22 21 19 19 19 19 21 22 24 26 28 32 34 36 38 37 31 32 37 39 41 42 43 45
24 22 21 22 43 34 30 24 28 26 21 22 22 22 20 20 19 21 21 22 21 20 20 22 22 21 23 27 29 32 34 35 36 37 37 40 43 41 42 42 43 43 37
20 19 19 15 24 26 25 21 21 20 21 22 22 22 22 20 21 23 23 22 21 22 21 23 24 25 27 30 34 36 35 37 38 39 42 42 40 41 43 43 42 37 33
21 18 18 18 22 22 22 22 21 22 26 26 25 27 23 22 23 23 23 24 24 23 24 27 30 31 33 35 37 36 36 37 36 38 37 40 42 45 46 43 38 34 34
20 22 23 21 20 23 17 22 24 26 26 23 27 25 20 20 21 23 25 25 25 27 29 31 34 35 35 37 40 38 40 38 36 38 38 42 46 47 44 39 36 38 40
25 23 24 23 21 25 23 25 25 31 25 22 25 25 24 20 21 27 26 27 29 30 32 36 37 35 38 40 41 41 42 39 38 40 43 46 46 44 41 39 41 44 43
29 29 28 30 27 27 26 27 28 25 21 22 23 22 20 22 27 29 30 32 32 33 35 37 38 38 39 38 38 36 35 36 40 45 47 48 45 42 40 44 46 46 48
31 32 33 32 30 30 25 25 24 22 20 22 22 22 27 27 29 31 32 34 34 37 39 39 39 36 38 39 36 34 37 40 44 47 47 46 43 44 47 47 48 51 55
22 31 28 27 27 28 25 25 22 22 24 24 25 27 27 28 29 31 33 34 35 37 39 36 40 39 38 38 37 37 40 44 47 49 46 44 44 47 48 49 54 55 57
11 11 12 16 17 20 22 24 26 27 26 26 22 30 29 30 31 33 35 37 39 39 40 40 40 39 37 39 39 41 44 47 49 47 47 46 50 52 54 56 58 60 64
13 15 17 17 19 23 25 28 26 27 28 26 26 27 27 30 32 35 37 39 38 37 39 39 36 37 39 39 41 44 47 49 50 50 50 52 56 55 57 60 61 63 67
16 16 17 17 20 21 23 22 23 26 26 26 27 30 32 32 35 37 38 39 39 41 39 40 38 40 40 42 45 47 50 51 52 54 56 58 60 59 61 64 64 66 69
17 17 17 19 21 22 22 23 26 28 29 31 32 34 36 37 41 43 40 40 43 43 42 41 42 42 43 45 48 50 51 52 55 57 60 62 63 64 67 67 67 70 73
19 20 22 23 23 25 23 25 28 30 31 33 37 41 44 47 45 41 36 42 44 45 44 42 43 44 44 47 48 51 55 57 59 59 60 62 64 66 68 67 70 74 77
25 26 27 26 27 26 31 37 34 36 33 39 37 43 41 46 52 40 40 43 45 44 44 44 46 46 49 51 52 56 58 60 61 60 61 63 65 66 65 70 73 76 77
26 29 32 33 34 33 31 33 39 45 47 54 53 41 42 40 44 43 41 42 44 47 46 46 48 49 52 53 56 57 60 61 61 62 64 64 64 66 71 73 77 78 79
24 29 26 30 35 39 35 37 34 31 38 41 48 41 38 36 41 43 44 46 49 49 49 50 52 52 55 57 58 61 63 65 66 66 65 67 70 73 75 79 78 79 79
20 21 29 29 24 36 39 39 27 28 27 33 39 40 38 41 47 47 49 51 52 52 53 53 56 56 57 59 61 64 66 67 64 67 68 70 73 76 80 81 79 80 80
25 24 24 23 22 32 31 32 33 33 32 34 36 37 40 43 47 48 53 54 54 54 55 56 57 58 60 61 64 68 71 64 68 71 71 75 78 81 82 81 82 82 83
26 28 27 25 26 25 28 32 33 32 35 38 39 41 43 44 46 53 54 55 54 55 56 56 57 59 61 64 68 70 70 68 71 73 76 78 82 84 83 83 83 84 85
29 30 31 31 30 30 31 33 35 39 40 41 44 45 48 49 53 52 53 54 55 55 56 58 60 60 64 66 70 71 69 72 73 79 81 81 87 85 85 85 85 85 87
31 30 31 32 33 32 34 37 40 44 46 46 46 46 50 57 58 55 54 55 55 57 58 60 62 64 68 70 68 70 73 76 79 82 85 86 87 84 83 84 85 87 89
32 32 32 33 34 37 39 40 43 45 46 45 42 48 61 63 59 57 56 57 58 60 61 65 65 65 66 70 74 76 80 81 84 84 86 87 84 83 82 83 86 88 89
35 36 36 36 37 40 42 42 44 45 45 48 54 56 62 59 58 58 58 60 62 60 58 59 62 68 73 77 81 84 84 85 86 87 84 84 82 84 83 83 85 88 85

GFSMA_500_spd_078.txt.gz
Wind_Speed
44 43 34 42 51 44 40 33 29 30 28 26 26 29 29 25 25 25 26 29 30 25 24 22 23 21 19 19 19 20 22 24 26 28 29 31 32 34 36 35 31 30 33
42 35 34 38 50 46 45 40 32 28 29 29 33 31 27 24 25 25 27 27 24 23 23 24 23 20 19 20 19 22 24 26 28 31 32 34 34 32 31 34 37 36 38
40 39 35 45 46 51 49 42 34 30 29 37 35 31 25 24 26 25 28 23 24 24 26 22 18 18 20 23 23 23 25 27 31 33 34 33 34 36 37 39 38 37 40
36 40 39 44 39 51 45 40 38 34 35 38 35 29 26 24 24 26 25 24 24 24 21 19 18 21 23 24 24 26 28 31 33 35 34 34 36 37 40 36 37 41 43
36 31 35 27 35 28 28 39 33 33 33 34 29 28 25 23 24 25 24 24 22 20 20 21 23 25 26 27 29 31 33 34 34 34 37 38 35 36 37 39 42 44 42
27 18 18 24 22 21 23 36 31 26 26 24 26 26 25 25 26 26 25 25 20 23 23 25 28 28 29 31 34 36 37 37 36 38 39 37 35 37 39 43 46 47 41
19 20 15 16 14 16 19 23 27 27 26 26 26 26 26 27 28 26 21 20 24 23 28 29 30 31 32 34 37 38 38 38 37 39 39 37 38 40 44 46 49 43 40
12 14 13 17 16 18 19 23 25 26 26 26 24 25 26 27 27 24 23 26 27 31 32 32 31 34 36 38 40 39 39 39 40 39 37 35 38 43 46 49 46 41 43
15 16 19 20 19 22 22 26 26 26 28 24 24 25 24 23 25 25 25 27 34 34 33 33 35 37 40 42 40 40 40 41 39 36 36 39 43 44 47 45 42 42 47
17 19 23 25 25 24 24 27 27 27 27 24 25 24 24 22 23 21 27 32 34 35 35 37 39 39 42 42 42 42 42 40 36 37 40 43 45 46 46 47 49 48 51
21 23 29 31 31 29 28 29 30 27 25 24 24 25 27 24 25 32 31 31 34 35 37 37 39 43 44 43 44 44 43 41 39 41 43 44 46 47 49 51 53 56 59
24 23 22 25 25 24 24 25 26 23 21 24 22 25 26 26 29 33 34 34 35 38 40 38 45 44 44 46 46 46 44 41 42 45 45 46 48 51 53 55 58 61 63
14 15 15 15 15 14 15 18 18 18 25 24 26 27 30 26 34 33 35 35 31 45 44 41 45 45 47 46 44 43 44 45 46 48 49 50 51 54 57 60 60 61 63
13 14 14 14 13 12 14 16 20 22 25 27 26 27 29 32 34 35 36 36 37 46 46 47 44 45 44 46 46 47 47 49 50 51 52 52 56 58 60 61 60 63 64
16 17 17 18 19 19 18 19 19 22 28 28 30 32 34 35 37 40 40 38 46 48 50 47 43 44 49 50 49 50 52 51 53 53 55 56 59 62 63 63 64 64 64
16 17 19 21 23 22 21 23 24 26 27 28 33 37 39 38 39 42 44 49 54 57 57 50 44 47 52 52 50 51 54 55 55 56 58 61 63 65 66 68 66 66 68
18 20 23 24 24 26 27 28 28 30 32 36 38 40 44 42 42 41 46 46 54 58 56 46 48 47 50 52 54 54 56 57 58 59 62 64 67 69 72 70 68 69 69
18 19 22 27 30 31 31 31 35 36 40 38 37 41 50 51 54 47 39 41 42 44 46 48 48 50 53 56 55 57 57 59 60 62 65 68 68 71 69 69 71 73 72
22 23 23 25 33 35 34 36 42 43 44 45 44 42 45 45 53 48 44 36 45 46 48 50 52 57 58 59 59 59 60 62 63 64 66 68 71 73 71 71 73 74 79
25 25 25 25 24 33 34 38 41 44 42 39 39 40 36 35 44 47 50 45 43 45 50 53 57 62 61 61 61 62 62 63 64 66 67 71 72 71 71 76 79 80 82
26 30 29 27 27 27 30 35 32 38 38 37 41 39 36 37 40 43 47 47 48 48 46 56 63 62 63 62 61 62 63 64 66 68 71 72 73 74 79 82 83 84 84
33 31 31 31 31 29 29 30 32 31 34 35 38 39 39 40 43 45 48 52 51 50 55 61 60 61 62 62 62 64 65 65 66 68 68 71 75 79 84 83 85 86 87
37 34 33 34 32 32 31 32 34 34 36 38 39 41 42 45 48 49 51 53 53 54 61 63 62 63 63 64 64 66 67 67 66 69 72 76 80 83 85 87 86 87 86
33 34 33 33 34 35 35 37 37 37 39 40 41 43 46 48 50 50 51 54 52 61 65 66 64 63 64 64 63 63 65 68 72 76 80 81 85 85 87 87 88 87 85
32 31 33 36 37 37 38 40 41 42 44 44 46 48 49 50 52 48 46 51 66 68 67 68 67 66 64 64 66 70 73 77 78 81 84 88 90 89 88 88 87 84 82
35 36 37 38 40 40 42 43 45 47 48 49 50 51 51 54 52 55 61 61 69 68 70 70 68 66 69 73 75 78 80 81 83 84 89 89 90 92 91 85 81 81 83

GFSMA_500_spd_081.txt.gz
Wind_Speed
33 30 40 37 37 40 47 42 39 37 35 31 28 26 24 25 27 27 25 23 23 24 24 23 22 23 19 21 19 19 18 20 21 23 25 27 29 30 32 32 33 33 32
51 42 49 48 41 34 46 46 41 37 35 32 33 29 27 27 28 27 26 26 25 26 25 25 23 24 21 20 19 18 21 22 22 25 27 28 31 33 34 34 35 34 35
40 48 49 43 36 35 35 48 44 38 37 32 31 31 32 31 29 28 28 27 26 26 25 24 22 23 20 18 18 22 22 23 24 25 28 31 34 35 35 36 34 34 33
45 51 40 41 43 40 40 48 50 46 43 36 35 34 33 32 32 31 31 29 29 27 25 23 23 18 21 19 23 23 24 25 27 29 32 34 35 35 37 35 32 32 35
39 41 31 36 44 36 42 38 48 51 47 38 38 37 35 35 32 33 30 30 28 25 23 21 19 24 20 22 25 26 27 28 32 33 33 35 37 36 36 33 32 33 38
39 38 42 34 33 37 38 33 35 43 39 42 38 33 33 30 29 29 28 27 26 24 22 23 24 24 20 25 29 28 31 34 34 36 35 37 38 36 37 33 33 37 42
27 26 24 24 23 24 26 28 33 33 34 31 26 25 25 26 28 27 26 27 27 27 29 26 26 22 28 28 30 32 33 35 35 37 37 37 38 36 36 36 38 41 43
14 19 17 15 17 15 16 22 20 24 27 26 25 26 23 25 24 25 26 26 25 26 25 23 24 26 30 33 33 36 36 38 37 36 37 38 39 36 37 40 43 44 46
14 12 15 11 10 14 18 19 21 22 22 25 26 24 22 20 20 20 23 25 24 24 25 25 27 31 34 35 37 38 39 39 40 41 40 38 37 38 39 41 42 43 45
10 11 13 13 14 16 15 17 18 23 23 24 26 24 23 21 19 18 17 18 24 26 29 29 30 33 36 38 40 40 41 44 42 44 43 43 43 44 44 47 48 50 52
15 17 16 17 18 21 22 21 20 20 23 26 24 22 23 24 22 22 22 22 24 27 30 32 33 33 37 38 40 44 47 46 46 45 45 45 45 46 49 51 52 52 53
18 20 20 19 20 19 23 23 21 21 22 18 19 18 20 24 25 26 26 28 26 31 34 33 35 36 36 40 44 48 48 47 46 48 46 47 47 49 52 53 55 55 56
13 11 10 14 14 17 21 19 17 20 16 16 19 19 22 23 27 28 29 29 32 33 34 36 37 38 41 42 46 50 49 46 48 50 50 51 53 54 56 58 58 59 61
8 8 9 10 11 10 11 12 18 18 18 20 20 23 24 24 29 32 35 33 32 36 38 38 45 48 46 45 50 51 45 49 49 51 53 55 56 57 59 60 60 62 64
14 14 12 13 14 14 15 14 16 16 17 18 20 24 29 30 31 32 34 38 40 39 40 45 49 52 50 55 59 49 49 47 50 52 53 56 58 60 60 61 62 65 66
14 16 16 18 19 20 20 20 21 21 22 21 23 26 29 31 34 39 41 42 42 45 47 46 46 51 57 58 48 47 48 48 50 51 54 58 60 61 61 63 66 67 69
14 16 18 22 22 22 24 25 24 25 26 26 27 28 31 34 38 41 43 43 48 50 49 53 48 46 45 44 49 50 51 50 53 55 56 60 61 62 63 65 66 68 72
16 18 18 20 21 24 28 28 29 29 30 31 33 35 37 41 40 41 44 48 50 53 52 54 44 47 42 48 50 49 50 58 59 60 60 62 63 65 66 66 67 70 75
19 18 19 19 23 24 26 33 35 35 33 36 42 44 46 47 45 39 43 44 45 49 50 43 44 49 46 49 53 55 60 63 63 63 63 64 65 67 68 69 69 73 73
24 24 23 23 22 25 27 27 30 37 36 42 43 44 45 43 40 42 40 42 42 38 43 53 57 50 49 46 49 57 62 63 64 64 65 66 68 68 68 71 72 73 75
29 32 32 31 29 28 28 27 29 29 38 34 34 38 40 39 40 40 40 42 45 46 47 50 50 54 56 52 54 56 59 63 65 66 66 68 68 67 66 68 74 78 80
33 39 40 37 36 33 30 31 33 33 35 33 34 32 34 38 42 42 43 46 48 49 51 53 45 64 62 62 66 63 64 63 64 68 69 68 67 69 73 78 81 83 83
42 42 40 41 40 38 34 33 36 38 37 35 35 37 37 40 44 46 48 49 47 59 56 56 56 59 58 63 61 71 68 68 69 70 71 73 75 77 80 84 85 85 87
41 40 39 40 41 40 37 33 38 41 39 38 40 42 43 45 47 50 52 55 54 60 58 58 58 59 67 61 77 77 72 73 72 74 78 78 82 83 86 86 87 89 90
37 33 36 37 37 36 38 38 41 44 43 44 45 46 48 51 54 56 57 58 59 59 58 56 60 68 72 70 78 79 79 76 77 80 82 84 86 87 87 87 89 93 94
39 38 37 36 37 37 40 41 44 45 47 50 51 52 53 56 58 59 60 61 60 60 57 65 62 64 61 75 81 84 80 80 82 83 86 89 90 90 87 90 94 95 93

GFSMA_500_spd_084.txt.gz
Wind_Speed
30 22 29 33 35 31 31 39 40 37 37 36 32 29 29 23 23 24 24 24 21 19 19 22 22 23 22 21 21 17 16 17 16 16 19 21 22 24 24 26 28 29 30
30 30 34 41 37 37 35 33 40 39 39 40 34 32 29 25 27 24 26 24 23 22 23 23 22 24 21 20 19 16 16 17 17 18 20 21 23 24 26 28 29 29 30
34 34 34 41 38 37 37 38 43 44 41 43 37 33 32 28 31 31 28 27 25 23 23 24 23 25 22 20 19 18 16 18 17 19 20 22 25 28 29 31 30 30 31
30 34 41 44 40 39 46 38 35 49 46 45 38 38 34 32 28 32 29 30 28 25 22 23 24 21 20 22 19 20 19 18 21 20 21 25 28 30 33 33 32 31 30
23 33 48 51 51 44 42 45 39 39 40 49 42 42 40 35 33 31 29 28 28 25 24 23 23 22 23 21 21 19 21 22 22 22 25 27 31 33 34 33 32 32 31
20 24 28 28 40 37 41 40 38 39 39 43 49 45 45 40 36 30 26 25 26 25 23 22 23 24 22 25 20 22 23 23 25 26 28 31 33 32 33 34 34 34 32
22 16 23 27 33 37 34 38 38 39 34 34 42 43 43 35 29 23 22 23 23 21 22 24 24 25 25 19 20 22 25 26 28 30 31 32 34 36 36 36 36 34 35
19 23 33 35 36 33 32 32 34 30 21 26 30 33 27 26 23 21 22 21 21 20 21 21 24 24 21 22 25 25 27 29 30 32 34 36 37 40 40 38 39 39 40
15 21 27 28 29 26 24 20 18 16 23 28 29 27 25 24 22 18 20 17 18 18 19 20 22 23 24 27 29 29 30 31 33 32 35 34 35 39 37 40 41 42 44
12 14 18 14 11 13 7 7 10 16 20 24 22 23 23 18 13 16 16 15 13 16 19 22 22 24 25 27 28 30 31 34 34 34 39 39 42 40 39 40 42 45 46
12 10 9 4 7 8 9 9 12 13 12 16 18 19 19 17 22 25 17 14 16 18 19 21 24 26 27 27 29 31 31 33 36 39 42 37 42 44 42 44 43 46 49
12 15 13 14 12 14 13 15 15 16 18 20 20 18 19 17 18 20 21 20 24 25 24 25 25 27 29 30 30 33 34 36 39 40 42 42 43 45 46 46 46 48 52
20 18 18 19 19 18 18 17 16 19 21 19 14 17 21 20 17 19 21 25 26 26 28 27 30 32 34 36 37 40 43 41 42 45 50 42 43 45 47 49 51 51 53
14 14 13 14 13 12 14 19 22 22 22 21 19 19 21 21 21 23 23 27 29 30 32 32 34 38 39 42 42 43 47 49 48 52 42 43 44 47 49 50 52 53 55
7 9 10 11 13 14 16 17 16 17 20 20 20 22 23 25 24 23 26 30 30 31 32 34 38 42 44 46 44 44 44 45 42 41 45 43 45 49 52 53 55 56 58
8 9 11 13 14 13 14 14 15 17 17 18 20 24 24 24 27 30 31 31 33 38 39 36 39 42 49 51 48 47 42 37 39 45 46 42 47 51 53 54 56 58 61
12 12 13 15 14 16 17 15 19 20 20 22 26 27 25 26 28 29 32 32 36 37 40 41 42 46 49 49 50 46 41 43 47 49 46 46 51 55 55 57 58 59 62
15 17 16 15 17 16 17 17 21 24 23 24 24 26 25 30 32 34 36 39 43 44 44 41 42 42 43 49 45 45 45 50 48 49 48 49 51 52 54 58 59 63 66
16 16 16 17 17 18 18 20 22 23 26 31 31 32 31 32 34 38 44 48 49 46 43 44 41 38 39 34 44 48 50 55 53 53 49 50 53 55 58 61 63 65 66
20 20 21 21 21 21 21 22 24 27 28 29 34 38 36 35 37 37 43 45 45 46 47 44 43 41 40 43 48 54 59 57 57 59 59 62 66 66 65 67 66 66 68
24 25 26 26 26 27 29 29 28 29 32 33 33 34 37 39 37 38 39 43 41 44 47 47 43 47 47 51 52 52 52 61 66 66 62 63 64 68 73 70 67 68 71
27 29 29 31 34 36 34 34 35 34 35 35 34 33 36 36 38 41 39 39 42 45 47 48 49 46 50 48 55 57 59 60 59 70 66 66 69 74 74 73 72 74 76
32 32 34 36 38 41 37 35 38 41 40 39 38 37 38 38 41 44 44 45 47 47 51 52 51 51 52 63 65 59 60 57 68 71 73 73 80 78 78 76 78 79 82
36 37 36 38 39 40 38 37 39 43 44 42 42 40 41 42 45 47 49 49 49 53 55 55 54 59 61 64 63 62 60 66 63 67 79 82 81 81 82 80 82 84 86
38 40 40 39 40 38 40 38 38 40 42 44 45 46 47 48 49 51 52 53 54 56 59 59 60 62 62 67 66 62 62 74 76 71 73 81 83 89 85 83 86 86 86
47 43 41 39 37 39 37 37 40 41 44 45 46 48 49 50 52 54 56 58 58 60 62 64 65 67 65 69 71 66 70 65 68 68 73 82 88 88 85 85 88 88 91

GFSMA_500_spd_087.txt.gz
Wind_Speed
22 26 20 30 26 29 37 35 32 37 41 42 38 28 29 27 23 21 21 21 19 21 19 17 16 18 19 19 18 18 18 18 16 19 17 15 18 17 17 18 19 21 23
21 25 25 26 30 26 31 33 38 37 41 43 38 29 32 30 25 23 24 21 19 18 19 19 18 19 18 20 19 19 20 17 18 16 16 18 17 17 19 20 22 25 27
23 28 27 27 30 36 33 30 28 32 33 39 36 32 33 34 28 26 25 25 24 22 21 19 20 19 20 20 20 21 22 20 20 19 18 19 19 18 20 23 26 27 28
27 29 32 37 36 36 34 33 32 30 33 38 39 35 36 39 35 29 29 29 26 24 22 21 21 20 21 23 24 22 23 22 22 18 19 22 19 20 23 26 28 28 27
28 26 33 37 38 36 39 37 35 36 35 38 38 44 40 41 40 34 32 29 25 26 22 22 21 21 23 24 25 25 24 24 20 20 22 21 22 23 25 26 28 29 28
29 24 28 33 36 37 40 36 38 38 43 37 34 39 47 45 45 39 37 32 31 26 22 22 22 22 24 25 27 25 25 21 21 21 22 24 24 26 26 28 29 30 31
29 22 20 25 38 44 44 43 47 38 35 39 36 33 39 37 49 46 39 32 28 24 21 22 21 21 23 25 23 27 25 24 23 24 25 26 27 28 31 31 31 33 32
26 22 25 30 29 39 47 35 37 28 35 35 31 33 27 30 38 32 28 29 24 24 22 20 20 20 22 25 28 27 23 24 26 25 26 28 29 30 30 33 35 32 34
25 14 21 25 31 34 26 28 32 37 38 37 33 27 25 25 27 26 25 23 21 21 21 18 18 20 22 26 25 24 26 27 26 27 28 30 30 30 33 36 37 37 39
12 11 20 29 30 33 35 36 34 36 33 27 24 26 24 26 21 22 20 18 16 19 18 18 21 23 22 22 21 25 28 29 29 29 30 31 29 30 30 36 37 36 37
11 9 11 14 15 21 21 13 16 18 16 13 16 19 18 21 21 20 19 18 13 17 15 16 17 18 20 21 24 27 30 31 31 31 31 33 31 32 37 40 39 36 35
8 10 10 9 5 9 11 11 14 16 17 15 16 15 18 19 22 22 24 25 19 20 18 19 20 20 23 23 23 26 29 33 34 35 38 38 40 39 38 38 40 37 38
16 13 14 18 17 19 21 22 22 21 19 19 19 19 23 22 24 22 21 23 22 22 22 23 26 24 25 28 28 30 32 35 38 39 41 42 42 40 39 41 39 39 40
15 17 18 19 21 20 23 23 23 23 23 22 23 25 24 21 20 20 21 19 19 20 21 24 29 30 32 33 34 35 35 39 40 41 43 45 41 38 39 38 38 40 42
5 6 8 10 11 14 16 16 16 18 19 21 24 26 23 22 23 23 26 23 24 25 27 26 27 30 34 38 38 37 39 44 48 45 44 43 38 39 42 43 44 45 45
5 7 8 9 11 12 13 14 14 15 16 15 21 25 26 25 27 27 29 27 28 31 31 28 31 31 37 42 42 42 45 48 46 47 46 41 40 45 46 49 47 45 44
7 8 8 9 10 13 14 16 17 17 17 19 21 23 26 29 28 29 32 33 32 33 36 33 36 37 38 40 42 45 46 44 45 44 43 44 45 45 46 47 49 49 50
9 10 11 11 11 14 14 15 17 19 17 18 21 24 26 31 33 32 34 34 35 37 39 43 44 43 41 42 43 43 41 35 35 37 43 50 52 53 52 53 55 57 60
14 14 13 14 13 13 13 15 16 18 20 20 22 26 29 32 30 32 34 37 36 41 46 49 50 51 46 45 45 44 38 37 39 42 47 51 54 53 54 62 64 63 62
17 17 18 18 17 17 17 18 19 21 23 24 25 26 26 28 33 37 38 36 37 38 39 41 43 49 42 41 46 45 42 43 44 49 47 48 53 56 61 58 67 72 71
22 22 22 20 21 22 23 24 27 28 29 30 32 32 31 31 28 35 40 41 42 41 41 41 42 47 44 44 49 47 44 44 50 50 57 57 54 61 59 65 71 74 76
26 25 26 26 25 25 27 30 32 34 35 37 37 37 37 37 36 36 39 40 41 41 44 47 46 47 47 48 50 49 47 49 52 59 62 61 59 60 66 64 71 73 79
31 28 31 30 30 29 29 31 34 36 36 36 38 40 40 40 40 41 43 45 46 45 46 49 50 50 50 50 50 53 52 50 59 57 58 63 66 63 68 72 80 77 74
33 34 35 37 37 32 33 34 35 38 36 35 37 38 41 43 43 46 48 48 50 50 52 52 53 53 52 54 56 56 55 61 61 59 63 69 68 67 70 73 75 82 86
39 36 37 38 40 40 38 36 38 40 37 35 36 37 39 40 42 45 48 51 53 53 54 56 57 57 55 60 58 61 61 65 70 54 68 73 67 69 71 74 75 79 81
45 43 43 42 44 42 46 43 44 45 43 38 38 40 42 43 43 45 47 50 54 55 57 59 60 60 61 60 61 61 68 68 70 70 71 73 69 77 75 76 79 81 83

GFSMA_500_spd_090.txt.gz
Wind_Speed
32 37 33 27 33 32 28 33 34 34 27 27 28 31 34 27 27 22 18 17 17 17 17 20 18 17 18 19 19 21 21 20 20 20 19 21 21 18 15 17 17 18 20
16 20 27 23 24 29 30 32 34 34 33 30 27 34 37 32 29 25 20 19 18 19 17 17 19 19 17 19 21 23 23 23 23 23 22 23 17 17 16 18 18 21 23
16 21 25 27 23 30 27 28 31 33 33 32 29 31 38 34 32 29 27 24 21 23 23 21 22 22 22 21 23 25 26 25 24 24 22 22 21 18 21 19 21 21 24
18 18 22 22 28 27 32 31 28 28 35 34 29 30 34 36 35 33 31 29 29 26 26 26 25 24 24 23 25 26 27 26 26 26 23 20 19 22 22 22 21 22 24
20 24 27 28 28 29 30 31 34 33 34 27 22 26 34 37 37 36 36 34 33 29 26 25 27 26 26 26 27 28 28 28 27 26 24 20 24 26 24 23 23 24 26
25 26 28 30 29 32 31 36 36 38 38 34 27 30 34 37 38 43 41 39 40 34 32 30 30 27 26 28 28 30 28 27 28 28 25 24 26 26 25 25 26 27 29
26 26 27 27 26 29 29 33 36 39 39 36 32 39 38 40 32 35 47 45 42 39 34 33 30 26 26 27 28 28 29 31 29 29 24 25 25 26 27 28 26 28 28
22 27 28 28 24 22 25 32 33 40 36 39 39 30 30 32 31 29 28 41 31 29 32 35 29 26 24 25 26 27 29 29 31 30 25 27 27 28 29 28 28 29 27
19 21 22 25 28 22 23 24 36 38 39 43 39 34 36 28 32 31 26 25 29 31 35 31 28 25 24 24 26 28 31 34 31 24 28 32 31 30 31 31 30 27 32
16 19 23 26 19 20 20 30 35 35 34 31 35 37 36 33 32 27 25 24 24 28 28 25 26 26 24 25 28 28 31 24 26 30 32 32 32 32 32 33 33 30 36
13 16 22 24 30 34 27 32 35 30 34 35 37 40 39 34 28 24 23 24 25 25 24 25 26 25 23 25 23 24 26 27 30 32 32 30 33 35 35 38 38 40 40
10 11 11 14 24 26 27 31 29 26 26 29 27 25 24 21 21 25 25 26 26 24 23 22 23 24 23 23 24 26 27 26 28 32 33 34 37 37 39 39 39 42 43
9 5 11 11 10 13 15 17 17 17 18 22 23 24 22 23 25 27 28 29 26 28 23 23 23 24 25 27 27 28 28 28 30 35 36 37 38 41 42 42 45 43 39
5 10 11 11 9 14 15 18 19 21 21 24 25 26 27 26 27 29 29 28 26 27 27 26 23 23 26 30 32 31 31 32 34 37 38 39 42 44 45 45 44 41 42
1 3 6 7 9 10 12 17 22 22 25 26 27 27 27 27 29 30 30 26 26 26 24 26 25 25 30 32 29 31 34 38 39 41 43 45 48 48 44 45 47 45 45
3 5 6 7 8 10 10 11 13 16 15 17 21 24 27 29 30 31 30 30 31 31 29 30 30 32 36 35 34 36 36 37 40 43 46 46 47 44 45 48 46 44 45
7 8 9 10 11 12 12 12 15 17 18 18 20 21 24 29 31 31 31 33 34 35 36 32 34 36 39 39 40 39 41 41 40 44 46 45 43 40 40 45 50 53 54
10 11 12 16 15 15 14 15 15 17 19 21 22 23 22 27 31 31 33 34 36 38 42 41 41 41 42 42 45 48 50 48 47 47 48 43 39 39 42 46 51 50 50
16 14 15 16 17 18 17 18 18 18 18 21 24 24 25 29 29 31 34 36 39 42 45 46 43 45 45 49 51 53 53 51 45 45 44 45 43 42 47 49 50 54 52
18 19 18 19 17 17 19 20 21 21 20 20 23 26 29 30 30 35 39 41 42 45 46 48 49 47 47 45 45 45 49 46 45 49 46 48 46 47 50 51 59 55 50
25 24 22 22 24 23 22 24 25 27 28 29 30 29 31 33 34 35 37 36 38 42 49 52 51 51 50 45 47 47 46 45 47 50 48 48 48 46 50 54 54 58 55
30 30 28 27 28 29 27 29 30 31 32 31 30 31 33 37 38 39 41 41 42 45 44 47 48 47 48 48 47 49 48 50 51 50 49 53 51 50 58 59 58 62 68
35 34 34 34 32 33 33 34 34 35 36 35 34 34 34 35 38 41 42 46 49 48 47 47 49 49 50 49 50 51 54 53 55 56 54 56 55 56 58 59 67 64 66
39 39 39 37 37 36 36 38 40 42 42 39 39 38 38 37 38 39 44 47 50 51 51 50 50 52 52 53 56 54 58 57 57 59 59 61 61 67 65 64 64 70 73
41 42 41 42 42 41 41 43 46 46 47 45 45 46 43 39 39 42 46 47 47 49 50 52 54 55 56 53 64 58 58 59 60 59 67 69 61 63 69 71 68 68 76
47 47 49 46 46 47 47 46 47 49 48 48 47 46 48 53 50 46 46 47 48 49 52 55 57 58 59 57 56 57 60 56 58 63 64 68 71 70 73 72 74 81 82

GFSMA_500_spd_093.txt.gz
Wind_Speed
10 25 40 37 40 40 29 33 27 27 27 34 36 33 26 25 28 27 23 19 19 18 16 15 18 17 17 18 20 22 24 26 27 25 23 22 21 21 22 21 18 18 18
16 32 38 38 34 33 30 30 28 28 28 24 31 33 29 29 27 29 25 22 21 21 18 19 19 18 18 20 22 25 26 27 28 26 24 24 24 23 21 18 16 18 19
12 18 32 35 27 32 31 35 28 23 29 29 28 31 31 31 29 32 27 28 27 24 24 23 22 21 20 21 24 27 29 28 28 28 26 25 25 23 22 18 19 21 22
14 13 14 26 24 21 19 26 28 22 25 29 31 34 32 30 30 32 31 33 32 27 26 26 26 26 26 25 26 30 30 29 29 29 28 27 27 26 26 25 24 23 22
15 15 13 13 18 25 21 22 31 25 20 28 32 34 34 34 32 30 38 34 38 33 31 31 29 30 29 28 30 30 30 29 29 30 29 31 28 27 25 26 26 24 24
18 18 17 21 23 24 25 24 26 30 28 32 30 32 34 30 27 27 33 38 39 39 39 37 34 32 30 30 31 31 31 30 30 30 34 32 30 31 28 30 29 27 26
24 23 24 21 31 32 27 29 30 29 34 34 36 35 32 30 29 28 31 38 42 48 45 40 39 40 36 33 32 32 32 31 33 32 32 34 32 31 33 30 30 29 28
24 25 25 33 33 32 27 28 33 32 37 35 37 36 35 34 33 33 31 27 32 31 37 38 37 37 39 36 35 33 32 32 32 32 37 33 36 37 30 30 32 31 31
20 19 27 32 40 29 32 29 23 29 35 34 38 37 35 34 38 34 32 33 33 30 32 37 34 35 38 37 34 33 33 33 32 35 34 37 36 35 32 34 35 35 33
19 20 24 28 34 32 29 36 37 33 33 31 40 38 32 30 36 36 35 34 33 30 29 32 36 35 36 35 34 31 31 30 32 34 37 40 29 31 35 37 36 34 32
17 19 18 24 27 28 32 25 21 24 28 29 30 31 30 34 41 39 37 36 32 28 30 30 30 33 34 35 34 30 31 32 31 29 27 29 33 37 38 36 34 38 40
16 14 14 20 27 36 34 33 31 30 29 33 32 31 37 40 39 40 36 34 27 28 30 31 34 34 32 33 31 30 31 30 29 30 30 32 34 34 36 36 37 40 43
10 4 10 12 21 35 25 24 32 38 36 34 34 37 37 35 32 32 30 29 27 28 29 30 26 27 27 25 27 29 26 26 28 30 32 33 33 36 37 40 42 44 47
5 11 8 7 6 6 12 17 21 24 20 19 20 23 26 28 28 28 28 29 30 31 30 26 25 22 24 27 29 31 31 33 35 34 34 37 38 40 40 42 45 48 50
1 4 6 6 7 7 8 12 15 19 19 20 22 25 28 28 28 30 29 30 32 34 31 30 30 33 34 33 28 28 31 35 34 34 37 39 41 43 44 46 50 51 50
7 3 2 4 6 7 9 10 11 12 11 14 18 20 24 28 30 31 32 33 33 35 35 32 30 32 35 34 31 36 38 39 39 37 38 40 39 41 44 46 46 45 43
11 11 8 8 10 10 10 12 13 14 14 17 18 17 20 25 28 30 32 32 33 34 38 34 36 36 39 40 39 41 42 43 42 44 46 48 50 50 49 48 46 42 40
12 13 14 15 15 14 14 15 17 17 18 19 20 21 21 24 25 27 28 31 34 36 38 37 39 41 43 43 43 44 44 45 46 48 51 55 57 53 49 44 44 43 45
18 18 18 19 18 17 20 21 21 21 22 22 23 24 25 27 25 28 30 33 36 39 42 45 41 44 45 47 49 49 46 49 53 55 56 53 50 48 45 48 47 47 49
22 22 22 23 23 20 20 22 25 26 27 28 28 27 27 27 27 30 33 35 40 42 44 47 48 47 48 50 51 49 48 50 51 51 48 48 48 48 50 54 53 50 53
29 28 27 26 25 25 25 25 26 28 30 31 31 32 33 33 32 34 37 37 40 44 46 48 50 50 51 52 52 52 56 55 57 51 49 48 49 49 51 54 54 54 57
36 35 33 32 32 29 28 31 34 35 35 35 33 35 36 38 36 39 41 43 46 50 52 52 53 53 51 50 49 47 52 53 51 52 52 54 53 53 54 57 59 60 59
37 36 37 37 34 34 35 36 37 39 41 41 41 39 38 38 38 38 41 44 47 49 51 52 53 55 54 52 53 53 53 54 55 56 57 55 58 59 57 61 61 63 70
37 35 37 35 40 41 40 41 42 46 47 46 45 44 45 44 44 43 43 45 45 48 50 52 53 52 54 56 56 57 57 57 58 62 61 64 60 63 62 63 64 72 69
43 42 43 43 46 46 46 46 48 48 50 48 49 51 52 52 50 51 53 52 53 52 50 50 52 53 55 54 54 55 58 59 60 60 64 69 66 67 71 68 69 70 72
42 43 48 50 53 52 54 53 52 53 52 49 51 53 56 57 56 54 57 57 57 58 57 55 56 58 56 55 55 55 57 61 61 64 68 70 73 76 74 78 77 77 74

GFSMA_500_spd_096.txt.gz
Wind_Speed
29 24 26 33 37 39 40 34 30 25 29 26 24 27 29 32 32 37 28 22 20 18 19 19 18 20 17 16 15 17 20 21 23 26 27 28 27 26 25 24 23 24 20
25 14 16 30 36 38 40 41 29 25 31 31 27 28 32 31 30 26 26 25 24 20 22 22 20 20 22 23 23 23 23 23 24 27 29 30 28 27 26 26 23 24 21
21 10 14 28 39 38 38 37 27 29 29 30 28 23 38 37 27 26 26 30 30 24 25 26 23 23 24 23 23 23 24 24 27 29 31 32 30 29 27 26 25 21 23
18 20 11 27 41 37 33 29 26 31 30 30 33 28 26 34 29 29 29 29 36 30 27 27 28 28 26 26 26 25 26 28 29 31 32 33 31 30 28 26 25 25 28
18 16 13 20 30 32 31 27 25 32 31 28 31 32 29 27 29 31 32 29 33 38 30 31 32 30 29 29 30 31 31 31 33 34 34 33 33 32 28 27 27 26 26
22 18 16 11 24 36 27 25 19 23 24 27 30 30 32 32 32 34 33 31 33 37 41 36 37 38 34 33 33 33 33 34 34 35 36 34 33 33 31 31 29 28 29
22 22 19 15 22 13 22 22 22 24 26 29 28 30 30 32 34 33 33 30 27 30 34 42 41 44 42 38 37 37 39 37 37 37 37 36 33 34 34 30 34 34 34
19 24 22 21 20 25 28 23 21 25 26 31 33 35 34 34 33 32 30 29 29 27 26 37 37 36 40 38 39 40 40 40 40 39 38 37 38 33 37 34 34 38 34
15 20 22 23 29 34 32 32 28 27 23 32 34 36 37 38 39 36 34 33 32 30 31 34 38 37 39 42 44 43 44 45 43 39 38 37 33 33 38 35 38 38 34
15 18 22 27 28 33 34 35 36 33 25 23 24 31 36 39 40 38 32 33 34 36 37 38 37 37 39 43 43 42 41 43 42 40 36 37 34 36 38 36 36 33 36
13 17 21 24 24 31 38 32 30 30 31 31 30 27 29 33 38 30 32 34 36 40 39 38 37 37 39 41 39 36 38 41 40 37 36 33 33 36 36 29 29 33 39
12 15 20 23 24 26 36 41 35 28 21 25 29 27 24 25 29 33 34 38 40 38 39 39 36 35 37 37 35 36 38 38 38 39 33 30 29 29 28 32 35 36 38
12 12 13 18 17 24 30 30 28 30 35 27 36 29 27 31 31 36 38 40 36 39 38 34 34 34 35 34 35 36 38 39 37 31 29 28 29 30 32 33 34 37 41
10 11 12 5 5 5 28 31 27 28 29 31 36 33 37 38 38 37 38 31 31 34 33 30 29 27 28 29 28 28 28 23 25 26 28 31 33 36 36 37 40 41 42
8 7 13 13 9 7 6 6 11 19 20 18 21 23 23 21 24 27 26 27 28 30 30 30 30 30 30 30 28 28 26 30 32 31 32 35 38 37 39 39 39 38 39
8 8 6 6 7 8 9 10 12 12 14 18 21 25 26 26 26 24 26 27 27 29 31 31 33 33 33 32 31 34 36 38 36 36 39 38 40 42 43 42 42 44 48
10 9 10 10 9 9 8 8 9 11 14 18 21 20 19 19 20 22 25 27 28 29 30 32 35 36 39 37 37 42 41 43 42 42 42 43 45 47 48 48 51 52 55
13 12 13 13 12 12 12 13 13 15 16 17 18 18 20 21 21 22 24 26 27 29 32 30 34 36 39 41 42 44 44 45 47 47 47 49 49 50 51 53 56 55 53
19 17 16 16 16 17 18 18 18 19 20 20 21 22 23 23 24 24 25 26 28 31 34 36 35 39 42 44 46 48 48 49 50 52 54 54 54 54 53 52 50 47 48
26 24 23 22 21 20 20 23 23 23 24 25 26 25 25 25 26 29 31 31 33 35 36 39 39 39 42 43 47 47 48 51 52 54 57 58 59 57 54 56 52 49 50
29 29 28 28 27 25 27 28 27 26 28 29 29 30 31 32 32 33 34 33 37 41 42 45 47 46 45 46 45 45 49 50 53 55 58 60 61 61 58 58 56 55 54
33 33 32 32 32 32 32 34 34 34 34 34 34 35 36 36 35 37 39 39 42 41 41 44 46 47 48 50 51 53 54 54 54 51 55 56 56 60 60 58 58 59 58
37 36 37 37 36 38 38 38 39 39 40 39 39 40 42 42 42 43 41 43 44 45 46 46 48 47 46 46 50 53 54 55 56 58 60 59 58 59 61 62 62 60 67
38 38 40 40 37 34 36 37 37 40 42 44 45 44 45 45 47 47 48 49 49 50 51 54 53 54 53 52 50 50 52 55 57 58 58 60 62 65 65 65 65 66 64
41 43 45 43 43 44 42 42 44 46 49 48 48 48 49 50 51 51 51 53 54 55 56 57 60 59 59 58 58 57 56 55 56 57 58 59 59 62 65 64 64 67 69
48 49 50 49 45 47 48 48 48 50 55 56 59 59 48 47 56 53 57 55 55 60 63 63 64 67 64 65 66 64 67 66 62 61 63 67 67 68 70 75 74 77 80

GFSMA_500_spd_099.txt.gz
Wind_Speed
23 24 26 31 27 27 33 30 29 31 28 27 26 27 26 25 26 30 32 33 23 20 17 19 19 19 19 19 19 18 20 21 20 22 24 26 26 26 27 27 25 25 24
23 22 27 28 23 35 35 35 34 31 25 28 25 27 28 27 27 29 31 29 28 28 21 21 22 22 20 25 21 21 21 24 25 25 26 26 27 28 28 28 27 26 26
24 22 21 20 24 29 33 44 40 40 29 33 28 28 28 27 28 30 26 23 25 25 25 25 26 24 22 23 25 26 25 26 28 28 28 28 30 30 30 30 29 27 27
25 21 17 19 19 31 37 39 39 36 32 28 29 30 29 29 28 36 27 24 30 25 31 30 29 28 26 27 27 27 28 28 29 30 31 31 32 33 32 32 31 28 26
22 20 16 19 13 30 35 39 46 40 32 28 28 29 33 31 30 32 36 31 29 28 31 35 31 29 30 30 31 31 32 33 32 33 34 34 34 35 34 34 32 30 27
20 18 17 15 7 33 34 37 44 35 31 33 35 31 34 34 32 30 32 29 28 27 30 35 37 35 32 34 34 35 36 35 37 39 37 37 37 37 36 34 32 31 30
19 16 18 15 15 18 37 36 36 33 33 33 36 32 29 30 34 32 30 31 32 31 31 32 35 38 42 39 41 42 41 39 39 40 41 41 40 38 37 35 34 34 36
16 17 17 18 16 14 30 38 38 33 32 32 28 27 28 27 29 31 33 34 35 34 35 30 32 38 34 40 46 36 45 44 45 45 46 45 41 41 36 35 33 35 34
15 15 15 19 21 18 19 19 19 20 20 21 26 30 30 29 33 35 36 37 39 36 32 30 28 32 36 37 39 43 46 48 47 46 45 46 45 43 37 36 39 36 37
11 13 15 19 21 22 23 27 26 30 21 17 27 27 29 28 32 35 40 43 42 37 36 34 35 36 38 40 43 46 47 48 49 45 46 46 42 40 39 36 32 36 38
11 10 11 17 23 30 24 24 28 32 27 26 31 31 27 26 32 36 40 45 37 38 35 38 40 39 40 43 44 45 46 49 46 40 39 40 41 42 40 36 35 34 39
12 12 14 16 19 21 23 28 32 34 30 29 28 31 28 25 25 28 32 31 31 31 36 37 39 41 46 44 41 41 39 39 38 38 38 40 41 40 36 31 32 32 31
11 13 15 17 18 21 25 29 27 34 33 30 28 31 29 35 26 27 28 27 33 36 39 37 38 42 43 42 39 37 35 36 35 36 36 37 37 36 32 29 31 32 34
8 7 10 13 11 15 15 23 31 33 32 35 37 26 28 31 28 31 35 37 37 39 40 37 38 38 38 37 34 32 28 27 27 30 32 31 26 28 29 30 32 35 37
7 5 3 11 14 12 8 10 23 28 31 29 35 30 28 33 33 26 25 25 25 28 25 25 27 29 32 31 28 28 28 27 27 26 28 30 30 32 32 33 35 38 40
7 9 7 5 7 7 6 8 10 14 13 16 23 24 21 24 25 23 25 25 26 26 25 23 24 27 30 32 32 32 31 31 33 34 34 37 37 37 37 39 40 42 44
12 9 10 10 9 7 7 7 8 9 14 15 19 22 22 23 25 27 29 30 29 29 27 24 26 29 30 30 34 35 36 37 36 39 40 43 44 45 45 44 46 45 45
17 15 11 9 10 10 11 11 12 13 14 15 16 16 19 22 24 23 23 23 24 26 28 25 29 31 32 33 35 36 41 40 42 43 43 44 46 50 50 51 53 52 51
20 19 18 15 13 13 14 15 17 17 17 18 19 19 20 20 20 21 23 24 26 28 29 30 26 30 30 34 35 37 38 42 45 46 47 49 50 51 53 55 56 58 59
24 23 23 22 21 20 20 20 20 19 18 20 21 21 23 24 26 28 30 29 29 32 33 34 31 30 34 31 38 36 40 43 45 46 47 49 51 52 53 56 60 62 63
26 26 26 27 26 25 26 27 27 27 26 25 24 23 24 25 26 28 29 29 34 35 36 37 38 39 37 38 39 40 46 45 48 48 50 50 53 54 56 58 60 60 60
29 28 28 29 30 30 30 31 32 33 32 31 30 30 30 31 32 35 36 37 39 40 40 42 42 43 40 42 43 44 44 44 46 44 51 52 56 57 60 62 64 65 65
29 30 31 32 32 31 32 32 33 35 36 37 36 35 35 35 37 39 41 42 45 47 48 48 50 50 51 50 51 50 49 49 49 50 50 52 56 58 59 63 65 67 68
33 31 31 33 33 32 32 35 36 37 36 35 36 36 36 36 38 41 43 45 47 51 53 54 55 55 56 57 58 58 56 56 57 56 57 59 61 61 61 61 62 64 66
31 31 31 34 35 37 40 42 45 46 44 46 44 46 49 49 48 49 50 51 53 57 58 55 55 61 63 62 64 66 66 65 64 65 65 65 66 69 68 68 69 67 67
35 36 38 40 43 44 43 46 48 51 51 51 52 55 56 56 54 54 56 58 58 63 62 54 60 69 69 65 62 73 75 69 77 77 75 75 80 81 75 78 82 78 78

GFSMA_500_spd_102.txt.gz
Wind_Speed
21 22 23 24 23 21 26 28 25 26 30 28 27 32 33 28 31 30 26 26 26 27 28 29 24 21 19 19 19 20 20 22 22 23 24 24 24 25 25 26 26 27 26
23 22 24 25 27 26 32 33 33 23 33 31 31 34 34 30 28 26 28 27 27 30 25 20 23 23 23 22 22 22 21 22 21 22 22 24 26 27 27 27 28 28 27
24 24 23 24 23 29 30 34 31 29 36 34 33 32 34 32 30 29 28 28 30 31 23 25 26 28 26 24 24 25 25 25 25 27 27 28 29 29 30 30 30 30 29
24 23 23 23 21 22 26 39 29 40 33 36 36 30 31 32 33 31 29 28 28 25 25 26 31 30 29 27 26 25 27 29 31 31 31 30 29 32 33 33 33 31 30
23 20 20 20 18 22 29 38 43 40 39 43 33 36 33 33 34 32 29 31 28 25 28 28 29 33 32 32 30 30 30 31 32 33 33 34 35 35 35 36 35 33 31
21 20 19 18 17 19 29 36 33 46 41 50 37 37 38 34 33 30 30 30 29 33 31 32 31 34 35 34 34 33 33 35 35 37 38 39 40 40 41 41 38 35 33
21 18 18 16 17 18 22 33 39 31 39 42 40 33 33 30 32 34 32 31 29 31 28 30 32 34 37 38 39 38 36 38 41 41 41 43 43 42 45 44 42 35 32
19 15 15 16 15 16 7 36 36 35 43 40 37 34 33 31 29 32 34 32 31 29 33 34 34 34 34 37 41 38 43 45 43 43 45 48 48 47 48 48 46 37 34
17 15 13 14 14 13 13 19 31 38 46 40 35 34 35 33 32 31 31 32 33 34 34 36 36 39 40 33 35 38 39 38 43 41 50 50 51 50 46 46 45 42 36
16 14 12 12 15 16 17 14 21 32 42 41 37 30 29 28 30 27 28 31 33 36 38 40 41 40 36 32 35 38 40 41 43 47 50 52 51 49 42 42 38 38 38
16 15 13 11 12 15 19 21 17 19 22 24 20 23 22 21 24 26 27 28 34 36 40 42 45 43 43 41 40 40 43 43 44 45 47 49 48 42 36 36 35 37 40
15 16 16 14 15 16 19 21 20 18 23 29 26 26 26 28 25 25 26 26 26 30 35 38 35 32 37 38 37 41 44 44 46 47 43 38 37 37 34 32 33 34 33
14 16 17 18 17 15 16 17 25 24 24 29 30 26 31 27 28 28 25 27 29 30 30 30 32 36 37 39 40 40 42 45 43 38 32 33 28 30 29 29 30 31 32
14 15 14 15 13 11 15 18 20 30 33 30 31 35 28 31 33 31 31 29 31 32 34 34 36 35 36 39 38 37 39 35 32 28 27 26 29 29 26 25 28 30 31
11 13 10 10 11 11 12 14 13 21 27 26 35 29 38 34 34 27 32 36 34 34 30 29 30 28 27 26 26 28 28 29 29 27 29 27 27 25 26 29 29 31 34
11 10 9 9 9 11 13 15 13 9 21 20 25 29 29 32 34 37 35 35 34 29 26 27 26 28 28 27 25 27 29 32 32 31 32 31 30 31 33 36 36 37 38
14 10 11 11 10 8 9 10 11 12 11 15 16 16 27 30 26 29 29 28 30 30 30 32 31 31 29 28 28 29 30 31 34 36 35 34 36 36 37 39 41 43 47
17 16 12 12 13 13 12 11 11 11 11 12 13 15 17 21 24 26 26 24 24 25 26 22 26 27 28 28 27 30 30 33 35 36 37 38 38 39 41 43 44 47 49
22 20 18 16 14 13 13 14 13 12 12 12 13 15 17 17 19 20 21 22 25 25 27 25 22 28 28 26 30 31 32 34 34 35 38 40 44 45 47 49 50 52 53
26 25 23 21 20 18 17 17 16 15 16 16 15 16 18 20 23 26 27 28 28 28 31 32 26 27 32 30 34 33 37 38 39 40 40 43 46 47 50 52 54 55 56
30 29 26 25 23 23 24 22 21 21 21 21 20 21 22 22 23 25 26 27 28 29 32 31 30 29 32 32 36 37 41 40 41 42 42 46 47 48 51 55 55 54 57
30 30 29 27 27 27 26 25 25 25 25 26 26 26 27 28 30 30 30 30 32 33 34 37 38 39 38 41 43 45 45 46 46 43 49 52 51 53 56 55 55 55 57
33 30 29 28 30 28 26 28 28 28 28 27 28 28 29 31 33 34 33 35 36 35 37 40 41 43 45 47 48 50 52 54 54 55 56 56 59 61 62 63 62 63 62
29 33 33 32 31 29 29 29 30 31 31 33 35 36 36 36 37 38 36 38 39 41 45 47 48 50 49 52 53 54 52 55 54 59 62 63 65 70 67 68 67 68 68
28 28 27 29 31 30 31 31 33 35 36 38 39 41 43 45 47 48 46 49 51 46 51 47 41 52 59 56 56 62 59 63 64 71 66 68 68 66 74 76 73 76 78
32 30 28 29 30 32 34 36 38 40 42 44 43 44 45 45 48 51 54 58 58 56 58 60 66 60 60 57 63 63 69 65 72 74 74 74 79 76 75 74 75 81 76

GFSMA_500_spd_105.txt.gz
Wind_Speed
22 21 21 22 23 24 25 25 26 28 25 27 31 25 25 31 33 33 32 29 29 28 26 24 24 25 27 18 21 20 20 21 21 21 21 19 20 20 22 23 23 23 24
22 19 23 24 25 24 26 28 25 31 22 26 31 26 27 30 32 33 31 33 28 25 24 24 24 25 24 23 24 22 20 19 19 19 20 18 19 21 23 25 25 25 26
20 19 23 26 28 27 27 28 29 30 23 30 30 30 30 28 30 31 32 32 31 24 23 25 25 23 22 25 26 24 22 23 21 20 21 23 25 26 26 27 27 28 29
21 21 23 25 27 26 28 26 31 31 30 33 33 34 31 31 31 31 31 30 28 24 24 26 25 22 26 29 28 27 25 26 26 26 27 28 29 31 30 30 31 31 32
22 22 23 23 24 26 27 27 31 36 34 33 36 38 33 31 32 35 31 30 29 27 26 24 25 27 27 28 30 28 29 29 27 28 30 31 32 33 33 35 36 37 38
24 24 23 23 22 25 24 30 31 39 39 38 44 39 35 31 34 32 31 31 29 26 27 25 24 26 29 30 32 33 35 33 32 33 34 35 36 37 37 39 41 42 44
26 25 23 22 21 23 24 27 34 42 37 33 45 35 40 38 34 30 31 30 29 28 28 28 31 30 33 33 32 34 37 38 38 38 40 38 42 41 41 44 48 50 50
27 22 22 20 19 21 22 23 28 43 37 47 36 36 42 31 35 33 33 34 33 31 30 29 29 29 32 34 32 34 39 40 40 43 44 46 48 44 47 49 52 49 46
26 21 21 19 19 18 20 21 24 36 39 42 38 41 44 42 34 32 33 32 35 34 33 30 30 31 33 35 37 37 39 41 43 44 46 45 43 47 49 51 51 49 44
26 21 20 18 18 16 17 16 8 34 31 33 37 39 36 34 31 34 34 37 33 34 31 31 32 34 35 36 36 39 39 34 36 38 42 42 44 46 47 48 45 38 40
26 20 20 18 17 16 16 18 13 9 23 32 33 32 36 39 38 38 37 31 27 27 28 31 32 34 36 38 38 37 41 43 41 42 44 44 44 43 45 45 40 36 35
25 21 19 18 19 17 16 16 15 15 11 10 20 25 24 30 31 32 25 21 22 25 29 30 31 33 36 37 38 37 38 41 40 42 43 42 41 42 40 35 33 32 29
23 21 20 18 19 19 17 17 17 24 19 18 16 21 22 20 22 21 22 23 24 27 29 31 29 29 30 31 33 37 38 37 39 41 40 38 36 35 33 29 29 28 27
21 19 20 17 16 16 15 14 14 20 23 25 24 21 25 24 24 26 24 25 29 29 33 33 30 30 34 36 36 35 37 39 38 34 31 28 27 26 27 29 29 27 23
21 17 15 15 13 10 10 9 11 13 17 25 32 30 30 33 31 31 31 32 35 35 37 35 33 34 33 33 30 30 29 26 25 27 26 27 29 27 27 27 26 27 27
23 18 13 14 11 11 11 12 14 15 13 21 32 34 27 33 32 32 34 34 37 35 36 37 34 29 30 29 28 30 29 30 29 27 28 28 30 29 29 30 30 31 32
24 21 14 14 13 11 10 10 9 10 9 10 15 18 19 25 32 30 32 35 35 34 34 28 27 29 31 31 30 29 29 26 27 27 27 29 30 31 33 35 34 35 36
24 24 21 15 13 14 14 14 12 11 9 10 11 14 18 19 16 19 22 20 22 24 25 22 25 24 24 24 25 27 25 27 27 28 28 30 31 33 35 37 38 39 41
29 26 25 22 18 15 14 14 14 14 14 14 13 14 14 14 15 17 19 20 22 25 24 23 21 25 28 27 27 27 28 31 32 30 30 32 34 37 39 40 42 45 46
30 30 29 27 25 23 21 19 17 15 13 13 14 15 15 18 19 20 21 23 25 27 29 27 25 28 30 28 31 28 31 32 33 35 36 37 40 41 42 45 48 49 48
30 32 32 30 29 28 26 23 21 20 19 18 18 19 19 19 20 21 22 25 26 27 28 29 27 30 28 31 34 36 37 34 37 38 41 43 42 42 46 47 49 50 52
34 34 34 34 33 31 28 26 24 24 24 24 25 26 25 25 26 27 27 28 30 30 32 34 34 32 31 34 36 38 39 40 42 44 47 49 51 53 55 54 55 56 58
35 42 40 36 35 31 29 28 28 28 28 29 30 30 29 29 28 28 29 32 33 36 38 39 39 37 37 37 40 44 43 44 46 48 53 50 52 57 57 58 61 60 63
39 44 49 42 37 33 33 33 33 33 33 34 33 31 31 32 33 34 35 37 38 41 41 41 44 45 45 47 48 49 48 50 48 50 55 60 61 62 65 65 66 69 70
38 35 31 40 37 36 37 37 36 36 36 36 36 35 34 35 38 39 40 38 41 43 46 49 51 55 56 57 51 53 55 55 52 59 65 61 60 67 71 75 76 72 77
49 36 35 33 33 33 35 36 37 38 37 35 36 37 39 40 40 40 41 41 45 47 45 46 48 49 49 54 59 59 57 58 58 61 63 66 70 70 73 77 79 77 77

GFSMA_500_spd_108.txt.gz
Wind_Speed
24 24 22 22 21 20 21 24 24 26 25 28 30 27 24 26 28 33 34 32 28 26 29 25 25 21 21 19 21 18 17 18 20 20 19 20 15 16 16 16 16 17 19
27 23 22 22 21 22 23 25 26 25 26 27 32 30 28 24 23 31 33 31 29 25 28 28 25 22 20 22 22 20 18 21 19 17 17 17 17 16 17 18 19 20 21
27 25 22 21 23 23 25 27 27 28 27 31 29 31 31 29 22 26 32 28 28 25 29 27 26 23 21 20 19 21 21 23 20 19 19 19 18 20 22 23 24 23 25
25 26 24 24 26 24 25 27 30 30 28 25 26 31 34 32 23 26 27 33 30 30 30 26 25 21 22 19 18 20 22 23 22 23 25 26 24 25 26 27 27 27 29
26 27 24 25 26 24 24 27 29 31 29 23 23 36 31 32 25 25 26 28 27 27 31 28 24 20 20 20 23 25 25 26 26 27 26 26 28 28 29 30 32 33 34
26 28 26 26 27 25 26 27 27 28 32 26 29 33 36 35 31 26 29 29 27 29 31 28 24 22 20 22 25 25 24 28 29 31 32 32 31 32 32 33 35 37 39
26 28 27 27 25 25 26 27 26 30 35 34 37 31 41 40 31 28 30 30 29 30 27 27 24 23 24 24 25 28 28 29 33 34 34 38 38 37 39 40 41 41 44
27 27 26 27 24 24 25 26 25 31 28 35 43 45 44 40 30 30 29 27 26 28 27 29 26 25 25 29 30 30 32 31 33 36 37 39 42 43 43 44 45 44 45
27 27 25 27 25 23 23 25 22 26 26 38 40 43 44 41 33 32 34 31 29 30 30 33 31 29 27 26 27 28 30 33 35 36 37 41 43 43 41 42 42 43 44
27 27 25 27 24 23 22 20 21 24 21 41 37 41 37 40 29 35 36 34 36 34 29 31 35 34 31 27 28 29 32 34 36 36 37 35 36 36 38 40 43 41 40
27 26 27 25 23 22 19 21 22 24 15 34 42 37 36 35 32 33 35 35 34 32 36 37 35 33 32 28 27 31 33 36 39 38 40 39 42 43 40 40 40 40 36
25 25 27 26 23 22 20 19 19 18 12 10 25 30 32 40 39 34 36 36 35 37 39 32 30 29 28 30 31 30 32 36 37 35 35 37 39 37 38 38 36 32 32
25 24 26 26 23 23 19 19 19 18 18 10 9 9 19 25 22 24 31 33 33 32 29 25 25 26 24 26 27 25 28 31 32 34 35 36 36 37 34 30 27 25 26
26 23 25 23 22 21 18 17 19 16 19 20 19 16 14 15 18 20 20 18 18 22 25 25 27 26 29 26 26 30 31 32 34 34 34 36 35 27 23 23 23 25 26
26 23 25 21 20 16 14 12 13 13 14 18 24 21 22 24 20 24 23 25 24 24 25 27 29 30 30 31 30 33 32 32 29 28 27 26 26 26 25 24 25 25 26
25 25 26 20 20 15 13 14 15 15 14 14 19 26 27 32 28 27 30 30 30 29 28 26 33 31 32 32 33 27 26 28 26 27 27 29 29 26 27 28 29 28 28
24 26 26 22 20 18 13 13 13 12 12 13 11 25 24 25 28 25 26 30 27 30 34 33 32 32 27 24 25 27 25 25 23 25 27 26 25 26 27 28 31 33 35
25 25 26 23 22 20 17 15 14 14 12 12 11 11 13 15 15 15 17 29 34 34 25 19 20 21 22 21 23 23 23 25 23 23 26 26 27 29 31 32 34 36 37
25 27 27 24 24 24 20 16 16 16 16 16 14 14 14 14 15 17 18 17 21 23 23 20 20 22 22 22 24 23 26 27 28 30 31 30 31 32 34 36 38 38 38
25 29 30 29 27 26 26 22 18 17 17 18 18 18 18 19 19 19 20 21 21 22 22 22 23 26 27 28 29 28 29 30 30 31 33 32 34 37 39 40 41 42 42
27 28 29 32 32 30 29 27 24 22 22 22 22 21 22 22 21 22 22 23 23 24 26 26 26 26 27 29 30 32 33 31 32 35 37 39 42 43 42 42 44 47 49
32 33 31 30 32 31 31 31 31 31 31 31 30 29 28 27 27 27 28 28 30 31 31 31 31 30 30 32 34 35 36 35 35 36 41 45 46 47 48 48 48 49 50
38 36 34 30 30 32 34 35 36 37 37 36 34 33 32 30 30 30 31 31 32 31 31 32 32 34 33 35 38 37 37 39 43 44 47 46 48 52 53 52 54 56 59
42 40 37 34 34 41 41 39 41 41 39 38 36 36 35 34 34 34 34 33 33 34 35 36 36 35 37 40 43 45 44 44 48 54 52 51 51 48 52 60 65 64 65
46 44 40 41 40 42 45 45 44 42 41 40 39 39 37 38 37 36 38 36 35 37 37 37 37 39 41 45 46 49 52 52 54 55 54 53 55 56 60 61 64 67 69
44 46 45 44 40 41 45 47 47 42 42 43 42 41 40 38 36 36 37 39 42 42 39 35 41 45 48 47 47 47 47 53 56 58 63 62 61 64 67 67 67 70 71

GFSMA_500_spd_111.txt.gz
Wind_Speed
21 22 21 22 23 22 22 19 20 23 23 23 24 24 28 32 27 30 32 34 37 32 29 27 27 29 22 19 17 17 18 18 13 15 14 16 19 16 10 14 13 13 13
23 23 22 20 22 23 23 21 22 25 25 25 25 25 24 30 25 29 30 35 35 27 27 27 25 24 23 19 18 18 18 15 13 13 16 19 18 16 15 15 14 15 16
26 24 24 22 22 22 24 24 24 26 27 26 27 26 29 26 27 27 24 32 29 29 28 27 26 24 23 21 20 18 20 18 17 16 18 19 19 18 18 17 18 20 20
28 28 25 24 24 24 24 25 25 27 27 28 28 25 24 27 30 24 21 27 29 29 28 27 25 25 24 24 21 18 15 16 20 18 21 21 22 23 23 23 23 23 24
30 29 28 27 25 26 27 26 27 27 27 28 29 23 21 31 34 30 26 26 31 30 30 28 27 25 24 22 19 19 19 21 22 22 23 25 24 24 25 26 26 27 28
31 30 30 27 26 28 28 26 28 27 27 26 29 24 26 36 33 33 27 23 27 32 30 30 28 27 24 23 20 23 23 25 25 24 25 27 28 30 31 31 31 32 34
31 30 30 27 27 27 27 26 29 28 28 27 28 30 32 35 38 38 28 22 25 27 26 25 26 28 26 24 23 21 23 24 25 26 28 29 31 32 33 35 37 39 40
30 30 28 28 27 26 28 28 29 29 29 29 27 38 30 40 45 37 30 26 25 29 26 26 28 29 26 24 25 26 27 27 29 29 29 28 30 30 33 37 39 39 41
28 28 27 28 27 26 28 27 29 27 26 27 24 26 36 40 46 36 30 26 26 25 27 27 27 28 26 24 26 26 26 28 30 30 29 31 32 34 36 35 35 37 36
28 25 26 27 27 26 27 27 28 24 21 23 26 27 38 35 45 39 34 32 30 29 28 28 29 30 31 29 28 29 29 27 27 30 31 32 33 34 37 37 38 37 39
27 24 26 28 27 26 27 26 27 24 22 23 22 30 35 41 42 40 40 33 32 36 36 33 34 31 29 30 31 32 31 30 31 31 32 34 36 38 39 40 42 39 36
26 24 26 28 26 26 27 27 25 25 21 21 16 29 38 39 37 41 39 31 28 29 36 38 35 34 35 35 33 34 31 31 31 31 32 32 32 33 34 35 34 35 35
25 25 26 29 25 26 27 27 23 26 22 19 13 11 35 37 34 32 34 34 35 34 33 30 33 36 33 31 30 28 28 28 26 28 30 30 31 33 33 33 34 33 29
25 25 26 29 26 25 25 24 22 25 21 19 18 10 9 22 24 32 24 27 27 28 29 29 30 30 27 26 26 26 27 29 32 30 30 31 32 32 31 29 28 25 24
26 26 27 28 25 24 24 23 20 20 17 17 18 20 22 14 15 21 20 20 21 18 18 21 25 27 26 26 26 27 29 30 32 32 27 25 25 25 27 29 30 29 28
26 28 28 29 25 23 23 21 20 17 16 16 16 22 26 23 20 24 22 23 23 24 25 23 27 28 26 26 31 30 29 31 28 26 26 26 27 27 28 28 30 32 30
26 31 29 27 26 24 24 20 20 20 20 20 20 21 24 30 27 28 31 29 27 27 29 31 29 30 30 33 32 29 27 26 27 27 25 27 26 26 27 28 30 32 32
30 31 30 28 27 24 25 22 21 19 17 15 16 17 16 25 26 26 29 30 27 26 29 29 29 29 27 25 25 26 26 24 22 22 24 27 27 28 30 33 34 35 34
34 31 29 28 27 26 26 25 22 22 21 17 16 16 15 16 16 18 21 23 20 24 28 31 27 23 26 25 24 24 24 24 26 26 28 29 33 34 35 34 35 35 35
37 35 28 27 29 28 26 26 25 23 23 22 20 19 20 20 20 20 20 20 21 23 22 24 25 28 27 26 26 28 29 31 29 30 30 32 33 34 35 37 38 40 41
39 39 32 27 30 32 30 29 28 27 26 24 22 23 22 22 22 22 23 25 25 26 26 27 28 30 31 32 31 31 29 31 32 31 35 37 38 36 35 37 41 44 46
40 41 37 32 28 28 30 32 33 32 32 31 30 29 29 27 27 26 27 28 29 28 29 29 31 30 32 32 33 34 35 35 35 36 37 40 39 39 42 45 47 49 47
38 39 42 35 31 32 32 31 33 35 34 36 37 36 35 34 34 34 35 34 35 35 35 35 35 35 36 36 37 38 38 38 38 37 41 44 45 47 50 52 55 55 55
44 43 41 38 39 37 36 35 33 37 33 41 43 42 40 40 40 40 40 39 39 39 37 36 35 35 35 36 38 39 40 39 41 43 45 46 50 54 55 54 56 56 56
43 46 42 40 39 44 41 41 39 35 36 41 47 46 44 44 43 43 43 42 41 40 40 39 38 38 38 38 40 38 43 45 45 45 46 48 52 54 54 54 55 62 67
43 40 46 45 43 50 46 47 42 40 40 43 46 49 47 46 45 45 44 44 44 42 43 42 41 42 43 38 40 39 43 50 51 53 53 55 56 57 60 63 65 67 65

GFSMA_500_spd_114.txt.gz
Wind_Speed
22 22 23 21 20 20 20 20 20 23 23 24 21 23 23 23 24 28 27 25 32 32 32 31 23 25 24 20 19 20 17 16 19 18 15 13 13 15 14 14 11 10 13
25 23 24 23 21 21 19 19 20 23 25 25 27 26 25 24 22 25 30 28 33 33 34 30 26 25 26 27 20 20 17 18 18 14 11 12 13 15 15 14 14 15 14
27 26 24 24 24 23 19 20 23 25 26 28 30 28 27 24 24 31 27 27 34 34 32 27 30 27 26 19 21 21 19 19 20 17 15 15 14 16 17 15 16 17 19
26 27 26 23 24 24 23 21 24 26 26 28 28 28 27 26 27 29 26 32 32 33 34 26 25 26 26 24 22 23 21 21 17 18 18 19 16 17 18 20 21 22 22
27 27 27 25 25 25 26 24 24 26 25 28 29 28 27 24 27 28 28 30 28 27 30 27 28 27 26 26 23 23 23 23 18 18 20 22 21 20 22 23 23 25 26
28 28 28 27 25 25 26 26 25 24 26 28 28 27 24 25 27 28 30 26 25 27 29 27 28 28 27 25 23 24 25 24 22 22 23 24 25 24 26 27 28 29 31
29 29 30 29 26 25 27 27 27 24 27 27 29 28 28 27 24 30 34 31 31 27 29 30 30 29 31 27 25 27 24 23 22 25 27 25 26 26 28 29 31 32 33
33 31 30 29 27 26 27 28 27 26 27 27 29 29 29 31 27 34 36 35 29 26 27 31 33 31 31 28 27 28 25 23 23 26 26 29 29 28 31 30 30 32 36
38 33 30 29 27 26 27 28 27 26 27 27 29 27 26 28 32 36 44 38 34 25 28 28 28 27 26 26 28 28 25 26 26 26 29 32 33 32 33 35 35 36 39
40 34 29 29 27 27 26 28 27 26 27 26 26 25 29 29 31 40 48 44 40 30 27 29 32 31 29 30 30 29 28 29 28 29 27 28 31 34 37 37 37 38 39
39 35 31 29 28 26 26 28 27 25 27 26 26 27 24 24 24 40 48 44 38 30 28 29 33 33 32 32 31 33 36 36 33 33 32 34 35 35 36 36 38 38 36
40 37 32 30 28 27 26 28 27 25 28 27 28 25 21 24 25 36 44 45 38 35 33 35 35 36 34 34 34 35 34 37 36 35 33 33 34 33 33 33 34 35 35
41 37 32 31 27 26 27 27 27 26 27 28 28 25 22 23 28 29 36 38 44 37 34 29 28 34 40 42 38 37 38 39 39 35 33 32 31 31 33 34 35 36 35
42 38 33 30 28 27 27 27 26 25 27 27 26 26 25 17 26 30 34 36 41 35 35 29 30 31 31 33 36 37 37 33 32 31 32 33 32 33 33 34 33 32 30
41 40 35 30 30 27 27 27 26 25 24 24 24 23 22 18 19 29 36 29 32 31 29 32 29 30 31 30 30 30 31 32 31 33 31 32 34 35 31 30 29 30 30
40 39 35 33 31 28 28 27 27 24 21 21 21 21 21 23 21 16 29 30 27 25 23 22 23 27 29 28 29 28 27 28 30 32 34 34 33 30 31 32 31 31 30
39 39 36 37 31 30 29 28 27 22 20 23 22 21 21 22 25 23 19 23 24 26 24 24 24 24 25 28 31 30 29 32 33 31 29 33 32 34 34 33 31 30 30
42 38 38 38 34 30 31 30 28 24 19 22 22 24 26 25 23 28 30 27 27 31 31 30 29 32 31 30 33 35 34 34 33 31 30 30 32 30 30 29 29 30 30
47 38 42 38 36 33 32 31 30 27 20 24 22 23 21 20 19 24 29 31 30 32 35 37 33 33 36 33 34 35 31 29 28 28 33 32 31 31 31 32 33 32 32
49 36 43 41 38 33 34 33 31 30 25 24 25 25 24 22 20 19 21 24 26 29 29 28 31 34 35 33 32 30 27 33 34 33 32 35 33 34 33 33 33 35 36
41 36 44 44 40 37 34 35 34 33 29 26 26 27 26 27 25 24 23 24 25 26 27 29 28 28 29 30 33 35 35 34 35 37 36 36 35 36 37 38 39 39 41
40 42 46 46 44 39 35 36 37 36 34 30 30 30 29 29 28 28 28 28 28 29 30 31 31 31 33 35 36 37 37 38 38 38 38 38 39 39 41 42 44 45 46
40 43 43 47 47 45 38 37 38 39 37 35 34 35 35 35 34 34 33 33 33 33 33 33 32 33 35 36 38 39 39 40 40 40 42 42 43 43 44 46 47 50 53
38 38 43 45 42 42 42 39 39 39 37 36 38 39 37 39 40 42 41 40 40 39 39 38 38 39 39 41 42 41 41 41 41 43 44 45 47 48 48 50 50 53 56
41 53 38 43 34 40 48 41 45 41 42 41 38 35 41 37 39 45 47 47 46 44 43 43 43 43 43 43 43 44 44 44 45 45 45 46 49 51 53 56 56 56 58
44 37 38 35 35 38 42 44 42 45 46 45 46 42 38 36 38 43 47 52 51 49 47 46 45 46 47 46 46 48 48 48 47 46 47 49 52 54 58 60 60 63 61

GFSMA_500_spd_120.txt.gz
Wind_Speed
21 20 19 17 17 17 17 17 17 18 18 19 19 18 20 20 20 21 19 20 21 17 17 23 20 22 23 22 22 20 19 17 17 17 15 14 17 15 18 15 13 13 12
21 21 21 20 17 18 18 18 18 19 18 19 20 20 21 22 22 22 21 20 21 22 21 21 21 25 25 28 26 23 21 20 20 18 17 17 14 14 18 16 12 12 11
23 22 22 22 19 18 19 20 19 19 20 19 22 22 23 23 22 21 22 21 24 24 24 25 25 27 29 31 30 25 21 21 22 20 21 17 15 16 18 18 16 14 14
27 23 23 23 22 20 20 22 21 20 21 21 22 24 23 24 22 23 24 22 27 27 25 26 26 27 34 34 28 27 23 24 24 24 21 17 17 19 19 19 20 19 18
28 26 26 24 23 23 22 23 23 22 22 23 23 24 24 25 23 24 25 26 26 28 30 30 31 31 36 34 27 28 26 24 24 24 23 20 18 22 22 22 23 23 22
31 29 29 25 24 25 25 25 24 25 25 25 25 25 26 26 24 25 26 24 26 30 31 31 33 32 37 20 25 28 26 27 26 24 24 22 21 22 23 24 24 24 26
35 33 31 26 26 28 27 27 25 26 26 27 26 26 27 27 25 26 29 28 28 27 33 34 35 35 36 24 32 32 29 26 26 26 25 26 25 26 26 25 27 27 26
37 34 33 29 29 30 30 28 27 28 27 28 27 28 27 26 25 26 28 28 29 27 28 31 33 36 27 27 29 30 28 29 26 27 28 28 29 28 28 27 26 28 29
39 40 37 34 32 33 33 32 28 29 28 29 29 29 30 27 26 27 26 26 25 24 32 31 34 30 29 30 32 31 30 31 27 30 30 28 27 27 26 26 28 30 32
42 45 42 33 27 32 34 35 31 29 30 30 30 30 31 30 28 26 27 27 27 29 30 36 34 33 30 33 32 34 34 31 31 31 31 30 29 29 29 29 30 31 31
41 44 42 37 37 36 37 36 34 31 30 31 31 31 31 31 30 27 26 27 32 32 32 35 37 39 37 33 36 38 35 32 32 33 34 35 35 33 31 30 33 34 34
43 47 47 44 40 37 38 38 39 35 32 33 32 32 31 32 31 29 29 26 29 30 28 40 39 37 32 32 37 39 36 36 36 36 37 38 37 37 35 37 38 37 35
41 38 54 48 39 40 37 41 43 39 34 35 34 33 32 32 32 29 28 27 28 26 25 40 42 40 36 35 34 36 38 38 38 38 38 39 41 40 40 38 38 39 35
39 42 39 37 44 41 38 39 42 41 36 36 35 33 33 31 31 29 28 27 28 25 28 40 44 45 40 34 30 33 37 38 38 39 41 43 45 39 39 39 39 36 34
46 41 45 45 47 44 40 37 38 41 38 37 36 34 33 31 28 27 26 25 26 22 27 31 42 40 39 38 34 36 35 35 37 37 39 41 39 38 36 35 33 31 34
47 45 47 48 47 42 40 38 37 40 39 39 38 34 34 30 27 25 24 21 22 23 27 30 31 37 43 42 43 38 37 36 36 37 36 36 34 32 33 32 33 35 36
48 48 47 48 45 43 43 41 38 39 41 40 38 35 34 30 28 25 23 23 24 23 27 26 32 37 39 37 36 39 37 38 34 32 32 30 29 30 30 31 34 37 37
50 47 48 47 45 45 45 45 43 41 43 40 41 36 35 31 28 26 27 26 22 23 21 23 25 29 30 31 31 29 27 25 26 26 27 28 31 35 34 36 37 38 34
50 49 48 48 44 43 45 48 46 43 44 43 42 37 37 34 29 28 27 24 25 22 23 22 24 27 27 26 25 24 26 26 28 29 31 34 34 36 38 37 34 32 32
48 49 48 47 43 40 42 45 47 47 44 43 43 39 38 36 32 31 29 27 24 25 25 29 27 25 27 31 31 30 31 32 31 36 38 37 38 36 37 34 32 34 34
44 45 41 38 38 37 38 40 43 51 47 43 45 41 40 40 35 33 32 31 28 26 25 29 31 33 35 35 34 34 32 36 37 38 38 40 40 39 36 34 36 36 36
38 37 33 37 37 39 38 40 41 47 52 48 46 44 39 43 39 37 35 33 31 30 29 28 32 33 35 37 37 36 36 37 41 42 42 44 43 40 39 39 39 40 39
41 40 40 43 43 37 45 48 44 44 43 39 48 45 39 42 42 41 39 38 35 32 31 32 33 33 33 33 35 35 35 36 37 38 39 39 39 39 40 40 41 41 42
43 43 44 45 44 39 43 41 48 39 36 47 48 44 42 43 42 43 44 43 40 39 36 34 33 33 33 34 34 34 36 36 38 38 38 38 39 41 41 43 44 45 47
39 44 43 43 43 47 47 48 32 44 42 46 48 47 45 47 46 45 45 46 47 44 44 42 40 40 39 40 40 41 41 42 43 42 43 44 44 45 45 47 47 47 49
36 37 41 43 41 39 33 51 41 37 44 45 47 48 47 49 50 49 47 47 45 45 46 48 43 42 42 42 43 46 48 48 49 49 49 48 47 46 48 51 52 52 53

GFSMA_500_spd_123.txt.gz
Wind_Speed
19 19 19 20 21 22 20 20 16 15 15 15 15 16 18 17 17 17 18 18 19 19 19 17 13 18 16 18 21 22 21 21 21 18 20 18 14 13 14 14 16 16 14
23 22 21 21 21 22 22 21 17 17 16 16 16 17 18 18 18 18 19 18 20 23 20 21 19 13 16 20 22 25 23 23 23 20 21 18 16 13 12 15 17 18 16
26 24 24 24 22 22 22 21 19 17 18 18 17 17 18 20 20 20 18 18 19 22 26 24 25 21 19 23 27 28 27 26 25 23 22 21 17 14 13 16 19 19 17
26 27 27 26 25 22 22 22 21 19 18 19 19 19 18 20 21 21 20 21 20 23 26 29 30 27 25 22 31 28 32 29 25 25 25 24 20 16 15 18 20 20 18
28 28 29 30 29 25 23 23 23 21 20 20 20 21 20 21 22 22 23 24 22 21 28 31 30 30 30 31 34 33 33 30 28 26 25 27 19 18 16 20 21 20 21
31 31 30 32 32 29 26 25 24 23 22 22 21 22 21 23 23 23 26 27 26 24 24 28 30 34 31 31 29 38 39 33 32 26 26 26 22 20 19 19 24 22 22
33 35 33 33 34 33 30 27 26 26 24 25 23 23 23 24 24 25 27 28 28 28 27 30 34 37 32 33 37 37 37 32 31 28 28 27 25 24 22 21 25 23 24
35 38 36 36 36 35 31 31 30 29 26 27 26 25 23 24 27 27 27 29 30 28 28 30 33 32 36 39 37 36 27 33 32 30 30 29 28 26 25 25 26 26 26
38 40 41 38 37 36 34 36 33 31 28 29 29 28 26 25 28 28 29 30 30 29 27 28 24 27 41 40 39 36 26 34 34 33 32 31 29 26 25 24 23 24 27
42 40 42 44 42 36 38 40 35 33 32 31 31 30 29 28 28 27 28 32 31 31 28 29 28 27 32 35 35 26 28 35 33 33 34 31 29 27 27 28 27 28 27
44 40 44 44 46 46 42 38 38 35 34 33 34 32 31 29 30 29 27 30 35 33 30 31 33 29 35 38 33 30 32 35 36 33 33 33 31 31 32 31 30 30 31
43 44 45 45 48 51 46 40 41 37 34 36 36 34 34 32 31 31 31 28 32 33 32 31 29 28 30 35 34 34 36 36 37 37 37 35 35 34 36 35 36 35 35
41 43 45 46 47 44 41 48 42 40 35 37 36 34 36 34 33 33 32 31 30 30 32 33 27 27 36 35 39 35 34 39 38 39 38 37 35 36 37 37 38 39 41
41 45 46 47 47 48 48 40 43 40 39 39 37 35 37 37 35 33 33 32 30 28 30 31 31 27 36 42 43 39 37 37 38 41 41 39 40 39 39 40 41 41 42
42 46 46 44 42 40 32 32 36 38 40 41 39 36 37 39 37 34 33 31 30 26 29 29 29 29 36 42 44 40 39 37 35 35 37 39 41 39 40 41 42 40 36
46 48 47 44 44 44 42 41 45 44 42 41 41 38 37 40 38 35 33 31 29 27 26 26 24 24 32 41 43 45 41 38 35 35 37 38 38 39 39 39 40 34 32
48 49 49 48 46 47 46 46 46 44 41 41 40 39 38 43 39 35 33 31 29 28 27 30 21 23 30 37 43 44 45 44 40 37 39 39 38 39 40 37 32 31 31
49 50 51 49 49 47 48 46 46 45 43 44 44 45 39 43 41 36 34 31 30 31 29 26 25 25 27 34 34 37 40 39 40 40 41 42 39 34 30 29 30 31 33
50 50 51 50 51 51 49 46 44 44 44 44 46 47 42 43 43 38 35 32 30 30 29 30 29 27 25 25 28 31 34 33 34 32 29 29 28 28 30 31 32 34 38
44 46 48 48 50 50 46 44 45 45 45 42 45 47 47 44 45 40 38 34 33 30 30 29 32 29 26 26 30 29 29 30 28 28 29 30 32 34 35 33 36 35 35
43 46 45 46 47 48 47 47 46 45 43 41 42 43 50 47 48 43 39 36 36 32 32 30 33 33 32 29 28 30 32 33 33 32 32 35 35 35 37 37 37 38 36
39 41 43 48 49 52 52 51 48 44 44 43 44 44 47 51 49 46 40 39 37 37 34 34 35 34 35 36 33 35 35 38 38 37 37 37 41 41 39 39 40 39 39
45 44 43 43 41 36 45 43 43 36 41 44 50 45 45 50 53 48 42 40 38 40 39 36 37 38 36 35 42 38 39 41 37 38 39 37 40 42 42 42 39 39 39
42 43 44 44 45 48 49 45 46 46 42 38 44 38 37 39 46 44 46 42 39 41 41 39 39 39 40 37 37 39 37 37 37 37 36 38 39 40 40 40 40 41 41
37 40 43 44 45 49 49 47 44 52 46 48 49 42 40 37 44 48 47 44 42 41 42 44 43 42 42 41 40 40 39 39 38 38 38 38 39 39 40 41 42 42 43
25 34 38 41 39 40 44 48 51 49 51 52 49 51 44 45 45 47 46 45 45 46 43 45 47 48 47 47 46 46 46 44 43 43 42 43 43 44 46 47 47 47 46

GFSMA_500_spd_126.txt.gz
Wind_Speed
22 21 20 21 21 21 20 19 19 18 16 15 14 14 14 15 16 18 18 18 19 18 20 18 22 14 19 18 19 26 27 26 26 24 24 21 20 19 16 13 15 17 18
27 24 23 21 25 23 23 22 19 19 18 16 16 15 16 15 16 17 19 20 20 18 20 22 22 21 17 18 23 20 22 28 27 26 25 24 21 20 16 14 16 17 17
29 25 23 23 27 24 24 25 22 20 19 18 17 16 18 17 18 19 19 19 20 21 20 21 25 23 24 16 16 18 21 30 29 29 26 25 22 22 17 14 16 16 17
30 28 26 26 25 26 26 27 26 23 21 20 18 16 19 18 20 20 20 21 20 22 23 23 24 28 25 27 21 21 26 31 32 31 28 27 24 23 19 16 17 19 18
31 29 28 28 28 26 28 28 28 28 24 22 20 19 20 20 21 21 21 23 23 24 25 25 25 29 31 29 26 30 29 33 36 33 31 29 25 26 23 19 18 21 20
33 29 29 31 32 30 29 30 29 30 27 25 22 22 21 22 22 23 23 23 24 26 26 27 27 26 29 31 29 27 31 35 37 38 34 31 29 28 25 22 19 21 22
35 31 31 34 36 34 33 31 29 31 30 27 25 25 24 24 23 26 25 24 26 27 26 28 31 31 33 33 36 32 32 36 42 45 37 33 31 28 27 24 21 20 22
36 34 37 37 38 38 35 34 30 33 33 31 29 28 26 26 26 27 27 27 27 29 27 27 30 31 33 35 36 34 32 37 36 45 37 36 33 30 28 26 24 21 21
41 39 40 41 41 41 38 37 36 35 35 34 34 31 28 28 29 30 29 28 30 30 29 30 30 29 30 27 32 38 38 43 39 37 37 38 34 32 30 28 26 22 23
48 47 45 44 44 44 44 42 40 40 41 37 36 33 30 29 30 29 31 31 31 32 32 30 30 29 32 28 31 35 40 45 37 40 40 41 35 33 32 29 28 25 25
50 50 48 46 46 46 50 49 46 44 44 40 34 34 32 31 31 31 32 30 33 34 34 32 32 32 33 33 35 31 42 39 36 32 37 40 37 34 32 31 31 30 29
56 54 49 48 48 50 53 53 48 47 46 43 36 37 34 32 31 33 32 34 32 33 34 36 32 33 34 32 29 32 39 37 31 33 39 38 36 35 34 33 35 35 34
58 55 52 50 46 49 53 52 48 53 48 42 41 36 33 32 36 36 33 34 33 34 32 36 33 33 34 31 29 36 39 40 33 34 38 39 37 36 36 37 37 37 36
62 56 53 50 46 49 50 50 49 45 43 45 48 49 33 34 37 39 37 34 34 34 30 33 36 32 32 34 32 36 40 37 37 37 37 40 39 38 40 40 42 44 42
58 57 53 50 46 49 48 50 39 40 37 32 31 32 36 35 36 40 41 35 36 34 30 31 32 32 32 32 37 37 39 40 42 38 36 40 40 41 46 45 42 43 40
52 52 51 48 48 52 51 46 37 39 40 37 33 37 38 37 39 42 42 40 37 37 34 29 30 30 31 31 34 37 43 44 44 42 41 41 43 44 42 40 40 41 41
62 56 46 46 46 50 48 44 38 43 40 40 41 41 40 40 40 43 43 44 38 39 37 31 29 30 32 31 32 33 43 42 43 43 43 39 38 41 40 40 42 41 41
53 54 48 47 48 49 48 46 45 45 45 42 42 43 43 43 42 46 47 45 41 40 40 34 31 32 30 29 30 32 39 43 44 47 45 41 43 42 41 43 44 41 43
50 50 47 45 48 50 49 49 49 48 47 46 46 45 44 46 46 47 47 46 43 41 41 37 34 31 33 31 30 31 37 39 39 42 48 49 47 43 48 48 44 39 33
35 36 39 44 49 51 53 52 51 50 48 48 49 47 45 48 47 47 46 48 46 43 42 40 36 34 32 33 30 30 31 32 36 41 45 42 44 42 38 34 32 32 32
35 37 42 44 48 52 51 49 48 47 45 47 48 48 48 47 48 48 46 49 50 46 44 42 39 36 33 32 31 34 32 31 33 32 35 38 35 31 30 32 33 34 35
38 42 42 43 46 49 50 50 48 48 49 50 50 52 52 50 50 49 50 48 52 51 46 42 40 39 34 34 34 37 40 32 34 32 33 34 35 34 35 36 38 38 38
40 40 43 44 46 45 48 50 53 52 54 54 53 56 54 51 50 47 54 51 51 55 49 45 41 39 39 36 39 40 38 41 39 38 40 41 41 41 40 40 40 40 41
39 40 44 46 47 48 49 46 47 49 44 37 53 45 49 45 53 51 56 48 50 55 57 45 44 41 41 40 40 41 43 44 46 45 43 44 45 46 42 42 44 41 42
31 35 38 42 47 49 50 52 55 56 63 54 45 53 51 52 51 44 39 45 46 48 51 47 46 42 42 44 43 43 42 42 45 44 41 42 41 43 43 41 44 45 44
21 24 27 30 34 41 45 47 48 50 55 58 54 51 48 50 56 57 49 44 46 45 49 49 48 44 41 42 44 47 47 46 46 45 45 45 44 44 45 43 43 42 43

GFSMA_500_spd_129.txt.gz
Wind_Speed
26 24 23 23 22 20 19 21 20 20 18 18 19 19 16 17 16 17 15 17 18 19 20 21 19 15 22 18 21 20 25 30 29 28 28 27 24 23 21 19 18 18 16
30 26 26 25 23 21 20 24 22 21 21 20 19 19 20 19 18 19 17 17 20 19 19 20 21 20 21 23 15 18 28 26 29 29 28 28 25 24 22 21 18 18 18
31 31 29 27 24 23 24 23 25 22 23 22 21 20 20 21 21 21 21 19 18 21 19 21 22 22 19 19 24 18 22 26 33 31 31 30 28 26 23 21 20 19 20
32 31 33 31 29 25 25 25 25 26 23 24 23 22 21 22 23 23 23 24 20 21 21 22 24 24 23 22 22 22 22 19 21 31 32 31 30 27 25 23 21 19 20
34 32 32 34 33 30 27 27 26 27 27 27 25 24 24 24 25 25 25 25 26 24 22 24 23 25 24 25 24 26 28 32 30 31 34 33 34 30 28 25 23 22 20
37 36 33 35 39 34 31 29 30 29 29 29 29 26 25 26 26 27 27 27 26 27 25 22 23 24 26 26 27 23 27 31 28 30 36 36 36 34 32 29 26 25 21
40 38 38 37 39 37 34 34 34 31 30 32 31 31 28 28 27 27 27 28 28 28 27 27 24 26 28 28 29 29 32 30 32 30 38 38 40 40 36 32 28 27 22
45 41 39 36 39 40 39 37 37 35 35 33 35 35 32 29 29 28 28 28 29 30 30 28 28 29 30 31 30 31 31 35 33 36 38 40 45 41 38 34 30 29 24
46 43 38 40 40 44 42 40 40 40 38 36 37 39 37 33 33 31 30 28 28 30 31 30 29 30 32 31 32 28 27 29 33 33 37 41 41 47 37 36 32 31 28
46 44 40 45 47 47 47 45 44 45 43 40 39 39 41 38 37 35 30 31 29 30 32 32 31 31 32 31 33 32 32 31 34 32 39 43 38 38 39 39 35 34 29
49 46 45 48 50 49 48 51 47 47 49 47 40 41 39 40 40 36 35 32 28 31 32 33 33 33 33 35 33 34 34 37 37 39 44 44 45 44 43 40 38 35 31
51 48 48 48 48 50 47 50 51 50 48 51 47 44 41 39 41 38 36 35 34 32 31 33 33 34 36 35 32 33 33 34 38 38 39 43 43 43 42 41 39 33 33
45 50 47 49 50 53 50 51 56 56 54 55 53 50 46 42 40 45 38 34 37 35 34 32 34 34 36 33 33 34 34 34 35 35 35 35 31 35 44 41 38 37 36
44 49 54 55 56 52 55 54 57 58 57 54 52 49 43 42 40 44 40 38 37 36 35 34 33 35 37 36 31 35 33 35 35 36 41 35 34 36 40 39 39 41 39
42 48 54 58 52 52 55 58 59 59 57 54 52 45 41 39 33 34 34 36 36 37 33 35 33 36 37 35 33 33 35 34 37 35 41 43 39 38 42 42 41 41 41
47 54 56 59 53 52 58 58 59 62 59 55 48 46 39 37 33 32 33 36 36 37 37 36 35 36 37 38 33 33 34 34 36 36 38 39 40 36 39 43 44 44 45
55 57 59 55 53 55 60 58 63 64 62 55 51 38 37 37 41 40 37 36 37 39 41 39 39 37 37 39 37 35 35 35 35 36 41 46 40 40 41 43 45 46 47
60 59 60 56 60 58 59 63 62 66 62 52 45 38 39 44 44 41 39 40 39 41 43 41 42 39 38 39 38 38 36 34 33 32 37 40 40 44 47 45 45 46 45
61 65 65 59 63 65 61 66 68 59 53 48 45 45 44 44 43 42 41 45 44 42 47 46 42 43 40 39 39 37 37 36 35 32 38 44 45 45 47 49 47 46 45
58 64 61 60 63 67 61 63 63 49 47 48 48 46 46 46 46 47 47 47 46 45 49 46 44 44 43 39 40 37 37 37 38 35 34 42 46 47 49 52 51 50 49
41 48 53 51 52 60 65 58 58 50 46 49 50 47 48 49 50 51 50 49 47 47 51 49 45 41 45 43 42 41 39 38 39 34 35 36 39 45 48 49 48 47 46
27 31 37 41 42 41 39 31 47 41 50 49 49 50 51 52 52 52 52 53 51 50 53 50 47 46 46 46 45 44 41 42 40 37 39 37 34 34 36 41 43 41 37
30 32 36 38 41 44 44 44 48 49 50 50 47 53 53 53 53 54 56 57 58 56 53 56 57 52 45 49 49 48 45 43 42 39 38 37 35 35 33 34 37 37 37
25 28 32 36 41 45 46 48 50 50 52 51 53 55 58 60 60 58 59 52 58 55 55 62 59 59 46 50 53 50 49 50 45 43 42 41 43 38 40 41 41 43 43
19 21 23 27 32 36 41 46 50 53 54 51 52 52 50 55 55 47 54 51 51 51 56 49 59 55 47 51 56 55 53 51 50 46 43 41 45 43 43 44 45 45 46
20 22 24 25 26 29 32 36 42 48 53 55 56 61 66 62 67 46 49 49 54 54 52 39 43 45 45 48 50 56 54 51 49 48 45 45 45 45 43 42 42 44 46